[[{"header":{"parameterUnit":"m.s-1","parameterCategory":1,"la1":30.6,"la2":29.2853,"lo1":-89.7004,"lo2":-87.6739,"dy":0.0162,"dx":0.0183,"nx":112,"ny":82,"refTime":"2024-09-13T00:00:00:Z","depth":0,"parameterNumber":2,"parameterNumberName":"U-component_of_WINDS"},"data":[0.0,0.0,0.0,0.0,0.0,0.0,0.0,0.0,0.0,0.0,0.0,0.0,0.0,0.0,0.0,0.0,0.0,0.0,0.0,0.0,0.0,0.0,0.0,0.0,0.0,0.0,0.0,0.0,0.0,0.0,0.0,0.0,0.0,0.0,0.0,0.0,0.0,0.0,0.0,0.0,0.0,0.0,0.0,0.0,0.0,0.0,0.0,0.0,0.0,0.0,0.0,0.0,0.0,0.0,0.0,0.0,0.0,0.0,0.0,0.0,0.0,0.0,0.0,0.0,0.0,0.0,0.0,0.0,0.0,0.0,0.0,0.0,0.0,0.0,0.0,0.0,0.0,0.0,0.0,0.0,0.0,0.0,0.0,0.0,0.0,0.0,0.0,0.0,0.0,0.0,2.5523,2.7899,2.9728,3.079,3.0871,2.8739,2.6326,2.3768,0.0,0.0,0.0,0.0,0.0,0.0,0.0,0.0,0.0,0.0,0.0,0.0,0.0,0.0,0.0,0.0,0.0,0.0,0.0,0.0,0.0,0.0,0.0,0.0,0.0,0.0,0.0,0.0,0.0,0.0,0.0,0.0,0.0,0.0,0.0,0.0,0.0,0.0,0.0,0.0,0.0,0.0,0.0,0.0,0.0,0.0,0.0,0.0,0.0,0.0,0.0,0.0,0.0,0.0,0.0,0.0,0.0,0.0,0.0,0.0,0.0,0.0,0.0,0.0,0.0,0.0,0.0,0.0,0.0,0.0,0.0,0.0,0.0,0.0,0.0,0.0,0.0,0.0,0.0,0.0,0.0,0.0,0.0,0.0,0.0,0.0,0.0,0.0,0.0,0.0,0.0,0.0,0.0,0.0,0.0,0.0,0.0,0.0,0.0,0.0,0.0,0.0,0.0,0.0,2.6145,3.0115,3.0698,3.0487,2.9805,2.7359,2.4747,2.2035,0.0,0.0,0.0,0.0,0.0,0.0,0.0,0.0,0.0,0.0,0.0,0.0,0.0,0.0,0.0,0.0,0.0,0.0,0.0,0.0,0.0,0.0,0.0,0.0,0.0,0.0,0.0,0.0,0.0,0.0,0.0,0.0,0.0,0.0,0.0,0.0,0.0,0.0,0.0,0.0,0.0,0.0,0.0,0.0,0.0,0.0,0.0,0.0,0.0,0.0,0.0,0.0,0.0,0.0,0.0,0.0,0.0,0.0,0.0,0.0,0.0,0.0,0.0,0.0,0.0,0.0,0.0,0.0,0.0,0.0,0.0,0.0,0.0,0.0,0.0,0.0,0.0,0.0,0.0,0.0,0.0,0.0,0.0,0.0,0.0,0.0,0.0,0.0,0.0,0.0,0.0,0.0,0.0,0.0,0.0,0.0,0.0,0.0,0.0,0.0,0.0,0.0,0.0,2.5615,2.8001,3.1291,3.1471,3.1021,3.0296,2.74,2.4659,2.2341,2.1004,0.0,0.0,0.0,0.0,0.0,0.0,0.0,0.0,0.0,0.0,0.0,0.0,0.0,0.0,0.0,0.0,0.0,0.0,0.0,0.0,0.0,0.0,0.0,0.0,0.0,0.0,0.0,0.0,0.0,0.0,0.0,0.0,0.0,0.0,0.0,0.0,0.0,0.0,0.0,0.0,0.0,0.0,0.0,0.0,0.0,0.0,0.0,0.0,0.0,0.0,0.0,0.0,0.0,0.0,0.0,0.0,0.0,0.0,0.0,0.0,0.0,0.0,0.0,0.0,0.0,0.0,0.0,0.0,0.0,0.0,0.0,0.0,0.0,0.0,0.0,0.0,0.0,0.0,0.0,0.0,0.0,0.0,0.0,0.0,0.0,0.0,0.0,0.0,0.0,0.0,0.0,0.0,0.0,0.0,0.0,0.0,0.0,0.0,0.0,0.0,0.0,0.0,2.8382,2.9935,3.1597,3.1744,3.1392,3.0255,2.7154,2.4442,2.2587,1.9938,0.0,0.0,0.0,0.0,0.0,0.0,0.0,0.0,0.0,0.0,0.0,0.0,0.0,0.0,0.0,0.0,0.0,0.0,0.0,0.0,0.0,0.0,0.0,0.0,0.0,0.0,0.0,0.0,0.0,0.0,0.0,0.0,0.0,0.0,0.0,0.0,0.0,0.0,0.0,0.0,0.0,0.0,0.0,0.0,0.0,0.0,0.0,0.0,0.0,0.0,0.0,0.0,0.0,0.0,0.0,0.0,0.0,0.0,0.0,0.0,0.0,0.0,0.0,0.0,0.0,0.0,0.0,0.0,0.0,0.0,0.0,0.0,0.0,0.0,0.0,0.0,0.0,0.0,0.0,0.0,0.0,0.0,0.0,0.0,0.0,0.0,0.0,0.0,0.0,0.0,0.0,0.0,0.0,0.0,0.0,0.0,0.0,0.0,0.0,0.0,0.0,0.0,2.9011,3.1114,3.0726,3.1336,3.0837,2.8486,2.5715,2.3424,2.1706,1.8516,0.0,0.0,0.0,0.0,0.0,0.0,0.0,0.0,0.0,0.0,0.0,0.0,0.0,0.0,0.0,0.0,0.0,0.0,0.0,0.0,0.0,0.0,0.0,0.0,0.0,0.0,0.0,0.0,0.0,0.0,0.0,0.0,0.0,0.0,0.0,0.0,0.0,0.0,0.0,0.0,0.0,0.0,0.0,0.0,0.0,0.0,0.0,0.0,0.0,0.0,0.0,0.0,0.0,0.0,0.0,0.0,0.0,0.0,0.0,0.0,0.0,0.0,0.0,0.0,0.0,0.0,0.0,0.0,0.0,0.0,0.0,0.0,0.0,0.0,0.0,0.0,0.0,0.0,0.0,0.0,0.0,0.0,0.0,0.0,0.0,0.0,0.0,0.0,0.0,0.0,0.0,0.0,0.0,0.0,0.0,0.0,0.0,0.0,0.0,0.0,0.0,0.0,2.8008,3.0026,3.0849,3.0834,3.0092,2.8604,2.6006,2.3653,2.1619,0.0,0.0,0.0,0.0,0.0,0.0,0.0,0.0,0.0,0.0,0.0,0.0,0.0,0.0,0.0,0.0,0.0,0.0,0.0,0.0,0.0,0.0,0.0,0.0,0.0,0.0,0.0,0.0,0.0,0.0,0.0,0.0,0.0,0.0,0.0,0.0,0.0,0.0,0.0,0.0,0.0,0.0,0.0,0.0,0.0,0.0,0.0,0.0,0.0,0.0,0.0,0.0,0.0,0.0,0.0,0.0,0.0,0.0,0.0,0.0,0.0,0.0,0.0,0.0,0.0,0.0,0.0,0.0,0.0,0.0,0.0,0.0,0.0,0.0,0.0,0.0,0.0,0.0,0.0,0.0,0.0,0.0,0.0,0.0,0.0,0.0,0.0,0.0,0.0,0.0,0.0,0.0,0.0,0.0,0.0,0.0,0.0,0.0,0.0,0.0,0.0,0.0,2.5151,2.7709,2.9681,3.1007,3.0481,2.9769,2.9121,2.5949,2.3409,2.2014,0.0,0.0,0.0,0.0,0.0,0.0,0.0,0.0,0.0,0.0,0.0,0.0,0.0,0.0,0.0,0.0,0.0,0.0,0.0,0.0,0.0,0.0,0.0,0.0,0.0,0.0,0.0,0.0,0.0,0.0,0.0,0.0,0.0,0.0,0.0,0.0,0.0,0.0,0.0,0.0,0.0,0.0,0.0,0.0,0.0,0.0,0.0,0.0,0.0,0.0,0.0,0.0,0.0,0.0,0.0,0.0,0.0,0.0,0.0,0.0,0.0,0.0,0.0,0.0,0.0,0.0,0.0,0.0,0.0,0.0,0.0,0.0,0.0,0.0,0.0,0.0,0.0,0.0,0.0,0.0,0.0,0.0,0.0,0.0,0.0,0.0,0.0,0.0,0.0,0.0,0.0,0.0,0.0,0.0,0.0,0.0,0.0,0.0,0.0,0.0,0.0,0.0,2.527,2.8457,3.0628,3.1061,3.0417,2.9951,2.9821,2.5158,2.2457,0.0,0.0,0.0,0.0,0.0,0.0,0.0,0.0,0.0,0.0,0.0,0.0,0.0,0.0,0.0,0.0,0.0,0.0,0.0,0.0,0.0,0.0,0.0,0.0,0.0,0.0,0.0,0.0,0.0,0.0,0.0,0.0,0.0,0.0,0.0,0.0,0.0,0.0,0.0,0.0,0.0,0.0,0.0,0.0,0.0,0.0,0.0,0.0,0.0,0.0,0.0,0.0,0.0,0.0,0.0,0.0,0.0,0.0,0.0,0.0,0.0,0.0,0.0,0.0,0.0,0.0,0.0,0.0,0.0,0.0,0.0,0.0,0.0,0.0,0.0,0.0,0.0,0.0,0.0,0.0,0.0,0.0,0.0,0.0,0.0,0.0,0.0,0.0,0.0,0.0,0.0,0.0,0.0,0.0,0.0,0.0,0.0,0.0,0.0,0.0,0.0,0.0,0.0,2.527,2.8098,3.0048,3.0473,2.9771,2.9099,2.8546,2.5458,2.3089,2.2127,0.0,0.0,0.0,0.0,0.0,0.0,0.0,0.0,0.0,0.0,0.0,0.0,0.0,0.0,0.0,0.0,0.0,0.0,0.0,0.0,0.0,0.0,0.0,0.0,0.0,0.0,0.0,0.0,0.0,0.0,0.0,0.0,0.0,0.0,0.0,0.0,0.0,0.0,0.0,0.0,0.0,0.0,0.0,0.0,0.0,0.0,0.0,0.0,0.0,0.0,0.0,0.0,0.0,0.0,0.0,0.0,0.0,0.0,0.0,0.0,0.0,0.0,0.0,0.0,0.0,0.0,0.0,0.0,0.0,0.0,0.0,0.0,0.0,0.0,0.0,0.0,0.0,0.0,0.0,0.0,0.0,0.0,0.0,0.0,0.0,0.0,0.0,0.0,0.0,0.0,0.0,0.0,0.0,0.0,0.0,0.0,0.0,0.0,0.0,0.0,0.0,0.0,2.527,2.7934,2.9892,3.0705,3.0011,2.9364,2.8923,2.6174,2.3904,2.2612,0.0,0.0,0.0,0.0,0.0,0.0,0.0,0.0,0.0,0.0,0.0,0.0,0.0,0.0,0.0,0.0,0.0,0.0,0.0,0.0,0.0,0.0,0.0,0.0,0.0,0.0,0.0,0.0,0.0,0.0,0.0,0.0,0.0,0.0,0.0,0.0,0.0,0.0,0.0,0.0,0.0,0.0,0.0,0.0,0.0,0.0,0.0,0.0,0.0,0.0,0.0,0.0,0.0,0.0,0.0,0.0,0.0,0.0,0.0,0.0,0.0,0.0,0.0,0.0,0.0,0.0,0.0,0.0,0.0,0.0,0.0,0.0,0.0,0.0,0.0,0.0,0.0,0.0,0.0,0.0,0.0,0.0,0.0,0.0,0.0,0.0,0.0,0.0,0.0,0.0,0.0,0.0,0.0,0.0,0.0,0.0,0.0,0.0,0.0,0.0,0.0,0.0,2.527,2.7934,3.0088,3.1332,3.0777,3.024,3.0182,2.7097,2.4761,2.3661,0.0,0.0,0.0,0.0,0.0,0.0,0.0,0.0,0.0,0.0,0.0,0.0,0.0,0.0,0.0,0.0,0.0,0.0,0.0,0.0,0.0,0.0,0.0,0.0,0.0,0.0,0.0,0.0,0.0,0.0,0.0,0.0,0.0,0.0,0.0,0.0,0.0,0.0,0.0,0.0,0.0,0.0,0.0,0.0,0.0,0.0,0.0,0.0,0.0,0.0,0.0,0.0,0.0,0.0,0.0,0.0,0.0,0.0,0.0,0.0,2.2373,2.1123,0.0,0.0,0.0,0.0,0.0,0.0,0.0,0.0,0.0,0.0,0.0,0.0,0.0,0.0,0.0,0.0,0.0,0.0,0.0,0.0,0.0,0.0,0.0,0.0,0.0,0.0,0.0,0.0,0.0,0.0,0.0,0.0,0.0,0.0,0.0,0.0,0.0,0.0,0.0,0.0,2.527,2.7934,3.0088,3.1332,3.0777,3.0067,2.9577,2.6864,2.4761,2.3661,1.9703,0.0,0.0,0.0,0.0,0.0,0.0,0.0,0.0,0.0,0.0,0.0,0.0,0.0,0.0,0.0,0.0,0.0,0.0,0.0,0.0,0.0,0.0,0.0,0.0,0.0,0.0,0.0,0.0,0.0,0.0,0.0,0.0,0.0,0.0,0.0,0.0,0.0,0.0,0.0,0.0,0.0,0.0,0.0,0.0,0.0,0.0,0.0,0.0,0.0,0.0,0.0,0.0,0.0,0.0,0.0,0.0,0.0,0.0,0.0,2.608,2.4667,0.0,0.0,0.0,0.0,0.0,0.0,0.0,0.0,0.0,0.0,0.0,0.0,0.0,0.0,0.0,0.0,0.0,0.0,0.0,0.0,0.0,0.0,0.0,0.0,0.0,0.0,0.0,0.0,0.0,0.0,0.0,0.0,0.0,0.0,0.0,0.0,0.0,0.0,0.0,0.0,2.5315,2.7934,3.0088,3.1332,3.1146,3.0572,2.9867,2.7579,2.5704,2.4434,2.0701,0.0,0.0,0.0,0.0,0.0,0.0,0.0,0.0,0.0,0.0,0.0,0.0,0.0,0.0,0.0,0.0,0.0,0.0,0.0,0.0,0.0,0.0,0.0,0.0,0.0,0.0,0.0,0.0,0.0,0.0,0.0,0.0,0.0,0.0,0.0,0.0,0.0,0.0,0.0,0.0,0.0,0.0,0.0,0.0,0.0,0.0,0.0,0.0,0.0,0.0,0.0,0.0,0.0,2.9604,3.0522,3.2449,3.1916,3.2045,3.254,3.0411,2.8998,2.8117,2.6778,0.0,0.0,0.0,0.0,0.0,0.0,0.0,0.0,0.0,0.0,0.0,0.0,0.0,0.0,0.0,0.0,0.0,0.0,0.0,0.0,0.0,0.0,2.8006,2.925,3.0326,2.9986,2.5962,0.0,0.0,0.0,0.0,0.0,0.0,0.0,0.0,0.0,0.0,0.0,2.5674,2.8173,3.0193,3.1347,3.1482,3.1161,3.0389,2.857,2.6865,2.5479,2.2137,1.9787,0.0,0.0,0.0,0.0,0.0,0.0,0.0,0.0,0.0,0.0,0.0,0.0,0.0,0.0,0.0,0.0,0.0,0.0,0.0,0.0,0.0,0.0,0.0,0.0,0.0,0.0,0.0,0.0,0.0,0.0,0.0,0.0,1.9739,2.056,0.0,0.0,0.0,0.0,0.0,0.0,0.0,0.0,0.0,0.0,0.0,0.0,0.0,2.909,3.0577,3.21,3.2963,3.3183,3.5238,3.6376,3.6707,3.7312,3.7643,3.7679,3.6652,0.0,2.9879,2.9659,0.0,0.0,0.0,0.0,0.0,0.0,0.0,0.0,0.0,0.0,0.0,0.0,0.0,0.0,0.0,0.0,0.0,0.0,0.0,0.0,0.0,0.0,3.2958,3.3496,3.2941,3.2175,3.1898,2.887,2.5713,2.3898,2.3007,2.1802,0.0,0.0,0.0,0.0,0.0,0.0,2.6976,2.9101,3.0672,3.1392,3.1482,3.1161,3.0389,2.8933,2.7515,2.6139,2.3506,2.1708,2.1156,1.9661,0.0,0.0,0.0,0.0,0.0,0.0,0.0,0.0,0.0,0.0,0.0,0.0,0.0,0.0,0.0,0.0,0.0,0.0,0.0,0.0,0.0,0.0,0.0,0.0,0.0,0.0,0.0,0.0,0.0,1.9392,2.1725,2.2521,2.303,2.2999,0.0,0.0,0.0,0.0,0.0,0.0,0.0,0.0,0.0,3.1961,3.2446,3.3358,3.4825,3.5973,3.678,3.7239,3.8322,3.9074,3.9533,3.99,4.0065,4.0047,3.968,3.8046,3.5459,3.3164,3.1329,2.9898,0.0,0.0,0.0,0.0,2.9051,2.8975,3.0462,3.0611,2.996,2.9069,0.0,0.0,0.0,0.0,0.0,0.0,0.0,2.9812,3.1419,3.3011,3.4436,3.5073,3.519,3.4921,3.4066,3.2423,3.0357,2.79,2.6947,2.5499,2.221,2.2282,0.0,0.0,0.0,2.6351,2.7955,2.952,3.0776,3.1407,3.1482,3.1351,3.1029,2.9259,2.7778,2.6893,2.4282,2.2526,2.1984,2.0733,1.951,0.0,0.0,0.0,0.0,0.0,0.0,0.0,0.0,0.0,0.0,0.0,0.0,0.0,0.0,0.0,0.0,0.0,0.0,0.0,0.0,0.0,0.0,0.0,0.0,0.0,0.0,0.0,0.0,2.1893,2.389,2.4345,2.5697,2.6034,0.0,0.0,0.0,0.0,0.0,0.0,3.1485,3.149,3.2788,3.5781,3.6347,3.7202,3.8395,3.9019,3.9717,4.0506,4.0506,4.0946,4.1717,4.1717,4.1717,4.1699,4.1515,4.1075,4.023,3.656,3.4578,3.377,3.2963,3.2651,3.2742,3.3568,3.333,3.2926,3.4963,3.4981,3.3945,3.2985,3.2356,3.1492,2.8688,0.0,0.0,0.0,0.0,3.1984,3.3935,3.4896,3.5507,3.6238,3.6822,3.6784,3.5292,3.4864,3.3964,3.1207,3.0381,2.9015,2.5448,2.5749,0.0,2.3784,2.6087,2.8304,2.9012,3.0073,3.0971,3.1422,3.1482,3.1482,3.1482,2.9583,2.8124,2.7561,2.5027,2.3314,2.2774,2.1837,2.1068,2.04,0.0,0.0,0.0,0.0,0.0,0.0,0.0,0.0,0.0,0.0,0.0,0.0,0.0,0.0,0.0,0.0,0.0,0.0,0.0,0.0,0.0,0.0,0.0,0.0,0.0,0.0,0.0,0.0,0.0,2.6206,2.9194,0.0,0.0,0.0,0.0,2.9931,3.1369,3.3296,3.559,3.5583,3.6911,4.001,3.9815,4.0097,4.0928,4.0965,4.1387,4.2176,4.2176,4.2598,4.3369,4.3369,4.3369,4.3332,4.2561,4.2213,4.1992,3.9478,3.7973,3.7165,3.6358,3.6046,3.6138,3.6945,3.6725,3.6174,3.7055,3.6303,3.5174,3.6688,3.6119,3.4623,3.3688,3.2702,0.0,0.0,3.3905,3.4776,3.6765,3.7331,3.743,3.7727,3.747,3.702,3.6446,3.5873,3.4895,3.2611,3.2171,3.151,2.9447,0.0,2.8976,2.8357,2.8964,2.9689,3.0348,3.1046,3.1437,3.1482,3.1482,3.1482,3.1482,2.9922,2.8761,2.8213,2.602,2.4494,2.3941,2.3431,2.2653,2.1549,2.0392,0.0,0.0,0.0,0.0,0.0,0.0,0.0,0.0,0.0,0.0,0.0,0.0,0.0,0.0,0.0,0.0,0.0,0.0,0.0,0.0,0.0,0.0,0.0,0.0,0.0,0.0,0.0,0.0,2.9541,3.1661,0.0,3.0636,3.2522,3.3972,3.4309,3.5936,3.7644,3.9316,3.9369,4.0151,4.1893,4.1809,4.205,4.2635,4.2635,4.2782,4.3057,4.3057,4.3222,4.3497,4.3497,4.3497,4.3461,4.3185,4.3057,4.3002,4.2139,4.1001,3.979,3.9515,3.9405,3.9423,3.9717,3.9643,3.9441,3.9717,3.9441,3.8854,3.8414,3.7514,3.645,3.5642,3.5831,3.6431,3.6842,3.7809,3.8899,3.963,3.9827,3.9768,3.9514,3.9044,3.8541,3.8024,3.7483,3.6857,3.6062,3.4709,3.3094,3.1225,3.15,3.1345,2.9532,3.0539,3.1404,3.1144,3.1317,3.1482,3.1482,3.1482,3.1482,3.1482,3.0464,2.9387,2.8395,2.6654,2.5182,2.4248,2.4026,2.3365,2.2141,2.2194,2.037,0.0,0.0,0.0,0.0,0.0,0.0,0.0,0.0,0.0,0.0,0.0,0.0,0.0,0.0,0.0,0.0,0.0,0.0,0.0,0.0,0.0,0.0,0.0,0.0,0.0,2.9454,3.1917,3.2573,3.447,3.5377,3.45,3.6239,3.7705,3.8358,3.9758,4.1097,4.2259,4.2199,4.2526,4.3371,4.3282,4.3317,4.3479,4.3497,4.3497,4.3497,4.3497,4.3497,4.3497,4.3497,4.3497,4.3497,4.3497,4.3497,4.3497,4.3497,4.2873,4.1919,4.1919,4.1919,4.1919,4.1919,4.1754,4.1479,4.1203,4.1111,4.0928,3.9863,3.9148,3.8615,3.8083,3.867,3.9515,3.9515,4.0286,4.1111,4.1111,4.1111,4.0909,4.0202,3.9768,3.9288,3.8597,3.8167,3.7905,3.7905,3.6688,3.5245,3.4002,3.4196,3.3818,3.1639,3.2212,3.2521,3.1637,3.1482,3.1482,3.1482,3.1482,3.1482,3.1482,3.0321,2.934,2.8728,2.6608,2.5084,2.4319,2.3712,2.2892,2.1865,2.2136,2.0827,1.7868,0.0,0.0,0.0,0.0,0.0,0.0,0.0,0.0,0.0,0.0,0.0,0.0,0.0,0.0,0.0,0.0,0.0,0.0,0.0,0.0,0.0,0.0,0.0,2.9031,3.2108,3.4606,3.5229,3.7744,3.9084,3.8238,4.0412,4.1857,4.1857,4.2681,4.3508,4.428,4.4,4.4064,4.4561,4.4204,4.3818,4.3479,4.3497,4.3497,4.3497,4.3497,4.3497,4.3497,4.3497,4.3497,4.3497,4.3497,4.3497,4.3497,4.3497,4.3497,4.3497,4.3497,4.3497,4.3497,4.3497,4.3002,4.2231,4.146,4.1185,4.1185,4.1167,4.1148,4.1148,4.113,4.113,4.1148,4.1148,4.1167,4.1185,4.1185,4.1185,4.0915,3.9839,3.9562,3.9294,3.8206,3.7973,3.7973,3.7973,3.7973,3.7956,3.7922,3.7297,3.6379,3.4949,3.4146,0.0,3.1769,3.1554,3.1554,3.1482,3.1482,3.1482,3.1482,2.95,2.8577,2.9216,2.6062,2.4195,2.4323,2.267,2.1493,2.0961,2.0314,2.0063,2.0255,0.0,0.0,0.0,0.0,0.0,0.0,0.0,0.0,0.0,0.0,0.0,0.0,0.0,0.0,0.0,0.0,0.0,0.0,0.0,0.0,0.0,3.1256,3.3724,3.367,3.6113,3.8416,3.9791,4.1187,4.195,4.172,4.2854,4.3517,4.3272,4.4268,4.4806,4.4516,4.4668,4.4559,4.4175,4.4076,4.3818,4.3479,4.3497,4.3497,4.3497,4.3497,4.3497,4.3497,4.3497,4.3497,4.3497,4.3497,4.3497,4.3497,4.3497,4.3497,4.3497,4.3497,4.3497,4.3497,4.3497,4.3351,4.313,4.291,4.2837,4.2745,4.2158,4.1974,4.1864,4.1295,4.1515,4.1974,4.1974,4.2396,4.2837,4.2837,4.2837,4.2681,4.1988,4.1479,4.0961,4.0222,3.9771,3.9478,3.9478,3.9478,3.914,3.8091,3.7736,3.7263,3.6352,3.6069,3.5227,3.3361,3.309,3.2695,3.1627,3.1482,3.1482,3.1482,3.0482,2.9572,2.8838,2.692,2.5626,2.5216,2.4695,2.4398,2.4268,2.2469,2.1498,0.0,0.0,0.0,0.0,0.0,0.0,0.0,0.0,0.0,0.0,0.0,0.0,0.0,0.0,0.0,0.0,0.0,0.0,0.0,0.0,0.0,0.0,3.4988,3.7469,3.8527,3.9642,4.0969,4.2643,4.3297,4.3739,4.4105,4.4566,4.4764,4.4576,4.5207,4.5438,4.5033,4.5182,4.4969,4.4261,4.4233,4.4004,4.3479,4.3497,4.3497,4.3497,4.3497,4.3497,4.3497,4.3497,4.3497,4.3497,4.3497,4.3497,4.3497,4.3497,4.3497,4.3497,0.0,0.0,0.0,0.0,4.3497,4.3497,4.3497,4.3497,4.3406,4.2947,4.28,4.2708,4.2249,4.2433,4.28,4.28,4.313,4.3497,4.3497,4.3497,4.3356,4.2826,4.2244,4.1621,4.1041,4.0497,4.007,4.007,4.007,0.0,3.8954,3.8565,3.8134,3.7399,3.6999,3.6157,3.4341,3.4141,3.3537,3.2062,3.1943,3.1839,3.1497,3.0597,0.0,0.0,0.0,2.5977,2.4832,2.4526,0.0,0.0,0.0,0.0,0.0,2.4019,0.0,0.0,2.2893,2.3083,0.0,0.0,0.0,0.0,0.0,0.0,0.0,0.0,0.0,0.0,0.0,0.0,0.0,0.0,0.0,0.0,3.8469,4.0546,4.2893,4.2643,4.2777,4.4259,4.4451,4.4739,4.5509,4.5586,4.5586,4.555,4.5586,4.5586,4.555,4.5586,0.0,0.0,0.0,4.4252,4.3563,4.3513,4.3497,4.3497,4.3497,4.3497,4.3497,4.3497,4.3497,4.3497,4.3497,4.3497,4.3497,4.3497,4.3497,4.3497,4.3497,4.3497,4.3497,4.3497,4.3497,4.3497,4.3497,0.0,0.0,4.3497,4.3497,4.3497,4.3497,4.3497,4.3497,4.3497,4.3497,4.3497,4.3497,4.3497,4.3356,4.2826,4.2244,4.1621,4.1041,4.0497,4.007,4.007,4.007,4.007,4.007,3.9546,3.8891,3.8349,3.7649,3.6636,3.5241,3.4971,3.4345,3.2809,3.2556,0.0,3.1541,3.0279,2.9576,2.9624,2.7788,2.6017,2.4389,2.3877,2.3892,2.4316,2.5005,2.6115,2.7679,2.8382,2.8742,2.8742,2.4843,2.4704,0.0,0.0,0.0,0.0,0.0,0.0,0.0,0.0,0.0,0.0,0.0,0.0,0.0,0.0,0.0,3.7507,4.0354,4.2758,4.3912,4.4528,4.4989,4.5297,4.5336,4.5413,4.5566,4.5586,4.5495,4.5222,4.5438,4.5495,4.5222,4.5438,4.5419,4.503,4.4732,4.4392,4.3912,4.3664,4.3497,4.3497,4.3497,0.0,4.3497,4.3497,4.3497,4.3497,4.3497,4.3497,4.3497,4.3497,4.3497,4.3497,4.3497,4.3497,4.3497,4.3497,4.3497,4.3497,4.3497,4.3497,4.3497,4.3497,4.3497,4.3497,4.3497,4.3497,0.0,4.3497,4.3497,4.3497,4.3497,4.3497,4.3356,4.2826,4.2244,4.1621,4.1041,4.0497,4.007,4.007,4.007,4.007,4.007,3.9969,3.9868,3.9699,3.9564,3.8974,3.7544,3.678,3.5656,3.3661,3.2894,3.2243,3.1541,3.0768,3.0112,2.9624,2.8725,2.801,2.7675,2.8062,2.8091,2.7675,2.83,2.8562,2.8412,2.9071,2.9654,3.0103,2.8791,2.8256,0.0,0.0,0.0,0.0,0.0,0.0,0.0,0.0,0.0,0.0,0.0,3.3353,3.4622,0.0,3.9161,4.0873,4.2585,4.3989,4.4816,4.5316,4.5586,4.5586,4.5586,4.5586,4.5586,4.5586,4.5531,4.5362,4.5513,4.5513,4.5362,4.5513,4.5438,4.5096,4.4943,4.4561,4.4016,4.3818,4.3679,4.3497,4.3497,4.3497,4.3497,4.3497,4.3497,4.3497,4.3497,4.3497,4.3497,4.3497,4.3497,4.3497,4.3497,4.3497,4.3497,4.3497,4.3497,4.3497,4.3497,4.3497,4.3497,4.3497,4.3497,4.3497,4.3497,4.3497,4.3497,4.3497,4.3497,4.3497,4.3497,4.3497,4.3444,4.3178,4.2675,4.208,4.149,4.0874,4.0417,4.0171,4.007,4.007,4.007,4.007,4.007,4.007,4.007,3.9716,3.857,3.7783,3.6635,3.4867,3.3924,3.3095,3.2108,3.1091,3.0372,3.0058,2.9445,2.9086,2.9086,2.94,2.943,2.9101,2.9729,2.9879,2.9549,3.0552,3.121,3.1509,3.1539,3.118,0.0,0.0,0.0,0.0,0.0,0.0,0.0,2.8871,3.1121,3.3026,3.518,3.7353,3.9411,4.0585,4.1912,4.397,4.4432,4.4797,4.549,4.5586,4.5586,4.5586,4.5586,4.5586,4.5586,4.5586,4.5586,4.5586,4.5586,4.5586,4.5586,4.5586,4.5476,4.5201,4.5118,4.483,4.4233,4.4058,4.3849,4.3597,4.3548,4.3497,4.3497,4.3497,4.3497,4.3497,4.3497,4.3497,4.3497,4.3497,4.3497,4.3497,4.3497,4.3497,4.3497,4.3497,4.3497,4.3497,4.3497,4.3497,4.3497,4.3497,4.3497,4.3497,4.3497,4.3497,4.3497,4.3497,4.3497,4.3497,4.3497,4.3497,4.3497,4.3497,4.3087,4.2577,4.208,4.149,4.092,4.0368,4.0254,4.0204,4.0121,4.007,4.007,4.007,4.007,3.985,3.9209,3.8469,3.7534,3.6185,3.5368,3.4394,3.302,3.1642,3.0896,3.0896,3.0313,2.9968,2.9968,3.0088,3.0148,3.0148,3.0761,3.1091,3.1091,3.2183,3.2706,3.2721,3.338,3.3335,2.5791,2.6678,2.7659,2.9063,2.961,3.1198,0.0,3.668,3.6546,3.9008,4.0354,4.1181,4.147,4.2816,4.397,4.4239,4.4951,4.549,4.5586,4.5586,4.5586,4.5586,4.5586,4.5586,4.5586,4.5586,4.5586,4.5586,4.5586,4.5586,4.5586,4.5586,4.5586,4.555,4.5262,4.5074,4.4988,4.4346,4.3986,4.3924,4.3646,4.3497,4.3497,4.3497,4.3497,4.3497,4.3497,4.3497,4.3497,4.3497,4.3497,4.3497,4.3497,4.3497,4.3497,4.3497,4.3497,4.3497,4.3497,4.3497,4.3497,4.3497,4.3497,4.3497,4.3497,4.3497,4.3497,4.3497,4.3497,4.3497,4.3497,4.3497,4.3497,4.3497,4.3087,4.2655,4.2616,4.2121,4.1534,4.092,4.0827,4.0655,4.0154,4.007,4.007,4.007,4.007,4.007,3.9952,3.9262,3.8482,3.7793,3.7028,3.5979,3.4585,3.3107,3.2287,3.2287,3.1674,3.1315,3.1315,3.1884,3.2183,3.2183,3.2826,3.3155,3.3155,3.3305,3.338,3.3395,3.4068,3.4008,2.9702,3.0525,3.1102,3.2314,3.3737,3.5488,3.7969,3.8719,3.9488,4.1585,4.2681,4.3412,4.3912,4.4586,4.5047,4.5047,4.5355,4.5586,4.5586,4.5586,4.5586,4.5586,4.5586,4.5586,4.5586,4.5586,4.5586,4.5586,4.5586,4.5586,4.5586,4.5586,4.5586,4.5586,4.5457,4.5302,4.5096,4.4787,4.4409,4.4016,4.3849,4.3693,4.3497,4.3497,4.3497,4.3497,4.3497,4.3497,4.3497,4.3497,4.3497,4.3497,4.3497,4.3497,4.3497,4.3497,4.3497,4.3497,4.3497,4.3497,4.3497,4.3497,4.3497,4.3497,4.3497,4.3497,4.3497,4.3497,4.3497,4.3497,4.3497,4.3497,4.3497,4.3497,4.3339,4.3087,4.2788,4.248,4.2162,4.1534,4.1446,4.1223,4.0655,4.0577,4.0449,4.0171,4.007,4.007,4.007,3.9385,3.8646,3.7984,3.7214,3.6381,3.5323,3.4368,3.3589,3.308,3.2826,3.2677,3.2677,3.2946,3.308,3.308,3.3365,3.3499,3.3499,3.3873,3.4068,3.4083,3.4756,3.4921,3.1808,3.3064,3.416,3.5026,3.7161,3.9161,3.9623,4.0681,4.197,4.347,4.4239,4.4855,4.547,4.5586,4.5586,4.5586,4.5586,4.5586,4.5586,4.5586,4.5586,4.5586,4.5586,4.5586,4.5586,4.5586,4.5586,4.5586,4.5586,4.5586,4.5586,4.5586,4.5586,4.5586,4.5586,4.5495,4.5243,4.5159,4.483,4.4299,4.4204,4.4046,4.3791,4.3679,4.3597,4.3497,4.3497,4.3497,4.3497,4.3497,4.3497,4.3497,4.3497,4.3497,4.3497,4.3497,4.3497,4.3497,4.3497,4.3497,4.3497,4.3497,4.3497,4.3497,4.3497,4.3497,4.3497,4.3497,4.3497,4.3497,4.3497,4.3497,4.3497,4.3497,4.3497,4.341,4.3014,4.2902,4.277,4.2162,4.2038,4.1793,4.1041,4.0903,4.0703,4.0154,4.007,4.007,4.007,3.961,3.9049,3.8486,3.7776,3.7118,3.6548,3.5776,3.4996,3.4422,3.4046,3.3834,3.3834,3.3787,3.3769,3.3769,3.3948,3.4053,3.4053,3.4532,3.4756,3.4771,3.5265,3.5504,3.0879,3.3468,3.6796,3.7661,3.9796,4.2104,4.3739,4.4143,4.4432,4.5336,4.5528,4.5566,4.5586,4.5586,4.5586,4.5586,4.5586,4.5586,4.5586,4.5586,4.5586,4.5586,4.5586,4.5586,4.5586,4.5586,4.5586,4.5586,4.5586,4.5586,4.5586,4.5586,4.5586,4.5586,4.5586,4.5605,4.5586,4.5263,4.5096,4.5074,4.4751,4.458,4.4553,4.4146,4.3804,4.3497,4.3497,4.3497,4.3497,4.3497,4.3497,4.3497,4.3497,4.3497,4.3497,4.3497,4.3497,4.3497,4.3497,4.3497,4.3497,4.3497,4.3497,4.3497,4.3497,4.3497,4.3497,4.3497,4.3497,4.3497,4.3497,4.3497,4.3497,4.3497,4.3497,4.3497,4.3479,4.3497,4.3339,4.2788,4.2655,4.2302,4.1087,4.0903,4.0703,4.0154,4.007,4.007,4.007,4.007,4.007,4.002,3.9299,3.8821,3.8821,3.7549,3.6742,3.6686,3.542,3.4632,3.4632,3.4516,3.4442,3.4442,3.51,3.5444,3.5444,3.5459,3.5474,3.5474,3.5489,3.5504,3.4988,3.7296,3.9565,4.1027,4.2431,4.3758,4.4893,4.5163,4.524,4.5528,4.5143,4.4739,4.4739,4.4739,4.4739,4.4739,4.522,4.5586,4.5586,4.5586,4.5586,4.5586,4.5586,4.5586,4.5586,4.5586,4.5586,4.5586,4.5586,4.5586,4.5586,4.5586,4.5586,4.5586,4.5586,4.5586,4.5586,4.5495,4.5322,4.5096,4.4757,4.458,4.4599,4.4474,4.4194,4.3818,4.3818,4.3693,4.3497,4.3497,4.3497,4.3497,4.3497,4.3497,4.3497,4.3497,4.3497,4.3497,4.3497,4.3497,4.3497,4.3497,4.3497,4.3497,4.3497,4.3497,4.3497,4.3497,4.3497,4.3497,4.3497,4.3497,4.3497,4.3497,4.3497,4.3497,4.3497,4.3497,4.3444,4.325,4.3214,4.2865,4.1707,4.149,4.1196,4.0254,4.007,4.007,4.007,4.007,4.007,4.007,3.985,3.9489,3.8978,3.8461,3.7984,3.7495,3.7017,3.6774,3.6774,3.6226,3.586,3.586,3.5597,3.5504,3.5504,3.5504,3.5504,3.5504,3.5504,3.5504,3.77,3.9681,4.1373,4.3104,4.4143,4.4913,4.547,4.5586,4.5509,4.5201,4.4451,4.3778,4.347,4.3143,4.3143,4.3778,4.4335,4.4913,4.5509,4.5586,4.5586,4.5586,4.5586,4.5586,4.5586,4.5586,4.5586,4.5586,4.5586,4.5586,4.5586,4.5586,4.5586,4.5586,4.5893,4.5913,4.5586,4.5913,4.5802,4.5282,4.5074,4.4877,4.4776,4.4776,4.4561,4.4204,4.4058,4.3881,4.3679,4.3548,4.3497,4.3497,4.3497,4.3497,4.3497,4.3497,4.3497,4.3497,4.3497,4.3497,4.3497,4.3497,4.3497,4.3497,4.3497,4.3497,4.3497,4.3497,4.3497,4.3497,4.3497,4.3497,4.3497,4.3497,4.3497,4.3497,4.3497,4.3497,4.3497,4.3497,4.3497,4.3196,4.2284,4.175,4.1223,4.0497,4.0204,4.007,4.007,4.007,4.007,4.007,4.007,3.9901,3.9368,3.9315,3.9156,3.8652,3.8374,3.8189,3.8189,3.744,3.7024,3.7024,3.6538,3.6321,3.6321,3.6006,3.5894,3.5894,3.5619,3.5504,3.9008,4.0719,4.2393,4.397,4.4989,4.5586,4.5586,4.5528,4.522,4.4355,4.3451,4.2566,4.1662,4.0931,4.1027,4.2643,4.3085,4.3778,4.5374,4.5586,4.5586,0.0,4.5624,4.5663,4.5663,4.5701,4.572,4.572,4.5682,4.5663,4.5663,4.5701,4.572,4.572,4.6528,4.6567,4.574,4.6509,4.6471,4.5586,4.5586,4.5438,4.5137,4.5137,4.4943,4.4606,4.4233,4.4046,4.4016,4.3679,4.3513,4.3513,4.3532,4.3497,4.3497,4.3497,4.3497,4.3497,4.3497,4.3497,4.3497,4.3497,4.3497,4.3497,4.3497,4.3497,4.3497,4.3497,4.3497,4.3497,4.3497,4.3497,4.3497,4.3497,4.3497,4.3497,4.3497,4.3497,4.3497,4.3497,4.3479,4.3286,4.2788,4.1707,4.0949,4.0949,4.0497,4.0171,4.0121,4.007,4.007,4.007,4.007,4.007,4.007,4.007,4.007,4.007,3.9368,3.8962,3.8962,3.8262,3.7863,3.7863,3.7822,3.7822,3.7822,3.6964,3.6615,3.6615,3.5831,3.5504,4.1489,4.3355,4.472,4.5163,4.5432,4.5586,4.5586,4.4624,4.3489,4.2624,4.0758,3.8854,3.7392,3.8969,4.045,4.0277,4.2912,4.5105,4.5528,4.5586,0.0,4.5586,0.0,4.6567,4.6567,4.7105,4.7451,4.7451,4.6913,4.6567,4.6567,4.7144,4.7451,4.7451,4.7682,4.7702,4.7451,4.7086,4.6471,4.5586,4.5586,4.5568,4.5457,4.5457,4.5302,4.4966,4.4853,4.4682,4.4419,4.4016,4.3881,4.3849,4.3597,4.3497,4.3497,4.3497,4.3497,4.3497,4.3497,4.3497,4.3497,4.3497,4.3497,4.3497,4.3497,4.3497,4.3497,4.3497,4.3497,4.3497,4.3497,4.3497,4.3497,4.3497,4.3497,4.3497,4.3497,4.3497,4.3497,4.3497,4.3178,4.2864,4.2732,4.208,4.1578,4.1578,4.1446,4.1076,4.0204,4.007,4.007,4.007,4.007,4.007,4.007,4.007,4.007,4.007,3.9901,3.9782,3.9782,3.9032,3.8635,3.8635,3.8092,3.7822,3.7822,3.6964,3.6615,3.6615,3.5831,3.5504,4.3143,4.4586,4.5586,4.5586,4.5586,4.5297,4.4182,4.3201,4.1854,3.9527,3.7911,3.6276,3.4218,3.6276,3.8392,3.8681,4.1662,4.4316,4.5432,4.5586,4.574,0.0,4.6605,0.0,4.7394,4.7836,4.8105,4.8105,4.7682,4.7432,4.7432,4.7855,4.8105,4.8105,4.8471,4.8663,4.8663,4.749,4.6644,4.6163,4.5778,4.5586,4.5586,4.5586,4.5495,4.5322,4.5161,4.4988,4.4781,4.4401,4.4261,4.4252,4.3868,4.3726,4.3693,4.3529,4.3497,4.3497,4.3497,4.3497,4.3497,4.3497,4.3497,4.3497,4.3497,4.3497,4.3497,4.3497,4.3497,4.3497,4.3497,4.3497,4.3497,4.3497,4.3497,4.3497,4.3497,4.3497,4.3497,4.3497,4.325,4.305,4.305,4.2598,4.2203,4.2203,4.1979,4.1446,4.0594,4.0449,4.0368,4.0121,4.007,4.007,4.007,4.007,4.007,4.007,4.007,4.007,4.007,3.9662,3.9437,3.9437,3.8995,3.8832,3.8832,3.8003,3.7584,3.7584,3.6874,3.6305,4.4239,4.5009,4.5586,4.5586,4.5509,4.4778,4.2354,4.145,3.9988,3.5988,3.4891,3.391,3.1468,3.3295,3.5718,3.7392,0.0,4.2701,4.524,4.5586,4.5913,4.6797,4.699,4.7375,4.8202,4.8375,4.8452,4.8452,4.8452,4.8394,4.8279,4.8375,4.8452,4.8452,4.9183,4.951,4.9394,4.7836,4.7009,4.6894,4.6009,4.5586,4.5586,4.5586,4.5586,4.5586,4.5302,4.518,4.514,4.4781,4.4676,4.4631,4.4233,4.4046,4.3955,4.366,4.3548,4.3497,4.3497,4.3497,4.3497,4.3497,4.3497,4.3497,4.3497,4.3497,4.3497,4.3497,4.3497,4.3497,4.3497,4.3497,4.3497,4.3497,4.3497,4.3497,4.3497,4.3497,4.3497,4.3497,4.3497,4.3497,4.3497,4.3087,4.2826,4.2826,4.2364,4.1793,4.1223,4.0995,4.0703,4.0171,4.007,4.007,4.007,4.007,4.007,4.007,4.007,4.007,4.007,4.007,4.007,4.007,4.007,4.007,4.007,3.9315,3.8908,3.8854,3.8133,3.7456,4.5143,4.547,4.5586,4.5586,4.5047,4.4047,4.222,3.9623,3.6776,3.3949,3.1679,2.964,2.7813,3.0698,3.393,3.5661,3.9238,4.2701,4.524,4.5586,4.5913,0.0,4.749,4.824,4.9086,4.9817,5.024,5.024,5.024,4.9933,4.9202,4.9856,5.024,5.024,5.0394,5.0125,4.9413,4.8394,4.7567,4.6894,4.6009,4.5586,4.5586,4.5586,4.5586,4.5586,4.555,4.5513,4.5495,4.514,4.5011,4.4966,4.4631,4.429,4.3986,4.3924,4.3758,4.3497,4.3497,4.3497,4.3497,4.3497,4.3497,4.3497,4.3497,4.3497,4.3497,4.3497,4.3497,4.3497,4.3497,4.3497,4.3497,4.3497,4.3497,4.3497,4.3497,4.3497,4.3497,4.3497,4.3497,4.3497,4.3497,4.341,4.3375,4.3375,4.3286,4.2995,4.2462,4.1534,4.0703,4.0171,4.007,4.007,4.007,4.007,4.007,4.007,4.007,4.007,4.007,4.007,4.007,4.007,4.007,4.007,4.007,3.9315,3.8908,3.8854,3.8133,3.7764,4.5355,4.5586,4.5586,4.5586,4.4624,4.2874,3.9835,3.7199,3.4295,3.0429,2.9006,2.7948,2.6236,2.9025,3.216,3.3872,3.6622,3.9873,4.3739,4.3912,4.4586,4.7221,4.7875,4.8625,4.9952,5.0452,5.0702,5.0702,5.0702,5.051,5.0087,5.0471,5.0702,5.0702,5.0702,5.0491,5.0067,4.8759,4.7913,4.7509,4.622,4.5586,4.5586,4.5586,4.5586,4.5586,4.5586,4.5586,4.5586,4.5419,4.5362,4.5322,4.4988,4.4757,4.4535,4.4146,4.3912,4.3726,4.3563,4.3497,4.3497,4.3497,4.3497,4.3497,4.3497,4.3497,4.3497,4.3497,4.3497,4.3497,4.3497,4.3497,4.3497,4.3497,4.3497,4.3497,4.3497,4.3497,4.3497,4.3497,4.3497,4.3497,4.3497,4.3497,4.3497,4.3497,4.3497,4.3304,4.2788,4.2203,4.1639,4.103,4.072,4.0546,4.0546,4.0237,4.007,4.007,4.007,4.007,4.007,4.007,4.007,4.007,4.007,4.007,4.007,3.9714,3.9542,3.9489,3.9172,3.8761,4.5143,4.5451,4.5586,4.5586,4.4201,4.1758,3.7642,3.5122,3.2314,2.7582,2.7005,2.6928,2.5553,2.7648,3.0256,3.2314,3.4257,3.7219,4.2124,4.2547,4.3778,4.7644,4.8105,4.8779,5.0529,5.0702,5.0702,5.0702,5.0702,5.0702,5.0702,5.0702,5.0702,5.0702,5.0702,5.0606,5.0414,4.8875,4.8009,4.7817,4.6317,4.5586,4.5586,4.5586,4.5586,4.5586,4.5586,4.5586,4.5586,4.5586,4.5586,4.5568,4.5322,4.5161,4.503,4.4455,4.4204,4.4106,4.3823,4.3744,4.3712,4.3631,4.3582,4.3497,4.3497,4.3497,4.3497,4.3497,4.3497,4.3497,4.3497,4.3497,4.3497,4.3497,4.3497,4.3497,4.3497,4.3497,4.3497,4.3497,4.3497,4.3497,4.3497,4.3497,4.3497,4.3497,4.3497,4.3339,4.2939,4.2864,4.2675,4.2226,4.1516,4.1087,4.1087,4.072,4.0466,4.0466,4.0466,4.0466,4.0466,4.0466,4.0417,4.0286,4.0286,4.0204,4.007,4.007,4.007,4.007,4.007,3.9782,4.4393,4.4989,4.5586,4.5586,4.3739,4.1008,3.7507,3.4237,3.0929,2.7332,2.6043,2.5495,2.5322,2.6197,2.8025,3.1275,3.3891,3.7007,4.1316,4.3162,4.5066,4.7778,4.8105,4.8779,5.0529,5.0702,5.0702,5.0702,5.0702,5.0702,5.0702,5.0702,5.0702,5.0702,5.0702,5.0317,4.9529,4.8586,4.774,4.7009,4.6047,4.5586,4.5586,4.5586,4.5586,4.5586,4.5586,4.5586,4.5586,4.5586,4.5586,4.5586,4.5568,4.5362,4.5096,4.5011,4.4806,4.4527,4.4501,4.4501,4.4447,4.4076,4.3758,4.3497,4.3497,4.3497,4.3497,4.3497,4.3497,4.3497,4.3497,4.3497,4.3497,4.3497,4.3497,4.3497,4.3497,4.3497,4.3497,4.3497,4.3497,4.3497,4.3497,4.3497,4.3497,4.3497,4.3497,4.3479,4.3444,4.341,4.341,4.3356,4.2346,4.1725,4.1725,4.1664,4.1621,4.1621,4.1621,4.1621,4.1621,4.1621,4.1402,4.0827,4.0827,4.0577,4.007,4.007,4.007,4.007,4.007,4.007,4.3874,4.4932,4.547,4.4951,4.2893,3.9988,3.6084,3.2987,2.9948,2.6524,2.5534,2.5303,2.5303,2.5572,2.6774,2.966,3.0583,3.259,3.7401,3.9031,4.1088,4.4839,4.6586,4.8201,4.999,5.0625,5.0952,5.0952,5.0952,5.0952,5.0952,5.0779,5.0702,5.0702,5.0183,4.974,4.9394,4.8067,4.7221,4.6894,4.6009,4.5586,4.5586,4.5586,4.5586,4.5586,4.5586,4.5586,4.5586,4.5586,4.5586,4.5586,4.5586,4.5513,4.5381,4.5161,4.503,4.4872,4.4657,4.458,4.458,4.4401,4.428,4.4065,4.3631,4.3497,4.3497,4.3497,4.3497,4.3497,4.3497,4.3497,4.3497,4.3497,4.3497,4.3497,4.3497,4.3497,4.3497,4.3497,4.3497,4.3497,4.3497,4.3497,4.3497,4.3497,4.3497,4.3497,4.3497,4.3497,4.3497,4.3497,4.279,4.2342,4.2342,4.2021,4.181,4.181,4.181,4.181,4.181,4.181,4.1664,4.1446,4.1446,4.1133,4.0577,4.0577,4.0417,4.007,4.007,4.007,4.2607,4.4028,4.4701,4.4105,4.1835,3.8777,3.5045,3.2025,2.9121,2.5937,2.5303,2.5303,2.5303,2.5303,2.6063,2.8371,2.8679,3.034,3.5235,3.6839,3.905,4.3227,4.551,4.7457,4.9244,5.0439,5.1093,5.1093,5.1093,5.1093,5.1093,5.0919,5.0812,5.0818,4.9913,4.9336,4.9144,4.7644,4.6797,4.6567,4.5913,4.5586,4.5586,4.5586,4.5586,4.5586,4.5586,4.5586,4.5586,4.5586,4.5586,4.5586,4.5586,4.5586,4.5568,4.5342,4.5243,4.5222,4.4966,4.4896,4.4896,4.4781,4.4751,4.4631,4.4004,4.3726,4.3646,4.3646,4.3563,4.3497,4.3497,4.3497,4.3497,4.3497,4.3497,4.3497,4.3497,4.3497,4.3497,4.3497,4.3497,4.3497,4.3497,4.3497,4.3497,4.3497,4.3497,4.3497,4.3497,4.3497,4.3497,4.3497,4.3178,4.2939,4.2939,4.2541,4.2306,4.2306,4.2306,4.2306,4.2306,4.2306,4.2226,4.208,4.208,4.175,4.1178,4.1178,4.0874,4.0336,4.0336,4.0237,4.0249,4.1915,4.3124,4.3104,4.0546,3.7353,3.4776,3.1564,2.839,2.5832,2.5303,2.5303,2.5303,2.5303,2.587,2.7621,2.9294,3.184,3.6103,3.8234,4.0639,4.4088,4.5331,4.659,4.8341,5.0092,5.1103,5.1103,5.1103,5.1103,5.1103,5.1103,5.1102,5.1106,5.0125,4.924,4.8509,4.7432,4.6528,4.5815,4.568,4.5586,4.5586,4.5586,4.5586,4.5586,4.5586,4.5586,4.5586,4.5586,4.5586,4.5586,4.5586,4.5586,4.5586,4.5605,4.5586,4.5586,4.5586,4.5586,4.5531,4.5201,4.5096,4.503,4.4682,4.429,4.3998,4.3998,4.3758,4.3497,4.3497,4.3497,4.3497,4.3497,4.3497,4.3497,4.3497,4.3497,4.3497,4.3497,4.3497,4.3497,4.3497,4.3497,4.3497,4.3497,4.3497,4.3497,4.3497,4.3497,4.3497,4.3497,4.3497,4.3479,4.3479,4.3497,4.3479,4.3479,4.3479,4.3479,4.3479,4.3479,4.325,4.2693,4.2711,4.2382,4.181,4.181,4.149,4.0903,4.0903,4.0625,3.608,3.76,3.8597,3.7436,3.6329,3.4722,3.1574,2.9998,2.8503,2.5956,2.5447,2.5447,2.5447,2.5447,2.6593,3.0075,3.1088,3.2736,3.6511,3.8987,4.0887,4.2101,4.5624,4.8616,5.0312,5.0975,5.1307,5.1307,5.1316,5.1074,5.05,5.0481,5.0401,5.0229,4.9324,4.8445,4.7625,4.6665,4.6098,4.5873,4.5834,4.5815,4.5815,4.5815,4.5776,4.5738,4.5738,4.568,4.5586,4.5586,4.5586,4.5586,4.5586,4.5586,4.5586,4.5586,4.5586,4.5586,4.5586,4.5586,4.5586,4.5476,4.5438,4.5419,4.5322,4.4877,4.4346,4.4058,4.3924,4.3804,4.3563,4.3497,4.3497,4.3497,4.3497,4.3497,4.3497,4.3497,4.3497,4.3497,4.3497,4.3497,4.3497,4.3497,4.3497,4.3497,4.3497,4.3497,4.3497,4.3497,4.3497,4.3497,4.3497,4.3497,4.3497,4.3497,4.3497,4.3497,4.3497,4.3497,4.3497,4.3497,4.341,4.325,4.325,4.2958,4.244,4.244,4.1895,4.0903,4.0903,4.0625,3.2992,3.4469,3.5226,3.4166,3.3429,3.2334,2.9867,2.8818,2.7807,2.5882,2.5503,2.5503,2.5503,2.5503,2.6591,2.9939,3.0746,3.2393,3.6542,3.8783,4.0648,4.2413,4.5765,4.8457,4.9824,5.0566,5.0801,5.0488,5.075,5.0589,4.9744,4.9705,4.9471,4.8983,4.8392,4.7856,4.7361,4.6387,4.593,4.5975,4.5912,4.5896,4.5896,4.5896,4.5877,4.5844,4.5806,4.5757,0.0,4.5605,4.5586,4.5586,4.5586,4.5586,4.5586,4.5586,4.5586,4.5586,4.5586,4.5586,4.5586,4.5586,4.5586,4.5586,4.5586,4.5222,4.4707,4.4318,4.4252,4.4194,4.3974,4.3899,4.3899,4.3899,4.3899,4.3868,4.3726,4.3693,4.3646,4.3513,4.3497,4.3497,4.3497,4.3497,4.3497,4.3497,4.3497,4.3497,4.3497,4.3497,4.3548,4.3679,4.3563,4.3548,4.3679,4.3563,4.3497,4.3497,4.3497,4.3497,4.3497,4.3497,4.3497,4.3497,4.3497,4.3339,4.3014,4.2788,4.2302,4.1578,4.1358,4.1059,0.0,3.2049,3.264,3.2582,3.1441,3.0125,2.9244,2.7893,0.0,2.5693,2.5503,2.5541,2.5682,2.5643,2.6266,2.8247,2.9303,3.1607,3.6596,3.8255,4.0505,4.4686,4.5898,4.6738,4.7617,4.916,4.9766,4.8965,4.9648,4.9726,4.8848,4.8808,4.8418,4.7539,4.7383,4.7383,4.7519,4.646,4.5986,4.6113,4.5986,4.5924,4.5924,4.5924,4.5924,4.5916,4.5852,4.5808,4.5796,4.568,4.5605,4.5586,4.5586,4.5586,4.5586,4.5586,4.5586,4.5586,4.5586,4.5586,4.5586,4.5586,4.5586,4.5586,4.5586,4.5381,4.5074,4.4751,4.465,4.4631,4.4624,4.458,4.458,4.4553,4.4553,4.4447,4.4046,4.3967,4.3912,4.3597,4.3548,4.3582,4.3548,4.3548,4.3548,4.3548,4.3548,4.3548,4.3563,4.3548,4.3679,4.4016,4.3758,4.3679,4.4016,4.3693,4.3513,4.3548,4.3548,4.3548,4.3582,4.3582,4.3582,4.3582,4.3582,4.3563,4.3548,4.305,4.277,4.2711,4.2121,4.1853,2.5977,0.0,2.8268,2.7604,2.7643,2.7624,0.0,2.6767,2.6711,2.5835,0.0,2.6069,2.7397,2.7104,2.8062,3.2438,3.3883,3.5797,3.9663,4.2097,4.4345,4.6719,4.7168,4.7637,4.8516,4.8965,4.9121,4.8926,4.9082,4.8828,4.7949,4.791,4.7519,4.6621,4.6562,4.6562,4.6601,4.6344,4.6226,4.625,4.6226,4.6202,4.6202,4.6202,4.6143,4.6044,4.6046,4.5939,4.5796,4.5776,4.5699,4.5586,4.5586,4.5586,4.5586,4.5586,4.5586,4.5586,4.5586,4.5586,4.5586,4.5586,4.5586,4.5586,4.5586,4.5531,4.5419,4.5074,4.4966,4.4919,4.4676,4.458,4.4527,4.4204,4.4146,4.4046,4.3693,4.3836,4.3986,4.3912,4.4136,4.4252,4.3943,4.3881,4.3881,4.3881,4.3881,4.3986,4.4308,4.4076,4.4016,4.4419,4.4106,4.4046,4.4419,4.3868,4.3631,4.3881,4.3881,4.4016,4.4337,4.4337,4.4337,4.4337,4.4337,4.4194,4.3881,4.3767,4.3351,4.2711,4.2559,4.2244,2.4297,2.5664,2.6894,2.6406,2.6641,2.6875,2.6406,2.6348,2.6269,0.0,0.0,2.6113,2.7461,2.7637,2.8906,3.2891,3.4922,3.748,4.1758,4.4219,4.5957,4.6894,4.6992,4.7187,4.7656,4.8066,4.8144,4.7734,4.8086,4.793,4.7051,4.6992,4.6797,4.6308,4.6308,4.6308,4.6308,4.6308,4.6308,4.6308,4.6308,4.6308,4.6308,4.6308,4.6269,4.6191,4.6133,4.6046,4.593,4.5843,4.5757,4.5699,4.5605,4.5586,4.5586,4.5586,4.5586,4.5586,4.5586,4.5586,4.5586,4.5586,4.5586,4.5586,4.5586,4.5586,4.5568,4.5381,4.5322,4.5302,4.5118,4.5055,4.4992,4.4787,4.4743,4.4644,4.4318,4.4373,4.4455,4.429,4.4447,4.4527,4.4318,4.428,4.428,4.428,4.428,4.4346,4.458,4.4419,4.4401,4.4781,4.4482,4.4428,4.48,4.4337,4.4095,4.4261,4.428,4.4373,4.458,4.458,4.458,4.458,4.458,4.4501,4.428,4.428,4.3949,4.33,4.33,4.3032,2.4297,2.5879,2.7129,2.6875,2.6894,2.6973,2.6836,0.0,0.0,0.0,0.0,0.0,2.7383,2.8301,0.0,3.2539,3.5234,3.8594,4.3242,4.5273,4.6308,4.6308,4.6308,4.6308,4.6308,4.6973,4.7109,4.6367,4.6973,4.707,4.6348,4.6308,4.6308,4.6308,4.6308,4.6308,4.6308,4.6308,4.6308,4.6308,4.6308,4.6308,4.6308,4.6308,4.6308,4.6289,4.6172,4.6113,4.6092,4.5908,4.5835,4.5796,4.5699,4.5643,4.5624,4.5624,4.5624,4.5624,4.5605,4.5586,4.5586,4.5586,4.5586,4.5586,4.5586,4.5586,4.5586,4.5586,4.5586,4.5586,4.5586,4.5586,4.5586,4.555,4.5513,4.5438,4.5096,4.5074,4.503,4.4732,4.4707,4.4751,4.4701,4.4676,4.4676,4.4676,4.4676,4.4682,4.4732,4.4707,4.4781,4.514,4.4872,4.4806,4.5159,4.4919,4.4757,4.4757,4.4707,4.4682,4.4757,4.4757,4.4757,4.4757,4.4757,4.4751,4.4676,4.4676,4.4455,4.4087,4.4087,4.3943,2.4883,2.6777,2.7754,2.6269,2.6445,2.6816,2.6074,0.0,0.0,0.0,0.0,0.0,0.0,3.1016,3.2676,3.5976,3.9277,4.2207,4.4473,4.5664,4.6308,4.6308,4.6308,4.6308,4.6308,4.6426,4.6445,4.6308,4.6426,4.6445,4.6308,4.6308,4.6308,4.6308,4.6308,4.6308,4.6308,4.6308,4.6308,4.6308,4.6308,4.6308,4.6308,4.6308,4.6308,4.6308,4.6289,4.6191,4.6094,4.6065,4.5985,4.5873,4.5853,4.5853,4.5853,4.5796,4.5776,4.5757,4.5624,4.5586,4.5586,4.5586,4.5586,4.5586,4.5586,4.5586,4.5586,4.5586,4.5586,4.5586,4.5586,4.5586,4.5513,4.5243,4.518,4.5096,4.4732,4.4896,4.5074,4.503,4.5243,4.5362,4.5074,4.5011,4.5011,4.5011,4.5011,4.5118,4.5419,4.5201,4.514,4.5495,4.5222,4.5161,4.5495,4.5476,4.5438,4.5438,4.518,4.514,4.5438,4.5438,4.5438,4.5438,4.5438,4.5322,4.5011,4.5011,4.4849,4.4501,4.4501,4.4474,2.3789,2.5254,2.6348,2.6953,2.8476,2.957,2.8711,2.8516,0.0,0.0,0.0,0.0,0.0,0.0,3.5684,4.0059,4.2461,4.4258,4.5527,4.6055,4.6308,4.6308,4.6308,4.6308,4.6308,4.6308,4.6308,4.6308,4.6308,4.6308,4.6308,4.6308,4.6308,4.6308,4.6308,4.6308,4.6308,4.6308,4.6308,4.6308,4.6308,4.6308,4.6308,4.6308,4.6308,4.6308,4.6308,4.6269,4.6191,4.6133,4.6055,4.5996,4.5938,4.5899,4.5893,4.5861,4.5834,4.5796,4.5738,4.5643,4.5586,4.5586,4.5586,4.5586,4.5586,4.5586,4.5586,4.5586,4.5586,4.5586,4.5586,4.5586,4.5568,4.5419,4.5362,4.5322,4.5161,4.5263,4.5362,4.5362,4.5495,4.555,4.54,4.5362,4.5362,4.5362,4.5362,4.5419,4.5586,4.5476,4.5419,4.5586,4.5457,4.5438,4.5586,4.5586,4.5586,4.5586,4.5476,4.5438,4.5586,4.5586,4.5586,4.5586,4.5586,4.5513,4.5362,4.5362,4.5201,4.4872,4.4872,4.4757,2.3203,2.4238,2.5332,2.7949,2.9805,3.1014,3.112,3.0833,0.0,0.0,0.0,0.0,0.0,3.6021,3.884,4.3027,4.457,4.5508,4.6191,4.6308,4.6308,4.6308,4.6308,4.6308,4.6308,4.6308,4.6308,4.6308,4.6308,4.6308,4.6308,4.6308,4.6308,4.6308,4.6308,4.6308,4.6308,4.6308,4.6308,4.6308,4.6308,4.6308,4.6308,4.6308,4.6308,4.6308,4.6308,4.6308,4.6289,4.6191,4.6156,4.6151,4.6034,4.5975,4.5955,4.596,4.5882,4.5812,4.583,4.5757,4.5643,4.5643,4.5624,4.5586,4.5586,4.5586,4.5586,4.5586,4.5586,4.5586,4.5586,4.5586,4.5586,4.5586,4.5586,4.5586,4.5586,4.5586,4.5586,4.5586,4.5586,4.5586,4.5586,4.5586,4.5586,4.5586,4.5586,4.5586,4.5586,4.5586,4.5586,4.5586,4.5586,4.5586,4.5586,4.5586,4.5586,4.5586,4.5586,4.5586,4.5586,4.5586,4.5586,4.5586,4.5586,4.5586,4.5586,4.5586,4.5476,4.5222,4.5222,4.5074,2.4629,2.5566,2.623,2.8848,2.8437,0.0,3.1225,3.0667,0.0,3.3518,0.0,0.0,0.0,3.9576,4.2247,4.3507,4.5019,4.6094,4.6269,4.6308,4.6308,4.6308,4.6308,4.6308,4.6308,4.6308,4.6308,4.6308,4.6308,4.6308,4.6308,4.6308,4.6308,4.6308,4.6308,4.6308,4.6308,4.6308,4.6308,4.6308,4.6308,4.6308,4.6308,4.6308,4.6308,4.6308,4.6308,4.6308,4.6308,4.6289,4.6289,4.6288,4.6268,4.619,4.6093,4.6091,4.6006,4.5901,4.5889,4.5853,4.5796,4.5796,4.5699,4.5586,4.5586,4.5586,4.5586,4.5586,4.5586,4.5586,4.5586,4.5586,4.5586,4.5586,4.5586,4.5586,4.5586,4.5586,4.5586,4.5586,4.5586,4.5586,4.5586,4.5586,4.5586,4.5586,4.5586,4.5586,4.5586,4.5586,4.5586,4.5586,4.5586,4.5586,4.5586,4.5586,4.5586,4.5586,4.5586,4.5586,4.5586,4.5586,4.5586,4.5586,4.5586,4.5586,4.5586,4.5586,4.5586,4.5568,4.5568,4.555,2.3441,2.4837,2.6262,2.8831,2.9359,0.0,0.0,3.3519,3.4863,3.7211,3.8067,0.0,0.0,0.0,4.3401,4.4296,4.5455,4.6215,4.6183,4.618,4.6144,4.6053,4.6045,4.6045,4.6045,4.6045,4.6045,4.6045,4.6045,4.6045,4.6045,4.6045,4.6081,4.6172,4.6172,4.6211,4.6308,4.6308,4.6308,4.6308,4.6308,4.6308,4.6308,4.6308,4.6308,4.6308,4.6308,4.6308,4.6308,4.6308,4.6308,4.6308,4.6308,4.6269,4.6211,4.6211,4.6148,4.6023,4.6014,4.5948,4.5861,4.5803,4.5776,4.5719,4.5624,4.5586,4.5586,4.5586,4.5586,4.5586,4.5586,4.5586,4.5586,4.5586,4.5586,4.5586,4.5586,4.5586,4.5605,4.5719,4.5719,4.5738,4.5776,4.5757,4.5719,4.5719,4.5643,4.5586,4.5586,4.568,4.5719,4.5719,4.5757,4.5796,4.5796,4.5796,4.5796,4.5796,4.5757,4.5699,4.5586,4.5719,4.5738,4.5586,4.5719,4.5738,4.5586,4.568,4.568,4.5586,4.5586,4.5586,2.2705,2.411,2.5765,2.8347,0.0,0.0,3.3499,3.5567,3.7721,4.0265,4.1193,4.1736,4.2338,0.0,4.3778,4.4697,4.5577,4.6118,4.604,4.6034,4.6008,4.591,4.5894,4.5894,4.5894,4.5894,4.5894,4.5894,4.5894,4.5894,4.5894,4.5894,4.594,4.602,4.6042,4.6075,4.6173,4.6173,4.6173,4.6173,4.6173,4.6223,4.6308,4.6308,4.6308,4.6308,4.6308,4.6308,4.6308,4.6308,4.6308,4.6308,4.6308,4.6308,4.6308,4.6308,4.623,4.6152,4.6152,4.6078,4.5956,4.5908,4.5868,4.5815,4.5719,4.5699,4.5699,4.5699,4.5699,4.5699,4.5699,4.5643,4.5586,4.5586,4.5624,4.5643,4.5643,4.568,4.5719,4.5815,4.5819,4.5853,4.5892,4.5853,4.5827,4.5832,4.5757,4.5699,4.5699,4.5776,4.5828,4.5819,4.5873,4.5892,4.5892,4.5892,4.5892,4.5892,4.5902,4.5828,4.5699,4.5825,4.5844,4.5699,4.5825,4.5825,4.5699,4.5786,4.5776,4.5643,4.5643,4.5624,2.2863,2.3659,2.4858,0.0,0.0,0.0,3.487,3.6251,3.8031,4.2242,4.3181,4.322,4.3214,4.3217,4.3539,4.455,4.5306,4.5809,4.5881,4.5891,4.5911,4.5911,4.5911,4.5911,4.5911,4.5911,4.5911,4.5911,4.5911,4.5911,4.5911,4.5911,4.5911,4.5911,4.5891,4.5899,4.5899,4.5899,4.5899,4.5899,4.5899,4.6039,4.6308,4.6308,4.6308,4.6308,4.6308,4.6308,4.6308,4.6308,4.6308,4.6308,4.6308,4.6308,4.6308,4.6308,4.6308,4.6308,4.6308,4.6211,4.6094,4.6094,4.601,4.5909,4.5892,4.5892,4.5892,4.5892,4.5892,4.5892,4.5892,4.5757,4.5603,4.5586,4.5699,4.5796,4.5796,4.5853,4.5892,4.5892,4.5899,4.5899,4.5899,4.5907,4.5899,4.5902,4.5892,4.5892,4.5892,4.5911,4.5901,4.59,4.5907,4.5907,4.5907,4.5907,4.5899,4.5899,4.6032,4.6047,4.5909,4.5902,4.5907,4.5899,4.5902,4.5887,4.5899,4.5907,4.5853,4.5796,4.5796,4.5738,2.2908,2.483,0.0,2.9243,0.0,0.0,0.0,3.8869,0.0,0.0,4.4468,4.4102,4.3987,4.4045,4.4212,4.451,4.5306,4.5851,4.5838,4.5841,4.5796,4.5699,4.5699,4.5699,4.5699,4.5699,4.5699,4.5699,4.5699,4.5699,4.5699,4.5699,4.5738,4.5834,4.5816,4.5838,4.5896,4.5896,4.5896,4.5896,4.5896,4.5998,4.6152,4.6152,4.6211,4.6308,4.6308,4.6308,4.6308,4.6308,4.6308,4.6308,4.6308,4.6308,4.6308,4.6308,4.6308,4.6308,4.6308,4.6269,4.623,4.6133,4.6061,4.6014,4.592,4.5894,4.5894,4.5894,4.5894,4.5894,4.5894,4.5856,4.5808,4.5806,4.5834,4.588,4.5866,4.5894,4.5932,4.6018,4.6031,4.606,4.6175,4.6097,4.6045,4.6046,4.5953,4.5938,4.6022,4.6046,4.6079,4.616,4.6175,4.6175,4.6175,4.6175,4.6186,4.6188,4.6225,4.6143,4.5909,4.6079,4.6079,4.5899,4.6099,4.6099,4.5899,4.5982,4.5974,4.5875,4.587,4.5853,2.3716,2.5849,0.0,3.0802,3.3468,3.643,4.0008,0.0,0.0,0.0,4.4968,4.4506,4.4759,4.4603,4.4526,4.4872,4.5411,4.5776,4.5738,4.5719,4.5699,4.5605,4.5586,4.5586,4.5586,4.5586,4.5586,4.5586,4.5586,4.5586,4.5586,4.5586,4.5624,4.5719,4.5719,4.5738,4.5776,4.5776,4.5776,4.5776,4.5776,4.5852,4.5988,4.6006,4.6066,4.6144,4.6144,4.6177,4.6222,4.6167,4.6161,4.6211,4.6211,4.625,4.6308,4.6308,4.6308,4.6308,4.6308,4.6308,4.6289,4.6211,4.6172,4.6151,4.6074,4.6069,4.6069,4.6069,4.6059,4.6054,4.6054,4.6054,4.6037,4.5932,4.5931,4.5979,4.5984,4.6024,4.6079,4.6163,4.6171,4.6208,4.6285,4.623,4.6189,4.6177,4.6108,4.6092,4.6173,4.6171,4.6212,4.6288,4.6308,4.6308,4.6308,4.6308,4.6303,4.6309,4.6297,4.6221,4.6064,4.6202,4.6223,4.605,4.6223,4.6223,4.605,4.6145,4.6106,4.5991,4.5977,4.5949,2.4859,2.6619,2.8813,3.2179,3.4564,0.0,4.1931,4.3605,4.4451,4.5413,0.0,4.4662,4.5451,4.4951,4.4682,4.547,4.5586,4.5586,4.5586,4.5586,4.5586,4.5586,4.5586,4.5586,4.5586,4.5586,4.5586,4.5586,4.5586,4.5586,4.5586,4.5586,4.5586,4.5586,4.5586,4.5586,4.5586,4.5586,4.5586,4.5586,4.5586,4.5643,4.5794,4.5871,4.5891,4.591,4.589,4.5976,4.6061,4.596,4.5962,4.6088,4.6071,4.6152,4.6289,4.6289,4.6289,4.6308,4.6308,4.6308,4.6308,4.6308,4.6308,4.6308,4.6308,4.6308,4.6308,4.6308,4.6296,4.6302,4.6302,4.6302,4.6244,4.599,4.6026,4.6124,4.6124,4.622,4.6308,4.6308,4.6308,4.6308,4.6305,4.6284,4.6285,4.6268,4.6269,4.6289,4.6268,4.6265,4.6286,4.6289,4.6269,4.6268,4.6308,4.6289,4.6289,4.6308,4.6308,4.6308,4.6308,4.6308,4.6308,4.6308,4.6308,4.6308,4.6308,4.6308,4.623,4.6113,4.6113,4.6056,2.4293,2.6563,0.0,0.0,3.7219,4.0739,4.1835,4.2739,4.3778,4.5278,4.5451,4.5374,4.5566,4.5451,4.5374,4.5566,4.5586,4.5586,4.5586,4.5586,4.5586,4.5586,4.5586,4.5586,4.5586,4.5586,4.5586,4.5586,4.5586,4.5586,4.5586,4.5586,4.5586,4.5586,4.5586,4.5586,4.5586,4.5586,4.5586,4.5586,4.5586,4.5605,4.5661,4.5764,4.5851,4.5885,4.5908,4.5917,4.593,4.5915,4.5931,4.5951,4.5946,4.6019,4.6133,4.6133,4.6211,4.6308,4.6308,4.6308,4.6308,4.6308,4.6308,4.6308,4.6308,4.6308,4.6308,4.6308,4.6307,4.63,4.63,4.63,4.628,4.6221,4.6231,4.6257,4.6257,4.6282,4.6308,4.6308,4.6308,4.6309,4.6305,4.6215,4.6111,4.6006,4.6075,4.6106,4.6001,4.6083,4.6134,4.6131,4.6054,4.6075,4.6289,4.6191,4.6191,4.6289,4.6308,4.6308,4.6308,4.6308,4.6308,4.6308,4.6308,4.6308,4.6308,4.6308,4.6289,4.6269,4.6269,4.6249,2.4966,0.0,0.0,3.4949,0.0,4.0816,4.1623,4.2162,4.2835,4.4143,4.4701,4.5105,4.5509,4.5586,4.5586,4.5586,4.5586,4.5586,4.5586,4.5586,4.5586,4.5586,4.5586,4.5586,4.5586,4.5586,4.5586,4.5586,4.5586,4.5586,4.5586,4.5586,4.5586,4.5586,4.5586,4.5586,4.5586,4.5586,4.5586,4.5586,4.5586,4.5586,4.5586,4.568,4.5757,4.5851,4.5786,4.5776,4.5853,4.5776,4.5796,4.5851,4.5858,4.5917,4.6018,4.6085,4.6133,4.6211,4.6289,4.6308,4.6308,4.6308,4.6308,4.6308,4.6308,4.6308,4.6308,4.6308,4.6308,4.6308,4.6308,4.6308,4.6308,4.6308,4.6308,4.6284,4.6215,4.6208,4.6201,4.6123,4.6113,4.6105,4.6111,4.6044,4.5995,4.5899,4.5968,4.5994,4.5899,4.5949,4.5997,4.6007,4.5946,4.5966,4.6091,4.6039,4.6035,4.6093,4.6113,4.6113,4.6113,4.6113,4.6173,4.6308,4.6308,4.6308,4.6308,4.6308,4.6308,4.6308,4.6308,4.6308,2.5293,0.0,3.1737,3.6411,3.843,0.0,4.1046,4.1489,4.1816,4.2701,4.3528,4.4355,4.522,4.5374,4.5413,4.5566,4.5586,4.5586,4.5586,4.5586,4.5586,4.5586,4.5586,4.5586,4.5586,4.5586,4.5586,4.5586,4.5586,4.5586,4.5586,4.5586,4.5586,4.5586,4.5586,4.5586,4.5586,4.5586,4.5586,4.5586,4.5586,4.5586,4.5586,4.5586,4.5643,4.5757,4.5643,4.5643,4.5757,4.5643,4.568,4.5776,4.5776,4.5815,4.5899,4.6014,4.6061,4.6088,4.6186,4.6248,4.6269,4.6269,4.6289,4.6308,4.6276,4.6267,4.6251,4.6243,4.6225,4.6225,4.6225,4.6225,4.6225,4.6225,4.6225,4.6206,4.6128,4.6084,4.6031,4.5925,4.589,4.589,4.5871,4.5882,4.5873,4.5853,4.5873,4.587,4.5839,4.5868,4.5873,4.5873,4.5854,4.5847,4.5907,4.5887,4.589,4.589,4.589,4.589,4.589,4.589,4.601,4.6228,4.6221,4.6225,4.6225,4.6225,4.6225,4.6225,4.6225,4.6225,2.2812,0.0,3.2218,0.0,3.7584,3.9354,0.0,0.0,4.0912,4.1797,4.2662,4.3508,4.4316,4.447,4.472,4.547,4.5586,4.5586,4.5586,4.5586,4.5586,4.5586,4.5586,4.5586,4.5586,4.5586,4.5586,4.5586,4.5586,4.5586,4.5586,4.5586,4.5586,4.5586,4.5586,4.5586,4.5586,4.5586,4.5586,4.5586,4.5586,4.5586,4.5586,4.5586,4.5605,4.5624,4.5605,4.5605,4.5624,4.5605,4.5605,4.5624,4.5624,4.5699,4.5832,4.5831,4.5891,4.592,4.594,4.6035,4.6133,4.6133,4.6211,4.628,4.615,4.6128,4.609,4.5987,4.594,4.594,4.594,4.594,4.594,4.594,4.594,4.5969,4.6086,4.6007,4.5928,4.5902,4.5899,4.588,4.5822,4.5811,4.5776,4.5643,4.5738,4.5774,4.5651,4.5753,4.5815,4.5815,4.5712,4.5712,4.5892,4.5847,4.5841,4.5899,4.5899,4.5899,4.5899,4.5899,4.5931,4.5939,4.5959,4.594,4.594,4.594,4.594,4.594,4.594,4.594,2.4678,2.789,3.1083,0.0,3.6353,3.7546,3.8969,3.9565,4.0046,4.0893,4.1373,4.2047,4.3374,4.3624,4.3739,4.4143,4.4201,4.4201,4.4201,4.4201,4.4201,4.4201,4.4201,4.4374,4.4816,4.4874,4.4874,4.4874,4.4874,4.4874,4.4874,4.4432,4.4412,4.4855,4.4432,4.4412,4.4874,4.4874,4.5124,4.5586,4.5586,4.5586,4.5586,4.5586,4.5586,4.5586,4.5586,4.5586,4.5586,4.5586,4.5586,4.5586,4.5586,4.5624,4.5699,4.5776,4.5816,4.5847,4.5886,4.5949,4.5998,4.5994,4.6041,4.6053,4.6014,4.5989,4.5965,4.5921,4.5905,4.5905,4.5905,4.5905,4.5905,4.5905,4.5866,4.5863,4.5907,4.5892,4.5815,4.5757,4.5738,4.5719,4.5699,4.5699,4.568,4.5605,4.5643,4.568,4.5605,4.5643,4.5699,4.5699,4.5624,4.5624,4.5719,4.5699,4.5699,4.5738,4.5738,4.5738,4.5738,4.5738,4.5738,4.5738,4.5838,4.5905,4.5905,4.5905,4.5905,4.5905,4.5905,4.5905,0.0,0.0,2.9063,3.291,3.4526,3.5738,0.0,3.8661,3.92,4.0027,4.02,4.0642,4.2162,4.2624,4.2835,4.3066,4.3104,4.3104,4.3104,4.3104,4.3104,4.3104,4.3104,4.3335,4.3932,4.3989,4.3989,4.3989,4.3989,4.3989,4.3989,4.3431,4.3374,4.397,4.3412,4.3393,4.3989,4.3989,4.4316,4.4951,4.4951,4.4951,4.4951,4.4951,4.4951,4.4989,4.5413,4.5586,4.5586,4.5586,4.5586,4.5586,4.5586,4.5586,4.5586,4.5468,4.5565,4.5719,4.5565,4.5661,4.5866,4.5866,4.5897,4.5897,4.5878,4.5858,4.5873,4.5834,4.5815,4.5815,4.5815,4.5815,4.5797,4.5706,4.5723,4.5757,4.5757,4.5757,4.5719,4.5605,4.5586,4.5586,4.5586,4.5586,4.5586,4.5586,4.5586,4.5586,4.5586,4.5586,4.5586,4.5586,4.5586,4.5586,4.5586,4.5586,4.5586,4.5586,4.5586,4.5586,4.5586,4.5586,4.5586,4.5586,4.5757,4.5815,4.5815,4.5815,4.5815,4.5815,4.5815,4.5815,0.0,2.3639,0.0,2.8775,3.1872,3.4526,3.5488,3.693,3.8315,3.9181,3.9354,3.9623,4.0469,4.1316,4.2143,4.297,4.3104,4.3104,4.3104,4.3104,4.3104,4.3104,4.3104,4.3124,4.3162,4.3162,4.3162,4.3162,4.3162,4.3162,4.3162,4.3124,4.3124,4.3162,4.3124,4.3124,4.3162,4.3162,4.3181,4.3239,4.3239,4.3239,4.3239,4.3239,4.3239,4.3316,4.4913,4.5586,4.5586,4.5586,4.5586,4.5586,4.5586,4.5586,4.549,4.4682,4.4893,4.549,4.4662,4.5009,4.5815,4.5813,4.5849,4.5888,4.583,4.5813,4.5776,4.5643,4.5605,4.5605,4.5605,4.5605,4.5532,4.522,4.5381,4.5605,4.5605,4.5605,4.5605,4.5586,4.5586,4.5586,4.5586,4.5586,4.5586,4.5586,4.5586,4.5586,4.5586,4.5586,4.5586,4.5586,4.5586,4.5586,4.5586,4.5586,4.5586,4.5586,4.5586,4.5586,4.5586,4.5586,4.5586,4.5586,4.5605,4.5605,4.5605,4.5605,4.5605,4.5605,4.5605,4.5605,2.0889,0.0,0.0,2.7544,2.964,3.1429,3.3391,3.5161,3.6642,3.7469,3.8084,3.8546,3.8834,4.0027,4.1066,4.1373,4.1431,4.1431,4.1431,4.1431,4.1431,4.1431,4.1431,4.1643,4.222,4.2277,4.2277,4.2277,4.2277,4.2277,4.2277,4.1739,4.1681,4.2258,4.172,4.17,4.2258,4.2816,4.3104,4.3104,4.3104,4.3104,4.3104,4.3104,4.3104,4.3124,4.372,4.3989,4.3989,4.3989,4.3989,4.3989,4.3989,4.3989,4.3951,4.3643,4.372,4.3951,4.3643,4.3758,4.4066,4.4066,4.4066,4.4085,4.4066,4.4432,4.4816,4.4778,4.5163,4.555,4.5342,4.5282,4.5182,4.4872,4.4872,4.4966,4.4966,4.5302,4.5586,4.5586,4.5419,4.5282,4.5282,4.5096,4.4966,4.4966,4.514,4.5282,4.5282,4.5476,4.5586,4.5586,4.5586,4.5586,4.5586,4.5586,4.5586,4.5586,4.5586,4.5586,4.5586,4.5586,4.5586,4.5586,4.5586,4.5586,4.5586,4.5586,4.5586,4.5586,4.5586,4.5586,1.9446,0.0,0.0,0.0,2.7448,2.8929,3.1487,3.3179,3.4545,3.5641,3.6546,3.7334,3.7892,3.8911,3.9758,4.0046,4.0085,4.0181,4.045,4.0489,4.0489,4.0489,4.0489,4.0719,4.1316,4.1354,4.1354,4.1354,4.1354,4.1354,4.1354,4.0816,4.0758,4.1354,4.0796,4.0777,4.1354,4.1931,4.222,4.222,4.222,4.222,4.222,4.222,4.222,4.222,4.222,4.2566,4.3104,4.3104,4.3104,4.3104,4.3104,4.3104,4.3066,4.2777,4.2854,4.3066,4.2777,4.2854,4.3104,4.3104,4.3015,4.2925,4.2925,4.3234,4.3618,4.3886,4.4383,4.484,4.4912,4.483,4.4707,4.4606,4.4501,4.4447,4.4553,4.4943,4.5263,4.5263,4.5096,4.4919,4.4919,4.4751,4.458,4.458,4.48,4.4919,4.4919,4.5118,4.5263,4.5263,4.5362,4.5438,4.5438,4.555,4.555,4.5438,4.555,4.5495,4.5263,4.5362,4.5381,4.5263,4.5263,4.5263,4.5263,4.5495,4.5531,4.5438,4.555,4.555,0.0,0.0,0.0,0.0,2.5274,2.7159,2.9667,3.0948,3.2064,3.3737,3.4776,3.5892,3.7546,3.7873,3.8161,3.9046,3.9219,3.9527,4.0315,4.0431,4.0431,4.0431,4.0431,4.0431,4.045,4.045,4.0469,4.0489,4.0489,4.0489,4.0489,4.0489,4.0489,4.0489,4.0489,4.0489,4.0489,4.0489,4.0489,4.0489,4.0489,4.0489,4.0489,4.0489,4.0489,4.0489,4.0489,4.145,4.3028,4.3028,4.3028,4.3028,4.3028,4.3028,4.2912,4.2066,4.2297,4.2893,4.205,4.2299,4.3011,4.2992,4.2794,4.2504,4.2504,4.2294,4.2233,4.3001,4.3265,4.3511,4.4353,4.4308,4.4087,4.4474,4.4261,4.4087,4.4474,4.4572,4.458,4.4599,4.458,4.458,4.458,4.458,4.4572,4.4572,4.458,4.458,4.458,4.458,4.458,4.458,4.4896,4.5074,4.5074,4.5381,4.5438,4.5096,4.54,4.5283,4.465,4.4919,4.4919,4.4624,4.458,4.458,4.4606,4.5263,4.54,4.5096,4.5419,4.54,1.7773,0.0,0.0,0.0,0.0,0.0,2.6264,2.7871,2.9429,3.1121,3.2141,3.3064,3.4122,3.4834,3.5545,3.6411,3.7565,3.843,3.8661,3.8681,3.8681,3.8681,3.8681,3.8931,3.9565,3.9623,3.9873,4.045,4.0489,4.0489,4.0489,4.0489,4.0489,4.0489,4.0489,4.0489,4.0489,4.0489,4.0489,4.0489,4.0489,4.0489,4.0489,4.0489,4.0489,4.0489,4.0489,4.0758,4.1219,4.1219,4.1219,4.1219,4.1219,4.1219,4.1181,4.095,4.1008,4.1165,4.0727,4.073,4.0883,4.0648,4.0501,4.0416,4.0416,4.0806,4.1288,4.1515,4.2397,4.3415,4.4008,4.3912,4.3679,4.3758,4.3744,4.3679,4.3791,4.3791,4.3962,4.4501,4.4364,4.4165,4.4165,4.3974,4.3791,4.3791,4.4004,4.4165,4.4165,4.4419,4.458,4.458,4.4682,4.4751,4.4751,4.4806,4.4849,4.4732,4.4825,4.4781,4.4624,4.4682,4.4682,4.4606,4.458,4.458,4.458,4.4781,4.4849,4.4751,4.483,4.4849,0.0,0.0,0.0,0.0,0.0,0.0,2.539,2.6351,2.7294,2.9006,3.0025,3.0871,3.1698,3.2564,3.3314,3.3833,3.5315,3.6796,3.7853,3.8007,3.8007,3.8007,3.8007,3.82,3.87,3.8757,3.89,3.9262,3.9301,3.9385,3.9622,3.9623,3.9775,4.0119,4.0119,4.0119,4.0119,4.0119,4.0119,4.0138,4.0267,4.0267,4.0138,4.0267,4.0267,4.0119,4.0119,4.0119,4.0119,4.0119,4.0212,4.0321,4.0175,4.0119,4.0119,4.0119,4.0119,4.0082,3.9943,3.9901,3.9859,3.9668,3.9505,3.9389,3.9389,3.9664,4.0045,4.0381,4.139,4.2454,4.2736,4.265,4.2527,4.2594,4.2631,4.265,4.2775,4.2995,4.3355,4.3986,4.3943,4.3804,4.3804,4.3612,4.3497,4.3497,4.3679,4.3804,4.3804,4.4004,4.4154,4.4154,4.428,4.4346,4.4346,4.4501,4.4527,4.4346,4.4501,4.4447,4.4136,4.428,4.428,4.4154,4.4154,4.4154,4.4154,4.4447,4.458,4.458,4.428,4.4223,0.0,0.0,0.0,0.0,2.3456,0.0,2.5678,2.5659,2.5591,2.7129,2.8014,2.8791,2.9759,3.0631,3.1239,3.1341,3.2775,3.473,3.7238,3.7661,3.7719,3.7719,3.7719,3.7757,3.7853,3.7839,3.7747,3.76,3.7564,3.7756,3.8247,3.8357,3.8735,3.9429,3.9542,3.9599,3.9599,3.9599,3.9599,3.9599,3.9901,3.9901,3.9599,3.9901,3.988,3.9599,3.9599,3.9599,3.9599,3.9552,3.9754,4.0022,3.9731,3.9599,3.9599,3.9599,3.9599,3.9599,3.9552,3.9534,3.9552,3.9505,3.9308,3.9063,3.9063,3.8836,3.8761,3.9516,4.0266,4.08,4.0891,4.0909,4.099,4.125,4.1299,4.1399,4.1718,4.2203,4.2732,4.3196,4.3375,4.341,4.3321,4.3321,4.3321,4.341,4.341,4.341,4.341,4.341,4.341,4.341,4.3675,4.3875,4.3924,4.428,4.4337,4.3955,4.428,4.4165,4.3513,4.3772,4.3804,4.3532,4.3497,4.3497,4.3479,4.4154,4.4474,4.4447,4.3791,4.3679,0.0,0.0,2.3725,2.3186,2.3456,0.0,2.3581,2.3947,2.439,2.4566,2.4717,2.5275,2.6686,2.7623,2.8403,2.9091,3.0576,3.24,3.4634,3.5545,3.5988,3.5988,3.5988,3.6238,3.6892,3.676,3.691,3.7562,3.7394,3.731,3.7438,3.8058,3.8471,3.8641,3.926,3.9599,3.9599,3.9599,3.9599,3.9599,3.9668,3.9668,3.9599,3.9668,3.9668,3.9599,3.9599,3.9599,3.9576,3.9314,3.9408,3.969,3.9622,3.9599,3.9599,3.9599,3.9599,3.9576,3.9289,3.9205,3.9152,3.8942,3.8833,3.8792,3.8792,3.8428,3.816,3.8581,3.881,3.9078,3.9741,3.9902,4.006,4.0691,4.0846,4.1037,4.1676,4.1895,4.2021,4.2103,4.2541,4.2675,4.2226,4.2144,4.2284,4.277,4.2864,4.2864,4.2864,4.2864,4.2864,4.2864,4.2903,4.3123,4.3563,4.3679,4.3679,4.3597,4.3679,4.3664,4.3532,4.3563,4.3582,4.3497,4.3497,4.3497,4.3497,4.3664,4.3712,4.3712,4.3582,4.3548,2.3314,2.3735,2.4697,2.4697,2.4399,0.0,0.0,2.4303,2.4154,2.4839,2.4283,2.4031,2.5239,2.5788,2.6204,2.6639,2.8455,3.0184,3.1259,3.2825,3.384,3.384,3.384,3.4165,3.4986,3.494,3.5154,3.5849,3.5664,3.5683,3.6093,3.6479,3.6907,3.7336,3.8137,3.8566,3.8566,3.895,3.9154,3.9154,3.9301,3.9282,3.9154,3.9282,3.9275,3.9154,3.9154,3.9154,3.9127,3.898,3.9008,3.9154,3.9154,3.9154,3.9154,3.9154,3.9154,3.9127,3.8952,3.8894,3.8836,3.8428,3.83,3.8267,3.8016,3.7773,3.7595,3.7765,3.7813,3.7901,3.8291,3.8419,3.8624,3.9445,3.9641,3.9887,4.0787,4.115,4.1268,4.0984,4.142,4.181,4.181,4.181,4.1895,4.2221,4.2262,4.2262,4.2262,4.2262,4.2262,4.2262,4.2262,4.2364,4.2639,4.2639,4.2639,4.2639,4.2639,4.2639,4.2639,4.2639,4.2639,4.2639,4.2639,4.2639,4.2639,4.2639,4.294,4.3497,4.3497,4.3375,2.5147,2.5274,2.5857,2.6406,2.5617,2.4924,0.0,0.0,0.0,2.5208,2.4228,2.347,2.4306,2.4339,2.426,2.4429,2.6309,2.7756,2.7756,2.9567,3.1092,3.1674,3.1748,3.2052,3.2845,3.2751,3.2912,3.3608,3.332,3.3532,3.4477,3.4825,3.5302,3.6028,3.6835,3.7331,3.7507,3.8138,3.856,3.8707,3.8923,3.8923,3.8707,3.8905,3.8894,3.8707,3.8707,3.8707,3.8707,3.8707,3.8707,3.8707,3.8707,3.8707,3.8707,3.8707,3.8707,3.8676,3.8578,3.8546,3.8465,3.7946,3.7755,3.7685,3.7173,3.7038,3.702,3.6904,3.6904,3.6904,3.6904,3.6904,3.7136,3.8027,3.8343,3.8706,3.9662,4.0346,4.0607,4.0154,4.0449,4.092,4.1375,4.1464,4.1508,4.1639,4.1621,4.1621,4.1621,4.1621,4.1621,4.1621,4.1621,4.1664,4.181,4.181,4.181,4.181,4.181,4.181,4.181,4.181,4.181,4.181,4.181,4.181,4.181,4.181,4.2266,4.3178,4.3178,4.2958,2.7601,2.7366,2.7109,2.6492,2.6583,2.6321,2.4303,0.0,2.4266,2.2783,0.0,2.238,2.3067,0.0,0.0,2.3087,2.4045,2.4709,2.4709,2.5538,2.7139,2.9763,3.0061,3.0402,3.1181,3.0396,3.036,3.163,3.1023,3.1274,3.2797,3.422,3.5045,3.5137,3.5991,3.678,3.7477,3.7569,3.7991,3.8707,3.8719,3.8719,3.8707,3.8719,3.8719,3.8707,3.8707,3.8707,3.8707,3.8707,3.8707,3.8707,3.8707,3.8707,3.8707,3.8707,3.8707,3.8627,3.815,3.798,3.7911,3.7433,3.7285,3.7173,3.6643,3.6498,3.6374,3.5941,3.5766,3.5766,3.5766,3.5766,3.5987,3.6825,3.7492,3.8204,3.8937,3.9713,4.0154,4.0121,4.0171,4.0204,4.0303,4.0286,4.0483,4.1019,4.103,4.0995,4.0995,4.0995,4.0995,4.0995,4.0995,4.1223,4.175,4.181,4.181,4.181,4.181,4.181,4.181,4.181,4.181,4.181,4.181,4.181,4.181,4.181,4.1853,4.2003,4.2003,4.1979,2.7509,2.7395,2.7241,2.691,2.6647,2.6227,2.5186,2.4776,2.4535,2.4199,0.0,0.0,0.0,0.0,0.0,0.0,2.2593,2.2795,2.2795,2.3107,2.445,2.7568,2.7531,2.7755,2.9021,2.8732,2.8898,2.9916,2.9696,3.021,3.1825,3.2999,3.3825,3.4302,3.5128,3.5716,3.6046,3.7,3.7661,3.801,3.8487,3.8707,3.8707,3.8707,3.8707,3.8707,3.8707,3.8707,3.8707,3.8707,3.8515,3.8234,3.8234,3.8433,3.8707,3.8707,3.8496,3.8216,3.798,3.772,3.7396,3.6921,3.6522,3.6249,3.6011,3.5941,3.5898,3.565,3.5622,3.5622,3.5622,3.5299,3.5345,3.654,3.6703,3.6946,3.805,3.8553,3.8778,3.8778,3.8778,3.8778,3.8778,3.9506,4.0171,4.0434,4.0466,4.0449,4.0449,4.0449,4.0449,4.0449,4.0449,4.0546,4.0814,4.0814,4.0814,4.0814,4.0814,4.0814,4.0814,4.0814,4.0814,4.0814,4.0814,4.0814,4.0814,4.0814,4.0814,4.0814,4.1508,4.1621,2.7821,2.7838,2.7693,2.7219,2.6643,2.6049,2.5614,2.5107,2.4855,2.5208,2.4413,0.0,0.0,0.0,2.2061,2.1839,0.0,2.1729,2.1473,2.1437,2.2483,2.5291,2.5493,2.5862,2.7016,2.6741,2.6998,2.8242,2.7934,2.8594,3.0632,3.1715,3.2651,3.3458,3.4266,3.477,3.499,3.6211,3.6927,3.7165,3.7991,3.8377,3.8377,3.8597,3.8707,3.8707,3.8707,3.8707,3.8707,3.8546,3.8267,3.7911,3.7755,3.7964,3.8285,3.8285,3.805,3.7685,3.7542,3.7155,3.6724,3.6291,3.5898,3.5622,3.5622,3.5622,3.5622,3.5622,3.547,3.5316,3.5316,3.4847,3.4578,3.5656,3.5803,3.6001,3.7004,3.7519,3.7822,3.7822,3.7822,3.7822,3.7822,3.8887,3.9731,3.9506,3.961,3.9782,3.9782,3.9782,3.985,4.007,4.007,4.007,4.007,4.007,4.007,4.007,4.007,4.007,4.007,4.007,4.007,4.007,4.007,4.007,4.007,4.007,4.007,4.0121,4.0938,4.1105,2.9568,2.9476,2.8928,2.7326,2.6726,2.6174,2.4595,2.4833,2.5164,2.4411,2.4833,2.509,2.4337,2.3529,2.2721,2.1931,2.1803,0.0,0.0,2.0539,2.1181,2.2905,2.4465,2.5421,2.5476,2.4061,2.4135,2.6502,2.5236,2.575,2.8902,3.0577,3.1806,3.2614,3.3421,3.4211,3.499,3.5045,3.5514,3.634,3.7147,3.7533,3.7551,3.834,3.8707,3.8707,3.8707,3.8707,3.8658,3.815,3.7911,3.7859,3.7396,3.721,3.7266,3.7266,3.7228,3.7152,3.6643,3.6097,3.5667,3.5622,3.5622,3.5622,3.5622,3.5622,3.5622,3.5622,3.5144,3.4624,3.4624,3.4137,3.3649,3.3665,3.4739,3.571,3.578,3.683,3.7822,3.7822,3.7822,3.7822,3.7822,3.8414,3.869,3.7978,3.8469,3.8908,3.8908,3.8908,3.9262,4.002,4.007,4.007,4.007,4.007,4.007,4.007,4.007,4.007,4.007,4.007,4.007,4.007,4.007,4.007,4.007,4.007,4.007,4.007,4.0121,4.0121,2.9079,2.9203,2.8857,2.7772,2.7025,2.6319,2.5236,2.5201,2.5182,2.4373,2.4832,2.5164,2.4337,2.3547,2.2923,2.2648,2.1657,2.0849,0.0,2.0503,2.0704,2.1273,2.2813,2.3602,2.307,2.3015,2.3345,2.4171,2.4208,2.5144,2.731,2.8943,3.043,3.1751,3.2596,3.3403,3.4211,3.4715,3.5137,3.543,3.5994,3.6235,3.6253,3.6215,3.6445,3.6895,3.6895,3.7218,3.7667,3.7506,3.7248,3.6904,3.6724,3.644,3.6249,3.6943,3.6999,3.6603,3.6054,3.5739,3.5622,3.5622,3.5622,3.5515,3.5052,3.4941,3.4847,3.4399,3.4087,3.3937,3.3937,3.3443,3.3039,3.3479,3.3928,3.4383,3.48,3.5625,3.6258,3.6258,3.6258,3.6258,3.6258,3.6859,3.7483,3.7748,3.8035,3.8149,3.8149,3.8149,3.8262,3.8541,3.8613,3.8761,3.9262,3.9782,4.007,4.007,4.007,4.007,4.007,4.007,4.007,4.007,4.007,4.007,4.007,4.007,4.007,4.007,4.007,4.007,2.8847,2.9195,2.9163,2.8062,2.764,2.709,2.5715,2.5623,2.5585,2.4777,2.5054,2.5289,2.491,2.4075,2.329,2.2865,2.177,2.0758,0.0,2.0079,2.0079,2.0079,2.1547,2.2483,2.2244,2.1896,2.2171,2.3345,2.3088,2.3859,2.6062,2.7695,2.931,3.0907,3.2045,3.2999,3.3788,3.4164,3.4363,3.4363,3.4736,3.4903,3.4903,3.492,3.5137,3.5616,3.5616,3.6041,3.6748,3.6615,3.6479,3.6374,3.6182,3.5898,3.5694,3.6357,3.6399,3.6071,3.5739,3.5622,3.5577,3.5316,3.5253,3.5098,3.4431,3.4235,3.4137,3.3735,3.3443,3.3235,3.3235,3.2734,3.2327,3.2772,3.3169,3.3607,3.4028,3.4893,3.5504,3.5504,3.5504,3.5504,3.5504,3.5894,3.6399,3.689,3.7235,3.7397,3.7397,3.7397,3.7456,3.7764,3.7822,3.7978,3.8469,3.8995,3.9279,3.9279,3.9279,3.9401,3.9662,3.9662,3.9782,4.007,3.9833,3.9662,3.9662,3.9385,3.9268,3.9293,3.9054,3.9054]},{"header":{"parameterUnit":"m.s-1","parameterCategory":1,"la1":30.6,"la2":29.2853,"lo1":-89.7004,"lo2":-87.6739,"dy":0.0162,"dx":0.0183,"nx":112,"ny":82,"refTime":"2024-09-13T00:00:00:Z","depth":0,"parameterNumber":3,"parameterNumberName":"V-component_of_WINDS"},"data":[0.0,0.0,0.0,0.0,0.0,0.0,0.0,0.0,0.0,0.0,0.0,0.0,0.0,0.0,0.0,0.0,0.0,0.0,0.0,0.0,0.0,0.0,0.0,0.0,0.0,0.0,0.0,0.0,0.0,0.0,0.0,0.0,0.0,0.0,0.0,0.0,0.0,0.0,0.0,0.0,0.0,0.0,0.0,0.0,0.0,0.0,0.0,0.0,0.0,0.0,0.0,0.0,0.0,0.0,0.0,0.0,0.0,0.0,0.0,0.0,0.0,0.0,0.0,0.0,0.0,0.0,0.0,0.0,0.0,0.0,0.0,0.0,0.0,0.0,0.0,0.0,0.0,0.0,0.0,0.0,0.0,0.0,0.0,0.0,0.0,0.0,0.0,0.0,0.0,0.0,2.1511,2.3723,2.8088,3.039,2.9295,2.989,2.8355,2.3768,0.0,0.0,0.0,0.0,0.0,0.0,0.0,0.0,0.0,0.0,0.0,0.0,0.0,0.0,0.0,0.0,0.0,0.0,0.0,0.0,0.0,0.0,0.0,0.0,0.0,0.0,0.0,0.0,0.0,0.0,0.0,0.0,0.0,0.0,0.0,0.0,0.0,0.0,0.0,0.0,0.0,0.0,0.0,0.0,0.0,0.0,0.0,0.0,0.0,0.0,0.0,0.0,0.0,0.0,0.0,0.0,0.0,0.0,0.0,0.0,0.0,0.0,0.0,0.0,0.0,0.0,0.0,0.0,0.0,0.0,0.0,0.0,0.0,0.0,0.0,0.0,0.0,0.0,0.0,0.0,0.0,0.0,0.0,0.0,0.0,0.0,0.0,0.0,0.0,0.0,0.0,0.0,0.0,0.0,0.0,0.0,0.0,0.0,0.0,0.0,0.0,0.0,0.0,0.0,2.2528,2.7354,2.9645,3.1024,3.1545,3.0924,2.8976,2.5461,0.0,0.0,0.0,0.0,0.0,0.0,0.0,0.0,0.0,0.0,0.0,0.0,0.0,0.0,0.0,0.0,0.0,0.0,0.0,0.0,0.0,0.0,0.0,0.0,0.0,0.0,0.0,0.0,0.0,0.0,0.0,0.0,0.0,0.0,0.0,0.0,0.0,0.0,0.0,0.0,0.0,0.0,0.0,0.0,0.0,0.0,0.0,0.0,0.0,0.0,0.0,0.0,0.0,0.0,0.0,0.0,0.0,0.0,0.0,0.0,0.0,0.0,0.0,0.0,0.0,0.0,0.0,0.0,0.0,0.0,0.0,0.0,0.0,0.0,0.0,0.0,0.0,0.0,0.0,0.0,0.0,0.0,0.0,0.0,0.0,0.0,0.0,0.0,0.0,0.0,0.0,0.0,0.0,0.0,0.0,0.0,0.0,0.0,0.0,0.0,0.0,0.0,0.0,2.1493,2.4234,2.8673,3.0391,3.1292,3.1373,3.0835,2.8872,2.5141,2.3741,0.0,0.0,0.0,0.0,0.0,0.0,0.0,0.0,0.0,0.0,0.0,0.0,0.0,0.0,0.0,0.0,0.0,0.0,0.0,0.0,0.0,0.0,0.0,0.0,0.0,0.0,0.0,0.0,0.0,0.0,0.0,0.0,0.0,0.0,0.0,0.0,0.0,0.0,0.0,0.0,0.0,0.0,0.0,0.0,0.0,0.0,0.0,0.0,0.0,0.0,0.0,0.0,0.0,0.0,0.0,0.0,0.0,0.0,0.0,0.0,0.0,0.0,0.0,0.0,0.0,0.0,0.0,0.0,0.0,0.0,0.0,0.0,0.0,0.0,0.0,0.0,0.0,0.0,0.0,0.0,0.0,0.0,0.0,0.0,0.0,0.0,0.0,0.0,0.0,0.0,0.0,0.0,0.0,0.0,0.0,0.0,0.0,0.0,0.0,0.0,0.0,0.0,2.3816,2.5908,2.9464,3.0923,3.1529,3.1467,3.0557,2.8492,2.4867,2.2936,0.0,0.0,0.0,0.0,0.0,0.0,0.0,0.0,0.0,0.0,0.0,0.0,0.0,0.0,0.0,0.0,0.0,0.0,0.0,0.0,0.0,0.0,0.0,0.0,0.0,0.0,0.0,0.0,0.0,0.0,0.0,0.0,0.0,0.0,0.0,0.0,0.0,0.0,0.0,0.0,0.0,0.0,0.0,0.0,0.0,0.0,0.0,0.0,0.0,0.0,0.0,0.0,0.0,0.0,0.0,0.0,0.0,0.0,0.0,0.0,0.0,0.0,0.0,0.0,0.0,0.0,0.0,0.0,0.0,0.0,0.0,0.0,0.0,0.0,0.0,0.0,0.0,0.0,0.0,0.0,0.0,0.0,0.0,0.0,0.0,0.0,0.0,0.0,0.0,0.0,0.0,0.0,0.0,0.0,0.0,0.0,0.0,0.0,0.0,0.0,0.0,0.0,2.4343,2.7527,3.0593,3.1336,3.2072,3.3206,3.0511,2.7793,2.564,2.1968,0.0,0.0,0.0,0.0,0.0,0.0,0.0,0.0,0.0,0.0,0.0,0.0,0.0,0.0,0.0,0.0,0.0,0.0,0.0,0.0,0.0,0.0,0.0,0.0,0.0,0.0,0.0,0.0,0.0,0.0,0.0,0.0,0.0,0.0,0.0,0.0,0.0,0.0,0.0,0.0,0.0,0.0,0.0,0.0,0.0,0.0,0.0,0.0,0.0,0.0,0.0,0.0,0.0,0.0,0.0,0.0,0.0,0.0,0.0,0.0,0.0,0.0,0.0,0.0,0.0,0.0,0.0,0.0,0.0,0.0,0.0,0.0,0.0,0.0,0.0,0.0,0.0,0.0,0.0,0.0,0.0,0.0,0.0,0.0,0.0,0.0,0.0,0.0,0.0,0.0,0.0,0.0,0.0,0.0,0.0,0.0,0.0,0.0,0.0,0.0,0.0,0.0,2.3502,2.6101,2.9147,3.0038,3.089,3.1907,3.0315,2.8188,2.5764,0.0,0.0,0.0,0.0,0.0,0.0,0.0,0.0,0.0,0.0,0.0,0.0,0.0,0.0,0.0,0.0,0.0,0.0,0.0,0.0,0.0,0.0,0.0,0.0,0.0,0.0,0.0,0.0,0.0,0.0,0.0,0.0,0.0,0.0,0.0,0.0,0.0,0.0,0.0,0.0,0.0,0.0,0.0,0.0,0.0,0.0,0.0,0.0,0.0,0.0,0.0,0.0,0.0,0.0,0.0,0.0,0.0,0.0,0.0,0.0,0.0,0.0,0.0,0.0,0.0,0.0,0.0,0.0,0.0,0.0,0.0,0.0,0.0,0.0,0.0,0.0,0.0,0.0,0.0,0.0,0.0,0.0,0.0,0.0,0.0,0.0,0.0,0.0,0.0,0.0,0.0,0.0,0.0,0.0,0.0,0.0,0.0,0.0,0.0,0.0,0.0,0.0,2.1104,2.3251,2.5575,2.8289,2.9307,3.003,3.0687,2.9459,2.7652,2.5324,0.0,0.0,0.0,0.0,0.0,0.0,0.0,0.0,0.0,0.0,0.0,0.0,0.0,0.0,0.0,0.0,0.0,0.0,0.0,0.0,0.0,0.0,0.0,0.0,0.0,0.0,0.0,0.0,0.0,0.0,0.0,0.0,0.0,0.0,0.0,0.0,0.0,0.0,0.0,0.0,0.0,0.0,0.0,0.0,0.0,0.0,0.0,0.0,0.0,0.0,0.0,0.0,0.0,0.0,0.0,0.0,0.0,0.0,0.0,0.0,0.0,0.0,0.0,0.0,0.0,0.0,0.0,0.0,0.0,0.0,0.0,0.0,0.0,0.0,0.0,0.0,0.0,0.0,0.0,0.0,0.0,0.0,0.0,0.0,0.0,0.0,0.0,0.0,0.0,0.0,0.0,0.0,0.0,0.0,0.0,0.0,0.0,0.0,0.0,0.0,0.0,0.0,2.1204,2.3879,2.6391,2.8462,2.9374,2.9821,2.9951,2.794,2.5948,0.0,0.0,0.0,0.0,0.0,0.0,0.0,0.0,0.0,0.0,0.0,0.0,0.0,0.0,0.0,0.0,0.0,0.0,0.0,0.0,0.0,0.0,0.0,0.0,0.0,0.0,0.0,0.0,0.0,0.0,0.0,0.0,0.0,0.0,0.0,0.0,0.0,0.0,0.0,0.0,0.0,0.0,0.0,0.0,0.0,0.0,0.0,0.0,0.0,0.0,0.0,0.0,0.0,0.0,0.0,0.0,0.0,0.0,0.0,0.0,0.0,0.0,0.0,0.0,0.0,0.0,0.0,0.0,0.0,0.0,0.0,0.0,0.0,0.0,0.0,0.0,0.0,0.0,0.0,0.0,0.0,0.0,0.0,0.0,0.0,0.0,0.0,0.0,0.0,0.0,0.0,0.0,0.0,0.0,0.0,0.0,0.0,0.0,0.0,0.0,0.0,0.0,0.0,2.1204,2.3577,2.5777,2.7802,2.875,2.9099,2.8796,2.8274,2.6796,2.3937,0.0,0.0,0.0,0.0,0.0,0.0,0.0,0.0,0.0,0.0,0.0,0.0,0.0,0.0,0.0,0.0,0.0,0.0,0.0,0.0,0.0,0.0,0.0,0.0,0.0,0.0,0.0,0.0,0.0,0.0,0.0,0.0,0.0,0.0,0.0,0.0,0.0,0.0,0.0,0.0,0.0,0.0,0.0,0.0,0.0,0.0,0.0,0.0,0.0,0.0,0.0,0.0,0.0,0.0,0.0,0.0,0.0,0.0,0.0,0.0,0.0,0.0,0.0,0.0,0.0,0.0,0.0,0.0,0.0,0.0,0.0,0.0,0.0,0.0,0.0,0.0,0.0,0.0,0.0,0.0,0.0,0.0,0.0,0.0,0.0,0.0,0.0,0.0,0.0,0.0,0.0,0.0,0.0,0.0,0.0,0.0,0.0,0.0,0.0,0.0,0.0,0.0,2.1204,2.3439,2.5418,2.7046,2.7986,2.8356,2.8053,2.8068,2.6782,2.3724,0.0,0.0,0.0,0.0,0.0,0.0,0.0,0.0,0.0,0.0,0.0,0.0,0.0,0.0,0.0,0.0,0.0,0.0,0.0,0.0,0.0,0.0,0.0,0.0,0.0,0.0,0.0,0.0,0.0,0.0,0.0,0.0,0.0,0.0,0.0,0.0,0.0,0.0,0.0,0.0,0.0,0.0,0.0,0.0,0.0,0.0,0.0,0.0,0.0,0.0,0.0,0.0,0.0,0.0,0.0,0.0,0.0,0.0,0.0,0.0,0.0,0.0,0.0,0.0,0.0,0.0,0.0,0.0,0.0,0.0,0.0,0.0,0.0,0.0,0.0,0.0,0.0,0.0,0.0,0.0,0.0,0.0,0.0,0.0,0.0,0.0,0.0,0.0,0.0,0.0,0.0,0.0,0.0,0.0,0.0,0.0,0.0,0.0,0.0,0.0,0.0,0.0,2.1204,2.3439,2.5247,2.6408,2.7229,2.771,2.7657,2.7454,2.6207,2.3765,0.0,0.0,0.0,0.0,0.0,0.0,0.0,0.0,0.0,0.0,0.0,0.0,0.0,0.0,0.0,0.0,0.0,0.0,0.0,0.0,0.0,0.0,0.0,0.0,0.0,0.0,0.0,0.0,0.0,0.0,0.0,0.0,0.0,0.0,0.0,0.0,0.0,0.0,0.0,0.0,0.0,0.0,0.0,0.0,0.0,0.0,0.0,0.0,0.0,0.0,0.0,0.0,0.0,0.0,0.0,0.0,0.0,0.0,0.0,0.0,0.8143,0.7636,0.0,0.0,0.0,0.0,0.0,0.0,0.0,0.0,0.0,0.0,0.0,0.0,0.0,0.0,0.0,0.0,0.0,0.0,0.0,0.0,0.0,0.0,0.0,0.0,0.0,0.0,0.0,0.0,0.0,0.0,0.0,0.0,0.0,0.0,0.0,0.0,0.0,0.0,0.0,0.0,2.1204,2.3439,2.5247,2.6408,2.7229,2.7551,2.7103,2.7218,2.6207,2.3765,2.1787,0.0,0.0,0.0,0.0,0.0,0.0,0.0,0.0,0.0,0.0,0.0,0.0,0.0,0.0,0.0,0.0,0.0,0.0,0.0,0.0,0.0,0.0,0.0,0.0,0.0,0.0,0.0,0.0,0.0,0.0,0.0,0.0,0.0,0.0,0.0,0.0,0.0,0.0,0.0,0.0,0.0,0.0,0.0,0.0,0.0,0.0,0.0,0.0,0.0,0.0,0.0,0.0,0.0,0.0,0.0,0.0,0.0,0.0,0.0,0.9492,0.8978,0.0,0.0,0.0,0.0,0.0,0.0,0.0,0.0,0.0,0.0,0.0,0.0,0.0,0.0,0.0,0.0,0.0,0.0,0.0,0.0,0.0,0.0,0.0,0.0,0.0,0.0,0.0,0.0,0.0,0.0,0.0,0.0,0.0,0.0,0.0,0.0,0.0,0.0,0.0,0.0,2.1242,2.3439,2.5247,2.6408,2.6837,2.7167,2.7249,2.722,2.6386,2.4648,2.2991,0.0,0.0,0.0,0.0,0.0,0.0,0.0,0.0,0.0,0.0,0.0,0.0,0.0,0.0,0.0,0.0,0.0,0.0,0.0,0.0,0.0,0.0,0.0,0.0,0.0,0.0,0.0,0.0,0.0,0.0,0.0,0.0,0.0,0.0,0.0,0.0,0.0,0.0,0.0,0.0,0.0,0.0,0.0,0.0,0.0,0.0,0.0,0.0,0.0,0.0,0.0,0.0,0.0,1.0775,1.1109,1.181,1.1617,1.1663,1.1844,1.1069,1.0555,1.0234,0.9746,0.0,0.0,0.0,0.0,0.0,0.0,0.0,0.0,0.0,0.0,0.0,0.0,0.0,0.0,0.0,0.0,0.0,0.0,0.0,0.0,0.0,0.0,1.3283,1.4345,1.512,1.5361,1.4317,0.0,0.0,0.0,0.0,0.0,0.0,0.0,0.0,0.0,0.0,0.0,2.1543,2.364,2.5335,2.642,2.6533,2.685,2.7604,2.735,2.6748,2.5703,2.4694,2.3066,0.0,0.0,0.0,0.0,0.0,0.0,0.0,0.0,0.0,0.0,0.0,0.0,0.0,0.0,0.0,0.0,0.0,0.0,0.0,0.0,0.0,0.0,0.0,0.0,0.0,0.0,0.0,0.0,0.0,0.0,0.0,0.0,0.3882,0.4889,0.0,0.0,0.0,0.0,0.0,0.0,0.0,0.0,0.0,0.0,0.0,0.0,0.0,1.0588,1.1129,1.1683,1.1997,1.2078,1.2826,1.324,1.336,1.3581,1.3701,1.3714,1.334,0.0,1.0875,1.0795,0.0,0.0,0.0,0.0,0.0,0.0,0.0,0.0,0.0,0.0,0.0,0.0,0.0,0.0,0.0,0.0,0.0,0.0,0.0,0.0,0.0,0.0,1.2734,1.396,1.4753,1.552,1.6341,1.5839,1.5071,1.4717,1.4376,1.4158,0.0,0.0,0.0,0.0,0.0,0.0,2.2636,2.4418,2.5737,2.6458,2.6533,2.685,2.7604,2.7818,2.7396,2.6368,2.6221,2.5304,2.3291,2.1456,0.0,0.0,0.0,0.0,0.0,0.0,0.0,0.0,0.0,0.0,0.0,0.0,0.0,0.0,0.0,0.0,0.0,0.0,0.0,0.0,0.0,0.0,0.0,0.0,0.0,0.0,0.0,0.0,0.0,0.4299,0.4966,0.5251,0.5476,0.5522,0.0,0.0,0.0,0.0,0.0,0.0,0.0,0.0,0.0,1.0154,1.0621,1.1405,1.2589,1.3093,1.3387,1.3554,1.3948,1.4222,1.4389,1.4522,1.4583,1.4576,1.4442,1.3848,1.2906,1.2071,1.1403,1.0882,0.0,0.0,0.0,0.0,1.0862,1.0618,1.1769,1.1597,1.1053,1.1524,0.0,0.0,0.0,0.0,0.0,0.0,0.0,1.304,1.2694,1.292,1.3565,1.5341,1.6037,1.675,1.8304,1.8251,1.7615,1.6516,1.6433,1.6245,1.5408,1.5747,0.0,0.0,0.0,2.1244,2.3353,2.477,2.5824,2.6471,2.6533,2.6658,2.6973,2.7645,2.7657,2.6775,2.6968,2.6609,2.5401,2.3746,2.2247,0.0,0.0,0.0,0.0,0.0,0.0,0.0,0.0,0.0,0.0,0.0,0.0,0.0,0.0,0.0,0.0,0.0,0.0,0.0,0.0,0.0,0.0,0.0,0.0,0.0,0.0,0.0,0.0,0.5105,0.557,0.5509,0.5992,0.601,0.0,0.0,0.0,0.0,0.0,0.0,0.7052,0.7633,0.8939,1.1025,1.1635,1.2538,1.3975,1.4202,1.4456,1.4743,1.4743,1.4903,1.5184,1.5184,1.5184,1.5177,1.511,1.495,1.4643,1.3307,1.2585,1.2291,1.1997,1.1884,1.1917,1.2218,1.2131,1.1984,1.2726,1.2732,1.2439,1.2497,1.2501,1.2246,1.1737,0.0,0.0,0.0,0.0,1.3576,1.3453,1.357,1.4256,1.6134,1.6975,1.7743,1.9362,1.9926,1.9609,1.8018,1.8075,1.7955,1.6684,1.7043,0.0,1.8919,2.0382,2.2113,2.4129,2.5234,2.5988,2.6483,2.6533,2.6533,2.6533,2.7586,2.8002,2.7322,2.7795,2.7784,2.7141,2.5682,2.4024,2.2262,0.0,0.0,0.0,0.0,0.0,0.0,0.0,0.0,0.0,0.0,0.0,0.0,0.0,0.0,0.0,0.0,0.0,0.0,0.0,0.0,0.0,0.0,0.0,0.0,0.0,0.0,0.0,0.0,0.0,0.587,0.5807,0.0,0.0,0.0,0.0,0.6294,0.6668,0.7458,0.8874,0.9451,1.0584,1.2423,1.3709,1.4495,1.4897,1.491,1.5064,1.5351,1.5351,1.5504,1.5785,1.5785,1.5785,1.5772,1.5491,1.5364,1.5284,1.4369,1.3821,1.3527,1.3233,1.312,1.3153,1.3447,1.3367,1.3166,1.3487,1.3213,1.2889,1.3353,1.3146,1.2688,1.2345,1.2635,0.0,0.0,1.31,1.3874,1.3654,1.3587,1.3995,1.5434,1.6585,1.7658,1.8771,1.9885,2.0146,1.8828,1.8574,1.8468,1.8222,0.0,1.8997,2.1175,2.2025,2.3195,2.524,2.605,2.6496,2.6533,2.6533,2.6533,2.6533,2.8025,2.8636,2.7968,2.8898,2.919,2.8532,2.6601,2.4939,2.362,2.1117,0.0,0.0,0.0,0.0,0.0,0.0,0.0,0.0,0.0,0.0,0.0,0.0,0.0,0.0,0.0,0.0,0.0,0.0,0.0,0.0,0.0,0.0,0.0,0.0,0.0,0.0,0.0,0.0,0.6346,0.6513,0.0,0.6163,0.6691,0.6912,0.6514,0.6741,0.7573,0.9167,0.9452,1.0665,1.3209,1.3787,1.4479,1.5518,1.5518,1.5571,1.5671,1.5671,1.5732,1.5832,1.5832,1.5832,1.5818,1.5718,1.5671,1.5651,1.5337,1.4923,1.4482,1.4382,1.4342,1.4349,1.4456,1.4429,1.4355,1.4456,1.4355,1.4142,1.3981,1.3654,1.3267,1.2973,1.3308,1.3712,1.3501,1.4042,1.464,1.4522,1.4496,1.477,1.5965,1.718,1.828,1.9374,2.0564,2.1279,2.082,2.0039,1.9397,1.9134,1.9021,1.9682,2.1853,2.2495,2.3557,2.5902,2.6395,2.6533,2.6533,2.6533,2.6533,2.6533,2.755,2.7766,2.6711,2.7965,2.8338,2.7287,2.6567,2.5611,2.4375,2.2194,1.9843,0.0,0.0,0.0,0.0,0.0,0.0,0.0,0.0,0.0,0.0,0.0,0.0,0.0,0.0,0.0,0.0,0.0,0.0,0.0,0.0,0.0,0.0,0.0,0.0,0.0,0.5592,0.5916,0.6924,0.7013,0.6957,0.6862,0.7126,0.7159,0.685,0.701,0.7617,0.8694,0.9259,1.0603,1.3053,1.3543,1.4389,1.5825,1.5832,1.5832,1.5832,1.5832,1.5832,1.5832,1.5832,1.5832,1.5832,1.5832,1.5832,1.5832,1.5832,1.5605,1.5257,1.5257,1.5257,1.5257,1.5257,1.5197,1.5097,1.4997,1.4963,1.4897,1.4509,1.4249,1.4055,1.3861,1.4075,1.4382,1.4382,1.4663,1.4963,1.4963,1.4963,1.5397,1.6858,1.781,1.8845,2.0307,2.1265,2.1885,2.1885,2.1182,2.0554,2.043,2.0143,2.0622,2.2777,2.3083,2.3954,2.6195,2.6533,2.6533,2.6533,2.6533,2.6533,2.6533,2.7301,2.736,2.6324,2.7195,2.7374,2.6539,2.5877,2.5091,2.4071,2.1753,1.9678,1.7791,0.0,0.0,0.0,0.0,0.0,0.0,0.0,0.0,0.0,0.0,0.0,0.0,0.0,0.0,0.0,0.0,0.0,0.0,0.0,0.0,0.0,0.0,0.0,0.6303,0.6169,0.6414,0.7488,0.7166,0.6892,0.6742,0.7126,0.7475,0.7475,0.7526,0.7672,0.7907,0.9152,1.0477,1.194,1.3199,1.4555,1.5825,1.5832,1.5832,1.5832,1.5832,1.5832,1.5832,1.5832,1.5832,1.5832,1.5832,1.5832,1.5832,1.5832,1.5832,1.5832,1.5832,1.5832,1.5832,1.5832,1.5651,1.5371,1.509,1.499,1.499,1.4983,1.4977,1.4977,1.497,1.497,1.4977,1.4977,1.4983,1.499,1.499,1.499,1.5603,1.7842,1.8448,1.9059,2.1396,2.1924,2.1924,2.1924,2.1924,2.1914,2.1894,2.1533,2.1859,2.3908,2.3798,0.0,2.6188,2.6477,2.6477,2.6533,2.6533,2.6533,2.6533,2.7389,2.7596,2.6889,2.6637,2.652,2.6428,2.4632,2.3353,2.2675,1.9789,1.8144,1.7841,0.0,0.0,0.0,0.0,0.0,0.0,0.0,0.0,0.0,0.0,0.0,0.0,0.0,0.0,0.0,0.0,0.0,0.0,0.0,0.0,0.0,0.5511,0.6022,0.6316,0.653,0.686,0.7375,0.7448,0.7397,0.7356,0.7556,0.8065,0.9099,0.8404,0.8709,1.0687,1.021,1.1007,1.3295,1.3686,1.4555,1.5825,1.5832,1.5832,1.5832,1.5832,1.5832,1.5832,1.5832,1.5832,1.5832,1.5832,1.5832,1.5832,1.5832,1.5832,1.5832,1.5832,1.5832,1.5832,1.5832,1.5778,1.5698,1.5618,1.5591,1.5558,1.5344,1.5277,1.5237,1.503,1.511,1.5277,1.5277,1.5431,1.5591,1.5591,1.5591,1.5958,1.7499,1.8576,1.9647,2.1162,2.2159,2.2793,2.2793,2.2793,2.2598,2.1992,2.1787,2.2169,2.3382,2.3424,2.3985,2.5599,2.5853,2.6007,2.6421,2.6533,2.6533,2.6533,2.6381,2.582,2.4848,2.4885,2.4747,2.4244,2.3744,2.2951,2.1851,2.0953,2.0047,0.0,0.0,0.0,0.0,0.0,0.0,0.0,0.0,0.0,0.0,0.0,0.0,0.0,0.0,0.0,0.0,0.0,0.0,0.0,0.0,0.0,0.0,0.6169,0.6607,0.6793,0.699,0.7224,0.7519,0.7634,0.7712,0.7777,0.7858,0.8195,0.8968,0.8379,0.8627,1.019,0.9604,1.0382,1.3006,1.3102,1.398,1.5825,1.5832,1.5832,1.5832,1.5832,1.5832,1.5832,1.5832,1.5832,1.5832,1.5832,1.5832,1.5832,1.5832,1.5832,1.5832,0.0,0.0,0.0,0.0,1.5832,1.5832,1.5832,1.5832,1.5798,1.5631,1.5578,1.5545,1.5378,1.5444,1.5578,1.5578,1.5698,1.5832,1.5832,1.5832,1.6103,1.7412,1.8588,1.9852,2.1025,2.2217,2.3135,2.3135,2.3135,0.0,2.249,2.2266,2.2462,2.3483,2.3458,2.3932,2.5761,2.5961,2.6202,2.6784,2.6804,2.6716,2.6546,2.6248,0.0,0.0,0.0,2.3804,2.2655,2.2871,0.0,0.0,0.0,0.0,0.0,2.125,0.0,0.0,2.0077,2.0066,0.0,0.0,0.0,0.0,0.0,0.0,0.0,0.0,0.0,0.0,0.0,0.0,0.0,0.0,0.0,0.0,0.6783,0.7149,0.7563,0.7519,0.7543,0.7804,0.7838,0.7889,0.8024,0.8038,0.8038,0.8237,0.8038,0.8038,0.8237,0.8038,0.0,0.0,0.0,1.3108,1.5534,1.573,1.5832,1.5832,1.5832,1.5832,1.5832,1.5832,1.5832,1.5832,1.5832,1.5832,1.5832,1.5832,1.5832,1.5832,1.5832,1.5832,1.5832,1.5832,1.5832,1.5832,1.5832,0.0,0.0,1.5832,1.5832,1.5832,1.5832,1.5832,1.5832,1.5832,1.5832,1.5832,1.5832,1.5832,1.6103,1.7412,1.8588,1.9852,2.1025,2.2217,2.3135,2.3135,2.3135,2.3135,2.3135,2.2832,2.2909,2.3731,2.3525,2.402,2.5958,2.6353,2.6593,2.7046,2.7197,0.0,2.6584,2.6554,2.6052,2.4858,2.4477,2.3529,2.1863,2.2364,2.2377,2.1798,2.2317,2.2801,2.3226,2.3816,2.4117,2.4117,2.2467,2.2243,0.0,0.0,0.0,0.0,0.0,0.0,0.0,0.0,0.0,0.0,0.0,0.0,0.0,0.0,0.0,0.6614,0.7115,0.7539,0.7743,0.7851,0.7933,0.7987,0.7994,0.8007,0.8035,0.8038,0.8432,0.9509,0.8627,0.8432,0.9509,0.8627,0.8726,1.0293,1.1361,1.2624,1.4268,1.5248,1.5832,1.5832,1.5832,0.0,1.5832,1.5832,1.5832,1.5832,1.5832,1.5832,1.5832,1.5832,1.5832,1.5832,1.5832,1.5832,1.5832,1.5832,1.5832,1.5832,1.5832,1.5832,1.5832,1.5832,1.5832,1.5832,1.5832,1.5832,0.0,1.5832,1.5832,1.5832,1.5832,1.5832,1.6103,1.7412,1.8588,1.9852,2.1025,2.2217,2.3135,2.3135,2.3135,2.3135,2.3135,2.3076,2.3018,2.3268,2.3189,2.3418,2.4381,2.5278,2.5787,2.5946,2.6756,2.7055,2.6584,2.6047,2.5492,2.4858,2.4318,2.3923,2.3533,2.4073,2.4098,2.3533,2.4064,2.4179,2.3841,2.4393,2.4883,2.5259,2.4482,2.4026,0.0,0.0,0.0,0.0,0.0,0.0,0.0,0.0,0.0,0.0,0.0,0.5881,0.6105,0.0,0.6905,0.7207,0.7509,0.7756,0.7902,0.7991,0.8038,0.8038,0.8038,0.8038,0.8038,0.8038,0.8233,0.892,0.8333,0.8333,0.892,0.8333,0.8627,0.9998,1.0583,1.194,1.3878,1.4555,1.5146,1.5832,1.5832,1.5832,1.5832,1.5832,1.5832,1.5832,1.5832,1.5832,1.5832,1.5832,1.5832,1.5832,1.5832,1.5832,1.5832,1.5832,1.5832,1.5832,1.5832,1.5832,1.5832,1.5832,1.5832,1.5832,1.5832,1.5832,1.5832,1.5832,1.5832,1.5832,1.5832,1.5832,1.592,1.6574,1.7677,1.8956,2.0124,2.1391,2.2403,2.296,2.3135,2.3135,2.3135,2.3135,2.3135,2.3135,2.3135,2.3394,2.4336,2.5365,2.6132,2.6394,2.7471,2.777,2.6942,2.6088,2.5485,2.5222,2.4707,2.4406,2.4406,2.4669,2.4695,2.4418,2.4946,2.5071,2.4795,2.5636,2.6189,2.644,2.6465,2.6163,0.0,0.0,0.0,0.0,0.0,0.0,0.0,0.5091,0.5488,0.5823,0.6203,0.6586,0.6949,0.7156,0.739,0.7753,0.7834,0.7899,0.8021,0.8038,0.8038,0.8038,0.8038,0.8038,0.8038,0.8038,0.8038,0.8038,0.8038,0.8038,0.8038,0.8038,0.8531,0.9608,0.9899,1.097,1.3102,1.368,1.4459,1.5439,1.5635,1.5832,1.5832,1.5832,1.5832,1.5832,1.5832,1.5832,1.5832,1.5832,1.5832,1.5832,1.5832,1.5832,1.5832,1.5832,1.5832,1.5832,1.5832,1.5832,1.5832,1.5832,1.5832,1.5832,1.5832,1.5832,1.5832,1.5832,1.5832,1.5832,1.5832,1.5832,1.5832,1.5832,1.6756,1.7963,1.8956,2.0124,2.1302,2.2492,2.2775,2.2862,2.3047,2.3135,2.3135,2.3135,2.3135,2.3474,2.4382,2.5462,2.6281,2.6653,2.7633,2.7977,2.722,2.6433,2.5925,2.5925,2.5435,2.5146,2.5146,2.5247,2.5297,2.5297,2.5812,2.6088,2.6088,2.7005,2.7444,2.7457,2.8009,2.7971,0.478,0.4704,0.4877,0.5125,0.5288,0.5501,0.0,0.6468,0.6444,0.6878,0.7115,0.7261,0.7312,0.755,0.7753,0.7801,0.7926,0.8021,0.8038,0.8038,0.8038,0.8038,0.8038,0.8038,0.8038,0.8038,0.8038,0.8038,0.8038,0.8038,0.8038,0.8038,0.8038,0.8237,0.9414,1.0096,1.0386,1.2716,1.3974,1.4166,1.5242,1.5832,1.5832,1.5832,1.5832,1.5832,1.5832,1.5832,1.5832,1.5832,1.5832,1.5832,1.5832,1.5832,1.5832,1.5832,1.5832,1.5832,1.5832,1.5832,1.5832,1.5832,1.5832,1.5832,1.5832,1.5832,1.5832,1.5832,1.5832,1.5832,1.5832,1.5832,1.5832,1.5832,1.6756,1.7777,1.787,1.8864,2.0034,2.1302,2.148,2.1845,2.295,2.3135,2.3135,2.3135,2.3135,2.3135,2.3299,2.4296,2.4872,2.4426,2.533,2.614,2.6538,2.6929,2.7092,2.7092,2.6578,2.6276,2.6276,2.6753,2.7005,2.7005,2.7544,2.7821,2.7821,2.7946,2.8009,2.8021,2.8586,2.8536,0.5438,0.5382,0.5484,0.5698,0.5949,0.6257,0.6695,0.6827,0.6963,0.7333,0.7526,0.7655,0.7743,0.7862,0.7943,0.7943,0.7997,0.8038,0.8038,0.8038,0.8038,0.8038,0.8038,0.8038,0.8038,0.8038,0.8038,0.8038,0.8038,0.8038,0.8038,0.8038,0.8038,0.8038,0.8528,0.9217,0.9998,1.1063,1.242,1.3878,1.4459,1.5045,1.5832,1.5832,1.5832,1.5832,1.5832,1.5832,1.5832,1.5832,1.5832,1.5832,1.5832,1.5832,1.5832,1.5832,1.5832,1.5832,1.5832,1.5832,1.5832,1.5832,1.5832,1.5832,1.5832,1.5832,1.5832,1.5832,1.5832,1.5832,1.5832,1.5832,1.5832,1.5832,1.6204,1.6756,1.7505,1.8141,1.8772,2.0034,2.0215,2.0666,2.1845,2.2031,2.2306,2.296,2.3135,2.3135,2.3135,2.4135,2.4978,2.538,2.5577,2.595,2.686,2.6851,2.7078,2.7758,2.7544,2.7419,2.7419,2.7645,2.7758,2.7758,2.7996,2.8109,2.8109,2.8423,2.8586,2.8599,2.9164,2.9302,0.5752,0.583,0.6023,0.6176,0.6552,0.6905,0.6987,0.7173,0.74,0.7665,0.7801,0.7909,0.8018,0.8038,0.8038,0.8038,0.8038,0.8038,0.8038,0.8038,0.8038,0.8038,0.8038,0.8038,0.8038,0.8038,0.8038,0.8038,0.8038,0.8038,0.8038,0.8038,0.8038,0.8038,0.8038,0.8432,0.941,0.9805,1.097,1.2807,1.3199,1.3782,1.4758,1.5146,1.5439,1.5832,1.5832,1.5832,1.5832,1.5832,1.5832,1.5832,1.5832,1.5832,1.5832,1.5832,1.5832,1.5832,1.5832,1.5832,1.5832,1.5832,1.5832,1.5832,1.5832,1.5832,1.5832,1.5832,1.5832,1.5832,1.5832,1.5832,1.5832,1.5832,1.5832,1.6015,1.6943,1.7225,1.7498,1.8772,1.9047,1.9488,2.1025,2.1293,2.1756,2.295,2.3135,2.3135,2.3135,2.38,2.4638,2.5473,2.548,2.575,2.6554,2.6352,2.6612,2.7381,2.757,2.7644,2.7644,2.81,2.8335,2.8335,2.8486,2.8574,2.8574,2.8976,2.9164,2.9176,2.9591,2.9792,0.5514,0.5901,0.6488,0.6641,0.7017,0.7424,0.7712,0.7784,0.7834,0.7994,0.8028,0.8035,0.8038,0.8038,0.8038,0.8038,0.8038,0.8038,0.8038,0.8038,0.8038,0.8038,0.8038,0.8038,0.8038,0.8038,0.8038,0.8038,0.8038,0.8038,0.8038,0.8038,0.8038,0.8038,0.8038,0.8041,0.8038,0.9312,0.9998,1.0096,1.1365,1.1945,1.2042,1.3392,1.4657,1.5832,1.5832,1.5832,1.5832,1.5832,1.5832,1.5832,1.5832,1.5832,1.5832,1.5832,1.5832,1.5832,1.5832,1.5832,1.5832,1.5832,1.5832,1.5832,1.5832,1.5832,1.5832,1.5832,1.5832,1.5832,1.5832,1.5832,1.5832,1.5832,1.5832,1.5832,1.5825,1.5832,1.6204,1.7505,1.7777,1.8503,2.0935,2.1293,2.1756,2.295,2.3135,2.3135,2.3135,2.3135,2.3135,2.3222,2.42,2.4851,2.4851,2.5327,2.5608,2.5688,2.6209,2.6574,2.6574,2.8075,2.89,2.89,2.9453,2.9741,2.9741,2.9754,2.9767,2.9767,2.9779,2.9792,0.6169,0.6576,0.6976,0.7234,0.7482,0.7716,0.7916,0.7963,0.7977,0.8028,0.796,0.7889,0.7889,0.7889,0.7889,0.7889,0.7974,0.8038,0.8038,0.8038,0.8038,0.8038,0.8038,0.8038,0.8038,0.8038,0.8038,0.8038,0.8038,0.8038,0.8038,0.8038,0.8038,0.8038,0.8038,0.8038,0.8038,0.8432,0.9118,0.9998,1.1263,1.1945,1.195,1.2334,1.3301,1.4555,1.4555,1.5045,1.5832,1.5832,1.5832,1.5832,1.5832,1.5832,1.5832,1.5832,1.5832,1.5832,1.5832,1.5832,1.5832,1.5832,1.5832,1.5832,1.5832,1.5832,1.5832,1.5832,1.5832,1.5832,1.5832,1.5832,1.5832,1.5832,1.5832,1.5832,1.5832,1.5832,1.592,1.6386,1.648,1.721,1.967,2.0124,2.0764,2.2775,2.3135,2.3135,2.3135,2.3135,2.3135,2.3135,2.3474,2.3963,2.4713,2.4977,2.538,2.6132,2.6404,2.6474,2.6474,2.7672,2.8397,2.8397,2.9344,2.9792,2.9792,2.9792,2.9792,2.9792,2.9792,2.9792,0.6647,0.6997,0.7295,0.76,0.7784,0.7919,0.8018,0.8038,0.8024,0.797,0.7838,0.7719,0.7665,0.7607,0.7607,0.7719,0.7818,0.7919,0.8024,0.8038,0.8038,0.8038,0.8038,0.8038,0.8038,0.8038,0.8038,0.8038,0.8038,0.8038,0.8038,0.8038,0.8038,0.8038,0.8092,0.8096,0.8038,0.8096,0.8489,0.9316,1.0096,1.0774,1.1268,1.1268,1.194,1.3199,1.368,1.4364,1.5146,1.5635,1.5832,1.5832,1.5832,1.5832,1.5832,1.5832,1.5832,1.5832,1.5832,1.5832,1.5832,1.5832,1.5832,1.5832,1.5832,1.5832,1.5832,1.5832,1.5832,1.5832,1.5832,1.5832,1.5832,1.5832,1.5832,1.5832,1.5832,1.5832,1.5832,1.5832,1.5832,1.6473,1.8495,1.9579,2.0666,2.2217,2.2862,2.3135,2.3135,2.3135,2.3135,2.3135,2.3135,2.3387,2.4125,2.4211,2.4467,2.5221,2.5641,2.588,2.588,2.6953,2.7522,2.7522,2.8291,2.8633,2.8633,2.9028,2.9197,2.9197,2.9624,2.9792,0.6878,0.718,0.7475,0.7753,0.7933,0.8038,0.8038,0.8028,0.7974,0.7821,0.7662,0.7506,0.7346,0.7217,0.7234,0.7519,0.7597,0.7719,0.8001,0.8038,0.8038,0.0,0.8045,0.8052,0.8052,0.8058,0.8062,0.8062,0.8055,0.8052,0.8052,0.8058,0.8062,0.8062,0.8204,0.8211,0.8065,0.8201,0.8194,0.8038,0.8038,0.8627,0.9903,0.9903,1.0583,1.1848,1.3102,1.3782,1.3878,1.5146,1.573,1.573,1.5737,1.5832,1.5832,1.5832,1.5832,1.5832,1.5832,1.5832,1.5832,1.5832,1.5832,1.5832,1.5832,1.5832,1.5832,1.5832,1.5832,1.5832,1.5832,1.5832,1.5832,1.5832,1.5832,1.5832,1.5832,1.5832,1.5832,1.5832,1.5825,1.6292,1.7505,1.967,2.1203,2.1203,2.2217,2.296,2.3047,2.3135,2.3135,2.3135,2.3135,2.3135,2.3135,2.3135,2.3135,2.3135,2.4125,2.4702,2.4702,2.5808,2.6389,2.6389,2.6483,2.6483,2.6483,2.7602,2.8096,2.8096,2.9275,2.9792,0.7316,0.7645,0.7885,0.7963,0.8011,0.8038,0.8038,0.7868,0.7668,0.7516,0.7187,0.6851,0.6593,0.6871,0.7132,0.7102,0.7567,0.7953,0.8028,0.8038,0.0,0.8038,0.0,0.8211,0.8211,0.8306,0.8367,0.8367,0.8272,0.8211,0.8211,0.8313,0.8367,0.8367,0.8408,0.8411,0.8367,0.8303,0.8194,0.8038,0.8038,0.8137,0.8528,0.8528,0.9217,1.0485,1.0872,1.1556,1.2528,1.3878,1.4364,1.4459,1.5439,1.5832,1.5832,1.5832,1.5832,1.5832,1.5832,1.5832,1.5832,1.5832,1.5832,1.5832,1.5832,1.5832,1.5832,1.5832,1.5832,1.5832,1.5832,1.5832,1.5832,1.5832,1.5832,1.5832,1.5832,1.5832,1.5832,1.5832,1.6574,1.7318,1.7591,1.8956,1.9943,1.9943,2.0215,2.1042,2.2862,2.3135,2.3135,2.3135,2.3135,2.3135,2.3135,2.3135,2.3135,2.3135,2.3387,2.3551,2.3551,2.4628,2.521,2.521,2.6058,2.6483,2.6483,2.7602,2.8096,2.8096,2.9275,2.9792,0.7607,0.7862,0.8038,0.8038,0.8038,0.7987,0.779,0.7617,0.738,0.697,0.6685,0.6396,0.6034,0.6396,0.677,0.682,0.7346,0.7814,0.8011,0.8038,0.8065,0.0,0.8218,0.0,0.8357,0.8435,0.8482,0.8482,0.8408,0.8364,0.8364,0.8438,0.8482,0.8482,0.8547,0.8581,0.8581,0.8374,0.8225,0.814,0.8072,0.8038,0.8038,0.8038,0.8432,0.9118,0.9702,1.0386,1.1165,1.2522,1.3006,1.3108,1.4465,1.4949,1.5045,1.5629,1.5832,1.5832,1.5832,1.5832,1.5832,1.5832,1.5832,1.5832,1.5832,1.5832,1.5832,1.5832,1.5832,1.5832,1.5832,1.5832,1.5832,1.5832,1.5832,1.5832,1.5832,1.5832,1.5832,1.5832,1.6386,1.685,1.685,1.7863,1.868,1.868,1.9131,2.0215,2.2041,2.2306,2.2492,2.3047,2.3135,2.3135,2.3135,2.3135,2.3135,2.3135,2.3135,2.3135,2.3135,2.3714,2.4049,2.4049,2.4723,2.4978,2.4978,2.6119,2.6685,2.6685,2.7787,2.8621,0.7801,0.7936,0.8038,0.8038,0.8024,0.7896,0.7468,0.7309,0.7051,0.6346,0.6152,0.5979,0.5549,0.5871,0.6298,0.6593,0.0,0.7529,0.7977,0.8038,0.8096,0.8252,0.8286,0.8353,0.8499,0.853,0.8543,0.8543,0.8543,0.8533,0.8513,0.853,0.8543,0.8543,0.8672,0.873,0.871,0.8435,0.8289,0.8269,0.8113,0.8038,0.8038,0.8038,0.8038,0.8038,0.9217,0.9706,0.9801,1.1165,1.1658,1.175,1.3102,1.3782,1.407,1.514,1.5635,1.5832,1.5832,1.5832,1.5832,1.5832,1.5832,1.5832,1.5832,1.5832,1.5832,1.5832,1.5832,1.5832,1.5832,1.5832,1.5832,1.5832,1.5832,1.5832,1.5832,1.5832,1.5832,1.5832,1.5832,1.5832,1.5832,1.6756,1.7412,1.7412,1.8311,1.9488,2.0666,2.1114,2.1756,2.296,2.3135,2.3135,2.3135,2.3135,2.3135,2.3135,2.3135,2.3135,2.3135,2.3135,2.3135,2.3135,2.3135,2.3135,2.3135,2.4211,2.4787,2.4872,2.5964,2.6964,0.796,0.8018,0.8038,0.8038,0.7943,0.7767,0.7444,0.6987,0.6485,0.5986,0.5586,0.5226,0.4904,0.5413,0.5983,0.6288,0.6919,0.7529,0.7977,0.8038,0.8096,0.0,0.8374,0.8506,0.8655,0.8784,0.8859,0.8859,0.8859,0.8804,0.8676,0.8791,0.8859,0.8859,0.8886,0.8838,0.8713,0.8533,0.8387,0.8269,0.8113,0.8038,0.8038,0.8038,0.8038,0.8038,0.8237,0.8333,0.8432,0.9801,1.0288,1.0485,1.175,1.2909,1.3974,1.4166,1.4854,1.5832,1.5832,1.5832,1.5832,1.5832,1.5832,1.5832,1.5832,1.5832,1.5832,1.5832,1.5832,1.5832,1.5832,1.5832,1.5832,1.5832,1.5832,1.5832,1.5832,1.5832,1.5832,1.5832,1.5832,1.5832,1.5832,1.6015,1.6109,1.6109,1.6292,1.6936,1.8133,2.0034,2.1756,2.296,2.3135,2.3135,2.3135,2.3135,2.3135,2.3135,2.3135,2.3135,2.3135,2.3135,2.3135,2.3135,2.3135,2.3135,2.3135,2.4211,2.4787,2.4872,2.5964,2.6565,0.7997,0.8038,0.8038,0.8038,0.7868,0.756,0.7024,0.6559,0.6047,0.5365,0.5114,0.4928,0.4626,0.5118,0.5671,0.5973,0.6458,0.7031,0.7712,0.7743,0.7862,0.8326,0.8442,0.8574,0.8808,0.8896,0.894,0.894,0.894,0.8906,0.8832,0.8899,0.894,0.894,0.894,0.8903,0.8828,0.8598,0.8448,0.8377,0.815,0.8038,0.8038,0.8038,0.8038,0.8038,0.8038,0.8038,0.8038,0.8726,0.892,0.9118,1.0386,1.1263,1.2037,1.3392,1.4268,1.4949,1.5534,1.5832,1.5832,1.5832,1.5832,1.5832,1.5832,1.5832,1.5832,1.5832,1.5832,1.5832,1.5832,1.5832,1.5832,1.5832,1.5832,1.5832,1.5832,1.5832,1.5832,1.5832,1.5832,1.5832,1.5832,1.5832,1.5832,1.5832,1.5832,1.6298,1.7505,1.868,1.9861,2.1132,2.1765,2.2129,2.2129,2.2765,2.3135,2.3135,2.3135,2.3135,2.3135,2.3135,2.3135,2.3135,2.3135,2.3135,2.3135,2.3627,2.3877,2.3963,2.4478,2.5052,0.796,0.8014,0.8038,0.8038,0.7794,0.7363,0.6637,0.6193,0.5698,0.4863,0.4762,0.4748,0.4563,0.4937,0.5335,0.5698,0.604,0.6563,0.7428,0.7502,0.7719,0.8401,0.8482,0.8601,0.891,0.894,0.894,0.894,0.894,0.894,0.894,0.894,0.894,0.894,0.894,0.8923,0.8889,0.8618,0.8465,0.8431,0.8167,0.8038,0.8038,0.8038,0.8038,0.8038,0.8038,0.8038,0.8038,0.8038,0.8038,0.8137,0.9118,0.9702,1.0293,1.2328,1.3199,1.359,1.4663,1.4956,1.5051,1.5343,1.554,1.5832,1.5832,1.5832,1.5832,1.5832,1.5832,1.5832,1.5832,1.5832,1.5832,1.5832,1.5832,1.5832,1.5832,1.5832,1.5832,1.5832,1.5832,1.5832,1.5832,1.5832,1.5832,1.5832,1.5832,1.6204,1.7131,1.7318,1.7677,1.858,2.0025,2.0935,2.0935,2.1765,2.2315,2.2315,2.2315,2.2315,2.2315,2.2315,2.2403,2.2677,2.2677,2.2862,2.3135,2.3135,2.3135,2.3135,2.3135,2.3551,0.7828,0.7933,0.8038,0.8038,0.7712,0.7231,0.6614,0.6037,0.5454,0.4819,0.4592,0.4553,0.4522,0.4619,0.4942,0.5515,0.5976,0.6525,0.7285,0.7611,0.7946,0.8425,0.8482,0.8601,0.891,0.894,0.894,0.894,0.894,0.894,0.894,0.894,0.894,0.894,0.894,0.8872,0.8733,0.8567,0.8418,0.8289,0.8119,0.8038,0.8038,0.8038,0.8038,0.8038,0.8038,0.8038,0.8038,0.8038,0.8038,0.8038,0.8137,0.892,0.9998,1.0288,1.1068,1.2139,1.2237,1.2237,1.2431,1.3686,1.4854,1.5832,1.5832,1.5832,1.5832,1.5832,1.5832,1.5832,1.5832,1.5832,1.5832,1.5832,1.5832,1.5832,1.5832,1.5832,1.5832,1.5832,1.5832,1.5832,1.5832,1.5832,1.5832,1.5832,1.5832,1.5825,1.592,1.6015,1.6015,1.6103,1.8303,1.9679,1.9679,1.9761,1.9852,1.9852,1.9852,1.9852,1.9852,1.9852,2.0305,2.148,2.148,2.2031,2.3135,2.3135,2.3135,2.3135,2.3135,2.3135,0.7736,0.7923,0.8018,0.7926,0.7563,0.7051,0.6363,0.5817,0.5281,0.4677,0.456,0.4519,0.4519,0.4567,0.4721,0.523,0.5393,0.582,0.6763,0.697,0.7337,0.8108,0.8214,0.8391,0.8815,0.8927,0.887,0.887,0.887,0.887,0.887,0.8954,0.894,0.894,0.8849,0.8771,0.871,0.8476,0.8326,0.8269,0.8113,0.8038,0.8038,0.8038,0.8038,0.8038,0.8038,0.8038,0.8038,0.8038,0.8038,0.8038,0.8038,0.8333,0.8924,0.9702,1.0293,1.0877,1.1653,1.1945,1.1945,1.2522,1.3011,1.3788,1.5343,1.5832,1.5832,1.5832,1.5832,1.5832,1.5832,1.5832,1.5832,1.5832,1.5832,1.5832,1.5832,1.5832,1.5832,1.5832,1.5832,1.5832,1.5832,1.5832,1.5832,1.5832,1.5832,1.5832,1.5832,1.5832,1.5832,1.5832,1.7397,1.8411,1.8411,1.9039,1.9497,1.9497,1.9497,1.9497,1.9497,1.9497,1.9761,2.0215,2.0215,2.0845,2.2031,2.2031,2.2403,2.3135,2.3135,2.3135,0.7609,0.7763,0.7882,0.7777,0.7377,0.6837,0.6179,0.5647,0.5135,0.4632,0.4519,0.4519,0.4519,0.4519,0.4596,0.5003,0.5057,0.5418,0.6451,0.6579,0.6973,0.7914,0.731,0.6987,0.7579,0.7651,0.7636,0.7636,0.7636,0.7636,0.7636,0.761,0.8048,0.8846,0.8801,0.8699,0.8665,0.8401,0.8252,0.8211,0.8096,0.8038,0.8038,0.8038,0.8038,0.8038,0.8038,0.8038,0.8038,0.8038,0.8038,0.8038,0.8038,0.8038,0.8137,0.9019,0.941,0.9509,1.0485,1.0779,1.0779,1.1165,1.1365,1.175,1.398,1.4949,1.5242,1.5242,1.5534,1.5832,1.5832,1.5832,1.5832,1.5832,1.5832,1.5832,1.5832,1.5832,1.5832,1.5832,1.5832,1.5832,1.5832,1.5832,1.5832,1.5832,1.5832,1.5832,1.5832,1.5832,1.5832,1.5832,1.6574,1.7131,1.7131,1.7948,1.8395,1.8395,1.8395,1.8395,1.8395,1.8395,1.858,1.8956,1.8956,1.9579,2.0755,2.0755,2.1391,2.2589,2.2589,2.2765,0.7369,0.7485,0.7604,0.76,0.7149,0.6586,0.6132,0.5566,0.5006,0.4555,0.4519,0.4519,0.4519,0.4519,0.4562,0.487,0.5165,0.5686,0.6366,0.6656,0.7074,0.7873,0.5666,0.4179,0.4548,0.4493,0.4583,0.4583,0.4583,0.4583,0.4583,0.4583,0.5935,0.8782,0.8726,0.8572,0.8554,0.8364,0.8204,0.7975,0.7952,0.8038,0.8038,0.8038,0.8038,0.8038,0.8038,0.8038,0.8038,0.8038,0.8038,0.8038,0.8038,0.8038,0.8038,0.8041,0.8038,0.8038,0.8038,0.8038,0.8233,0.9608,0.9998,1.0293,1.1556,1.2909,1.3872,1.3872,1.4854,1.5832,1.5832,1.5832,1.5832,1.5832,1.5832,1.5832,1.5832,1.5832,1.5832,1.5832,1.5832,1.5832,1.5832,1.5832,1.5832,1.5832,1.5832,1.5832,1.5832,1.5832,1.5832,1.5832,1.5832,1.5825,1.5825,1.5832,1.5825,1.5825,1.5825,1.5825,1.5825,1.5825,1.6386,1.7684,1.7692,1.8319,1.9497,1.9497,2.0124,2.1293,2.1293,2.1943,0.6606,0.7394,0.759,0.7616,0.7474,0.7143,0.6352,0.5763,0.5154,0.4635,0.4487,0.4487,0.4487,0.4487,0.451,0.4629,0.4854,0.5185,0.5701,0.6175,0.6659,0.7329,0.3791,0.1273,0.1427,0.1446,0.1456,0.1456,0.3363,0.4468,0.4529,0.4527,0.4964,0.5834,0.5838,0.6701,0.8505,0.6455,0.6274,0.7985,0.7979,0.7975,0.7975,0.7975,0.7969,0.7962,0.7962,0.7952,0.8038,0.8038,0.8038,0.8038,0.8038,0.8038,0.8038,0.8038,0.8038,0.8038,0.8038,0.8038,0.8038,0.8531,0.8627,0.8726,0.9118,1.0774,1.2716,1.368,1.4166,1.4657,1.5534,1.5832,1.5832,1.5832,1.5832,1.5832,1.5832,1.5832,1.5832,1.5832,1.5832,1.5832,1.5832,1.5832,1.5832,1.5832,1.5832,1.5832,1.5832,1.5832,1.5832,1.5832,1.5832,1.5832,1.5832,1.5832,1.5832,1.5832,1.5832,1.5832,1.5832,1.5832,1.6015,1.6386,1.6386,1.703,1.8234,1.8234,1.9314,2.1293,2.1293,2.1943,0.3905,0.5228,0.6053,0.6101,0.612,0.592,0.5401,0.4822,0.4218,0.3753,0.3641,0.3641,0.3641,0.3641,0.3619,0.361,0.3775,0.3977,0.4325,0.5278,0.5622,0.4551,0.1798,0.0,0.0,0.0,0.0,0.0,0.1772,0.2762,0.2825,0.2822,0.2809,0.2781,0.2854,0.3556,0.5292,0.4467,0.4321,0.5035,0.6044,0.645,0.645,0.645,0.6448,0.6545,0.7563,0.7965,0.0,0.8041,0.8038,0.8038,0.8038,0.8038,0.8038,0.8038,0.8038,0.8038,0.8038,0.8038,0.8038,0.8038,0.8038,0.8038,0.8038,0.9509,1.1458,1.2813,1.3108,1.3301,1.4076,1.437,1.437,1.437,1.437,1.4465,1.4949,1.5045,1.5242,1.573,1.5832,1.5832,1.5832,1.5832,1.5832,1.5832,1.5832,1.5832,1.5832,1.5832,1.5635,1.5146,1.5534,1.5635,1.5146,1.5534,1.5832,1.5832,1.5832,1.5832,1.5832,1.5832,1.5832,1.5832,1.5832,1.6204,1.6943,1.7505,1.8503,1.9943,2.0395,2.1033,0.0,0.161,0.3359,0.3353,0.3374,0.3366,0.3332,0.2932,0.0,0.2135,0.2063,0.2066,0.2021,0.2018,0.2067,0.2037,0.2049,0.2141,0.2479,0.3936,0.3811,0.039,0.0,0.0,0.0,0.0,0.0,0.0,0.0,0.0,0.0,0.0,0.0,0.0,0.0,0.0,0.0,0.2435,0.2511,0.0,0.2511,0.3715,0.3715,0.3715,0.3715,0.3815,0.6342,0.7666,0.7972,0.7952,0.8041,0.8038,0.8038,0.8038,0.8038,0.8038,0.8038,0.8038,0.8038,0.8038,0.8038,0.8038,0.8038,0.8038,0.8038,0.8821,1.0096,1.1365,1.1755,1.175,1.1853,1.1945,1.1945,1.2042,1.2042,1.2431,1.3782,1.3968,1.4268,1.5439,1.5635,1.554,1.5635,1.5635,1.5635,1.5635,1.5635,1.5635,1.5534,1.5635,1.5146,1.3878,1.4854,1.5146,1.3878,1.5045,1.573,1.5635,1.5635,1.5635,1.554,1.554,1.554,1.554,1.554,1.5534,1.5635,1.685,1.7498,1.7692,1.8864,1.9405,0.0,0.0,0.0864,0.0843,0.0845,0.0844,0.0,0.0759,0.0641,0.0507,0.0,0.0512,0.0538,0.0532,0.049,0.0495,0.0517,0.0547,0.0606,0.101,0.0968,0.0102,0.0,0.0,0.0,0.0,0.0,0.0,0.0,0.0,0.0,0.0,0.0,0.0,0.0,0.0,0.0,0.0607,0.0605,0.0,0.0605,0.0907,0.0907,0.0907,0.0906,0.1005,0.1608,0.4221,0.7972,0.7969,0.7955,0.8038,0.8038,0.8038,0.8038,0.8038,0.8038,0.8038,0.8038,0.8038,0.8038,0.8038,0.8038,0.8038,0.8038,0.8233,0.8726,1.0096,1.0485,1.0681,1.1658,1.1945,1.2139,1.3199,1.3392,1.3782,1.5045,1.4561,1.3974,1.4268,1.3494,1.3108,1.4172,1.4364,1.4364,1.4364,1.4364,1.3974,1.2915,1.3686,1.3878,1.2528,1.359,1.3782,1.2528,1.4465,1.5343,1.4364,1.4364,1.3878,1.2818,1.2818,1.2818,1.2818,1.2818,1.3301,1.4364,1.4644,1.5778,1.7692,1.7956,1.8588,0.0,0.0,0.0,0.0,0.0,0.0,0.0,0.0,0.0,0.0,0.0,0.0,0.0,0.0,0.0,0.0,0.0,0.0,0.0,0.0,0.0,0.0,0.0,0.0,0.0,0.0,0.0,0.0,0.0,0.0,0.0,0.0,0.0,0.0,0.0,0.0,0.0,0.0,0.0,0.0,0.0,0.0,0.0,0.0,0.0,0.0,0.0,0.1608,0.4524,0.6954,0.7965,0.7955,0.8041,0.8038,0.8038,0.8038,0.8038,0.8038,0.8038,0.8038,0.8038,0.8038,0.8038,0.8038,0.8038,0.8038,0.8137,0.8924,0.9118,0.9217,0.9899,1.0092,1.0284,1.1063,1.1156,1.1546,1.2813,1.2619,1.2328,1.2909,1.2431,1.2139,1.2813,1.3011,1.3011,1.3011,1.3011,1.2716,1.1945,1.2528,1.2522,1.1165,1.2231,1.2425,1.117,1.2818,1.3692,1.3006,1.3011,1.2619,1.1945,1.1945,1.1945,1.1945,1.1945,1.2237,1.3011,1.3011,1.3962,1.5974,1.5974,1.6626,0.0,0.0,0.0,0.0,0.0,0.0,0.0,0.0,0.0,0.0,0.0,0.0,0.0,0.0,0.0,0.0,0.0,0.0,0.0,0.0,0.0,0.0,0.0,0.0,0.0,0.0,0.0,0.0,0.0,0.0,0.0,0.0,0.0,0.0,0.0,0.0,0.0,0.0,0.0,0.0,0.0,0.0,0.0,0.0,0.0,0.0,0.0,0.0,0.0402,0.4926,0.726,0.7972,0.7955,0.8048,0.8045,0.8045,0.8045,0.8045,0.8041,0.8038,0.8038,0.8038,0.8038,0.8038,0.8038,0.8038,0.8038,0.8038,0.8038,0.8038,0.8038,0.8038,0.8038,0.8237,0.8333,0.8627,0.9998,1.0096,1.0293,1.1361,1.1458,1.1365,1.156,1.1658,1.1658,1.1658,1.1658,1.1556,1.1361,1.1458,1.1165,0.9801,1.0877,1.1068,0.9805,1.0681,1.1263,1.1263,1.1458,1.1556,1.1263,1.1263,1.1263,1.1263,1.1263,1.1365,1.1658,1.1658,1.2328,1.3584,1.3584,1.4172,0.0,0.0,0.0,0.0,0.0,0.0,0.0,0.0,0.0,0.0,0.0,0.0,0.0,0.0,0.0,0.0,0.0,0.0,0.0,0.0,0.0,0.0,0.0,0.0,0.0,0.0,0.0,0.0,0.0,0.0,0.0,0.0,0.0,0.0,0.0,0.0,0.0,0.0,0.0,0.0,0.0,0.0,0.0,0.0,0.0,0.0,0.0,0.0,0.0101,0.0905,0.3922,0.7985,0.7982,0.7982,0.7982,0.7972,0.7969,0.7965,0.8045,0.8038,0.8038,0.8038,0.8038,0.8038,0.8038,0.8038,0.8038,0.8038,0.8038,0.8038,0.8038,0.8038,0.8333,0.941,0.9706,0.9998,1.1361,1.0779,1.0096,1.0293,0.941,0.892,1.0096,1.0288,1.0288,1.0288,1.0288,0.9899,0.8726,0.9608,0.9801,0.8432,0.9509,0.9702,0.8432,0.8531,0.8627,0.8627,0.9706,0.9801,0.8627,0.8627,0.8627,0.8627,0.8627,0.9118,1.0288,1.0288,1.0974,1.2237,1.2237,1.2334,0.0,0.0,0.0,0.0,0.0,0.0,0.0,0.0,0.0,0.0,0.0,0.0,0.0,0.0,0.0,0.0,0.0,0.0,0.0,0.0,0.0,0.0,0.0,0.0,0.0,0.0,0.0,0.0,0.0,0.0,0.0,0.0,0.0,0.0,0.0,0.0,0.0,0.0,0.0,0.0,0.0,0.0,0.0,0.0,0.0,0.0,0.0,0.0,0.0,0.0,0.2313,0.5851,0.5844,0.5839,0.6042,0.7469,0.7979,0.7972,0.7962,0.8048,0.8038,0.8038,0.8038,0.8038,0.8038,0.8038,0.8038,0.8038,0.8038,0.8038,0.8038,0.8038,0.8137,0.8726,0.892,0.9118,0.9702,0.9312,0.892,0.892,0.8432,0.8237,0.8825,0.892,0.892,0.892,0.892,0.8726,0.8038,0.8531,0.8726,0.8038,0.8528,0.8627,0.8038,0.8038,0.8038,0.8038,0.8531,0.8627,0.8038,0.8038,0.8038,0.8038,0.8038,0.8333,0.892,0.892,0.9608,1.0877,1.0877,1.1263,0.0,0.0,0.0,0.0,0.0,-0.0271,-0.1427,-0.1683,0.0,0.0,0.0,0.0,0.0,-0.1022,-0.1441,-0.0188,0.0,0.0,0.0,0.0,0.0,0.0,0.0,0.0,0.0,0.0,0.0,0.0,0.0,0.0,0.0,0.0,0.0,0.0,0.0,0.0,0.0,0.0,0.0,0.0,0.0,0.0,0.0,0.0,0.0,0.0,0.0,0.0,0.0,0.0,0.1209,0.3025,0.3017,0.3013,0.3314,0.5338,0.655,0.7153,0.7772,0.7965,0.8048,0.8048,0.8045,0.8038,0.8038,0.8038,0.8038,0.8038,0.8038,0.8038,0.8038,0.8038,0.8038,0.8038,0.8038,0.8038,0.8038,0.8038,0.8038,0.8038,0.8038,0.8038,0.8038,0.8038,0.8038,0.8038,0.8038,0.8038,0.8038,0.8038,0.8038,0.8038,0.8038,0.8038,0.8038,0.8038,0.8038,0.8038,0.8038,0.8038,0.8038,0.8038,0.8038,0.8038,0.8038,0.8038,0.8038,0.8038,0.8531,0.9509,0.9509,1.0096,0.0,0.0,0.0,0.0,0.0,0.0,-0.5576,-0.6589,0.0,-0.4115,0.0,0.0,0.0,-0.4072,-0.575,-0.0854,0.0,0.0,0.0,0.0,0.0,0.0,0.0,0.0,0.0,0.0,0.0,0.0,0.0,0.0,0.0,0.0,0.0,0.0,0.0,0.0,0.0,0.0,0.0,0.0,0.0,0.0,0.0,0.0,0.0,0.0,0.0,0.0,0.0,0.0,0.0101,0.0303,0.0303,0.0302,0.0302,0.0503,0.2109,0.4622,0.7166,0.7982,0.7972,0.7972,0.7955,0.8038,0.8038,0.8038,0.8038,0.8038,0.8038,0.8038,0.8038,0.8038,0.8038,0.8038,0.8038,0.8038,0.8038,0.8038,0.8038,0.8038,0.8038,0.8038,0.8038,0.8038,0.8038,0.8038,0.8038,0.8038,0.8038,0.8038,0.8038,0.8038,0.8038,0.8038,0.8038,0.8038,0.8038,0.8038,0.8038,0.8038,0.8038,0.8038,0.8038,0.8038,0.8038,0.8038,0.8038,0.8038,0.8038,0.8137,0.8137,0.8237,-0.2309,-0.3325,-0.3574,-0.2079,-0.1796,0.0,0.0,-0.7354,-0.7331,-0.6144,-0.6114,0.0,0.0,0.0,-0.3416,-0.4753,-0.2183,-0.121,-0.4549,-0.4956,-0.4342,-0.2716,-0.2514,-0.2514,-0.2514,-0.2514,-0.2514,-0.2514,-0.2514,-0.2514,-0.2514,-0.2514,-0.171,-0.0101,0.0,0.0,0.0,0.0,0.0,0.0,0.0,0.0,0.0,0.0,0.0,0.0,0.0,0.0,0.0,0.0,0.0,0.0,0.0,0.0,0.0,0.0,0.0604,0.1708,0.2714,0.4121,0.5834,0.7459,0.7969,0.7959,0.8045,0.8038,0.8038,0.8038,0.8038,0.8038,0.8038,0.8038,0.8038,0.8038,0.8038,0.8038,0.8038,0.8038,0.8041,0.7959,0.7959,0.7962,0.7969,0.7965,0.7959,0.7959,0.8048,0.8038,0.8038,0.7952,0.7959,0.7959,0.7965,0.7972,0.7972,0.7972,0.7972,0.7972,0.7965,0.7955,0.8038,0.7959,0.7962,0.8038,0.7959,0.7962,0.8038,0.7952,0.7952,0.8038,0.8038,0.8038,-0.3953,-0.5125,-0.5418,-0.4173,0.0,0.0,-0.6587,-0.7398,-0.7589,-0.7281,-0.7635,-0.7265,-0.5198,0.0,-0.3349,-0.6282,-0.3887,-0.2922,-0.6266,-0.7497,-0.7287,-0.5434,-0.5229,-0.5229,-0.5229,-0.5229,-0.5229,-0.5229,-0.5229,-0.5229,-0.5229,-0.5229,-0.4423,-0.2613,-0.1708,-0.1307,-0.131,-0.131,-0.131,-0.131,-0.131,-0.0807,0.0,0.0,0.0,0.0,0.0,0.0,0.0,0.0,0.0,0.0,0.0,0.0,0.0,0.0,0.0,0.0,0.0,0.1207,0.3012,0.4926,0.6651,0.7975,0.7959,0.7955,0.7955,0.7955,0.7955,0.7955,0.7955,0.8048,0.8038,0.8038,0.8045,0.8048,0.8048,0.7952,0.7959,0.7975,0.7359,0.6751,0.6756,0.6751,0.7054,0.7875,0.7965,0.7955,0.7955,0.7969,0.7669,0.6848,0.6753,0.6756,0.6756,0.6756,0.6756,0.6756,0.7578,0.7669,0.6728,0.7566,0.7569,0.6728,0.7566,0.7566,0.6728,0.7559,0.7969,0.8048,0.8048,0.8045,-0.4496,-0.4492,-0.4776,0.0,0.0,0.0,-0.6699,-0.6964,-0.7221,-0.7543,-0.7614,-0.7621,-0.7426,-0.7523,-0.6896,-0.4388,-0.4862,-0.5118,-0.4216,-0.6348,-0.7992,-0.7992,-0.7992,-0.7992,-0.7992,-0.7992,-0.7992,-0.7992,-0.7992,-0.7992,-0.7992,-0.7992,-0.7992,-0.7992,-0.5432,-0.4016,-0.4016,-0.4016,-0.4016,-0.4016,-0.4016,-0.2614,0.0,0.0,0.0,0.0,0.0,0.0,0.0,0.0,0.0,0.0,0.0,0.0,0.0,0.0,0.0,0.0,0.0,0.0,0.0,0.0,0.3621,0.7889,0.7989,0.7989,0.7989,0.7989,0.7989,0.7989,0.7989,0.7965,0.7939,0.8038,0.7955,0.7972,0.7972,0.7982,0.7989,0.7989,0.5839,0.4016,0.4016,0.3915,0.4824,0.7578,0.7989,0.7989,0.7989,0.7992,0.6962,0.4218,0.3915,0.3915,0.3915,0.3915,0.4016,0.4016,0.6469,0.6779,0.4117,0.6553,0.6656,0.4016,0.6553,0.6653,0.4016,0.6656,0.7982,0.7972,0.7972,0.7962,-0.4039,-0.4714,0.0,-0.5552,0.0,0.0,0.0,-0.7204,0.0,0.0,-0.7741,-0.7677,-0.7657,-0.7667,-0.7498,-0.6751,-0.6973,-0.716,-0.6851,-0.7466,-0.7972,-0.7955,-0.7955,-0.7955,-0.7955,-0.7955,-0.7955,-0.7955,-0.7955,-0.7955,-0.7955,-0.7955,-0.7962,-0.7979,-0.7256,-0.6851,-0.6859,-0.6859,-0.6859,-0.6859,-0.6859,-0.4429,0.0,0.0,0.0,0.0,0.0,0.0,0.0,0.0,0.0,0.0,0.0,0.0,0.0,0.0,0.0,0.0,0.0,0.0,0.0,0.0,0.1106,0.2714,0.4624,0.5229,0.5229,0.5229,0.5229,0.5229,0.5229,0.5225,0.5625,0.7563,0.7979,0.7472,0.5632,0.5229,0.5741,0.7598,0.7394,0.5655,0.1814,0.1207,0.2111,0.4738,0.5236,0.5844,0.7805,0.8016,0.6271,0.1713,0.1209,0.1209,0.1209,0.1209,0.2017,0.3838,0.6497,0.6793,0.4117,0.2919,0.2919,0.4016,0.292,0.292,0.4016,0.2913,0.3316,0.5227,0.7163,0.7982,-0.4182,-0.4791,0.0,-0.55,-0.5901,-0.6424,-0.7054,0.0,0.0,0.0,-0.7828,-0.7748,-0.7892,-0.7764,-0.7751,-0.7811,-0.7905,-0.7969,-0.7962,-0.7959,-0.7955,-0.8041,-0.8038,-0.8038,-0.8038,-0.8038,-0.8038,-0.8038,-0.8038,-0.8038,-0.8038,-0.8038,-0.8045,-0.7959,-0.7959,-0.7962,-0.7969,-0.7969,-0.7969,-0.7969,-0.7969,-0.6342,-0.3115,-0.2109,-0.1609,-0.1611,-0.1611,-0.2218,-0.3131,-0.2016,-0.1007,0.0,0.0,0.0,0.0,0.0,0.0,0.0,0.0,0.0,0.0,0.0,0.0,0.0302,0.1911,0.2414,0.2414,0.2414,0.3221,0.4029,0.4029,0.4029,0.4433,0.6047,0.7275,0.7591,0.5952,0.3925,0.2919,0.4547,0.4853,0.384,0.0606,0.0,0.0504,0.2218,0.2416,0.3021,0.4649,0.4853,0.3536,0.0303,0.0,0.0,0.0,0.0,0.0707,0.2326,0.3949,0.4145,0.2515,0.0907,0.0807,0.2413,0.0807,0.0807,0.2413,0.0805,0.0805,0.241,0.4022,0.5438,-0.4664,-0.4814,-0.5081,-0.5674,-0.6095,0.0,-0.7394,-0.7689,-0.7838,-0.8007,0.0,-0.7875,-0.8014,-0.7926,-0.7879,-0.8018,-0.8038,-0.8038,-0.8038,-0.8038,-0.8038,-0.8038,-0.8038,-0.8038,-0.8038,-0.8038,-0.8038,-0.8038,-0.8038,-0.8038,-0.8038,-0.8038,-0.8038,-0.8038,-0.8038,-0.8038,-0.8038,-0.8038,-0.8038,-0.8038,-0.8038,-0.8048,-0.7869,-0.5429,-0.4318,-0.432,-0.4116,-0.5543,-0.7811,-0.5338,-0.2912,-0.0704,-0.0503,-0.0201,0.0,0.0,0.0,0.0,0.0,0.0,0.0,0.0,0.0,0.0,0.0,0.0,0.0,0.0,0.1718,0.3644,0.3644,0.3644,0.3639,0.362,0.5448,0.7305,0.7305,0.3435,0.0,0.0,0.0,-0.0202,-0.0606,-0.0707,-0.0606,-0.0404,-0.0202,-0.0101,-0.0303,-0.0606,-0.0505,-0.0101,-0.0202,-0.0303,-0.0,0.0,0.0,0.0,0.0,0.0,0.0,0.0,0.0,0.0,0.0,0.0,0.0,0.0,0.0,0.0,0.0,0.1307,-0.4284,-0.4684,0.0,0.0,-0.6563,-0.7183,-0.7377,-0.7536,-0.7719,-0.7984,-0.8014,-0.8001,-0.8035,-0.8014,-0.8001,-0.8035,-0.8038,-0.8038,-0.8038,-0.8038,-0.8038,-0.8038,-0.8038,-0.8038,-0.8038,-0.8038,-0.8038,-0.8038,-0.8038,-0.8038,-0.8038,-0.8038,-0.8038,-0.8038,-0.8038,-0.8038,-0.8038,-0.8038,-0.8038,-0.8038,-0.8038,-0.8041,-0.7949,-0.7453,-0.716,-0.7062,-0.4926,-0.5536,-0.7995,-0.7375,-0.6762,-0.605,-0.3919,-0.1808,0.0,0.0,0.0,0.0,0.0,0.0,0.0,0.0,0.0,0.0,0.0,0.0,0.0,0.0,0.0404,0.0909,0.0909,0.0909,0.0909,0.0908,0.1312,0.1716,0.1716,0.0808,0.0,0.0,0.0,-0.1314,-0.5583,-0.629,-0.556,-0.3419,-0.1307,-0.0805,-0.2914,-0.4945,-0.4645,-0.0403,-0.191,-0.2314,-0.0202,0.0,0.0,0.0,0.0,0.0,0.0,0.0,0.0,0.0,0.0,0.0,0.0,0.0,0.0,0.0,0.0,0.0303,-0.4402,0.0,0.0,-0.6162,0.0,-0.7197,-0.7339,-0.7434,-0.7553,-0.7784,-0.7882,-0.7953,-0.8024,-0.8038,-0.8038,-0.8038,-0.8038,-0.8038,-0.8038,-0.8038,-0.8038,-0.8038,-0.8038,-0.8038,-0.8038,-0.8038,-0.8038,-0.8038,-0.8038,-0.8038,-0.8038,-0.8038,-0.8038,-0.8038,-0.8038,-0.8038,-0.8038,-0.8038,-0.8038,-0.8038,-0.8038,-0.8038,-0.8038,-0.7952,-0.7965,-0.7879,-0.6537,-0.6739,-0.7982,-0.7969,-0.7972,-0.7879,-0.6445,-0.5029,-0.3521,-0.0905,0.0,0.0,0.0,0.0,0.0,0.0,0.0,0.0,0.0,0.0,0.0,0.0,0.0,0.0,0.0,0.0,0.0,0.0,0.0,-0.0707,-0.3232,-0.384,-0.3433,-0.2115,-0.1913,-0.282,-0.556,-0.719,-0.7491,-0.6145,-0.473,-0.3822,-0.4016,-0.6356,-0.6977,-0.4126,-0.3919,-0.392,-0.383,-0.2614,-0.1909,-0.1912,-0.1913,-0.1913,-0.1913,-0.1913,-0.131,-0.0,0.0,0.0,0.0,0.0,0.0,0.0,0.0,0.0,-0.446,0.0,-0.5596,-0.642,-0.6776,0.0,-0.7238,-0.7316,-0.7373,-0.7529,-0.7675,-0.7821,-0.7974,-0.8001,-0.8007,-0.8035,-0.8038,-0.8038,-0.8038,-0.8038,-0.8038,-0.8038,-0.8038,-0.8038,-0.8038,-0.8038,-0.8038,-0.8038,-0.8038,-0.8038,-0.8038,-0.8038,-0.8038,-0.8038,-0.8038,-0.8038,-0.8038,-0.8038,-0.8038,-0.8038,-0.8038,-0.8038,-0.8038,-0.8038,-0.8048,-0.7965,-0.8048,-0.8048,-0.7965,-0.8048,-0.7952,-0.7969,-0.7969,-0.7975,-0.7475,-0.3016,-0.1106,-0.0704,-0.0705,-0.0404,0.0,0.0,0.0,-0.0202,-0.1111,-0.1414,-0.1312,-0.0807,-0.0706,-0.0706,-0.0706,-0.0706,-0.0706,-0.0706,-0.0706,-0.2017,-0.6894,-0.8022,-0.7394,-0.5131,-0.4722,-0.4722,-0.472,-0.655,-0.7985,-0.7982,-0.7985,-0.7163,-0.502,-0.6651,-0.7985,-0.7985,-0.6037,-0.5629,-0.7785,-0.5939,-0.4722,-0.4722,-0.4722,-0.4722,-0.4722,-0.4722,-0.3621,-0.1412,-0.0908,-0.0706,-0.0706,-0.0706,-0.0706,-0.0706,-0.0706,-0.0706,-0.4022,0.0,-0.5681,0.0,-0.6627,-0.6939,0.0,0.0,-0.7214,-0.737,-0.7522,-0.7672,-0.7814,-0.7841,-0.7885,-0.8018,-0.8038,-0.8038,-0.8038,-0.8038,-0.8038,-0.8038,-0.8038,-0.8038,-0.8038,-0.8038,-0.8038,-0.8038,-0.8038,-0.8038,-0.8038,-0.8038,-0.8038,-0.8038,-0.8038,-0.8038,-0.8038,-0.8038,-0.8038,-0.8038,-0.8038,-0.8038,-0.8038,-0.8038,-0.8041,-0.8045,-0.8041,-0.8041,-0.8045,-0.8041,-0.8041,-0.8045,-0.8045,-0.7955,-0.7875,-0.7156,-0.5432,-0.3513,-0.3515,-0.1909,0.0,0.0,0.0,-0.0909,-0.5564,-0.6894,-0.6478,-0.4124,-0.3515,-0.3515,-0.3515,-0.3515,-0.3515,-0.3515,-0.3515,-0.4325,-0.7299,-0.8009,-0.7892,-0.7578,-0.7475,-0.7472,-0.7463,-0.7769,-0.7969,-0.8048,-0.7962,-0.7865,-0.7537,-0.7759,-0.7975,-0.7975,-0.765,-0.765,-0.7989,-0.7672,-0.7466,-0.7475,-0.7475,-0.7475,-0.7475,-0.7475,-0.7275,-0.6968,-0.4628,-0.3515,-0.3515,-0.3515,-0.3515,-0.3515,-0.3515,-0.3515,-0.4351,-0.4918,-0.5481,0.0,-0.641,-0.662,-0.6871,-0.6976,-0.7061,-0.721,-0.7295,-0.7414,-0.7648,-0.7692,-0.7712,-0.7784,-0.7794,-0.7794,-0.7794,-0.7794,-0.7794,-0.7794,-0.7794,-0.7824,-0.7902,-0.7913,-0.7913,-0.7913,-0.7913,-0.7913,-0.7913,-0.7834,-0.7831,-0.7909,-0.7834,-0.7831,-0.7913,-0.7913,-0.7957,-0.8038,-0.8038,-0.8038,-0.8038,-0.8038,-0.8038,-0.8038,-0.8038,-0.8038,-0.8038,-0.8038,-0.8038,-0.8038,-0.8038,-0.8045,-0.7955,-0.7969,-0.7256,-0.6239,-0.6245,-0.5438,-0.4227,-0.2712,-0.2211,-0.2716,-0.5039,-0.677,-0.7795,-0.6556,-0.6247,-0.6247,-0.6247,-0.6247,-0.6247,-0.6247,-0.6242,-0.6548,-0.7785,-0.7989,-0.7975,-0.7965,-0.7962,-0.7959,-0.7955,-0.7955,-0.7952,-0.8041,-0.8048,-0.7952,-0.8041,-0.8048,-0.7955,-0.7955,-0.8045,-0.8045,-0.7959,-0.7955,-0.7955,-0.7962,-0.7962,-0.7962,-0.7962,-0.7962,-0.7962,-0.7962,-0.6851,-0.6247,-0.6247,-0.6247,-0.6247,-0.6247,-0.6247,-0.6247,0.0,0.0,-0.5125,-0.5803,-0.6088,-0.6302,0.0,-0.6817,-0.6912,-0.7058,-0.7088,-0.7166,-0.7434,-0.7516,-0.7553,-0.7594,-0.76,-0.76,-0.76,-0.76,-0.76,-0.76,-0.76,-0.7641,-0.7746,-0.7756,-0.7756,-0.7756,-0.7756,-0.7756,-0.7756,-0.7658,-0.7648,-0.7753,-0.7655,-0.7651,-0.7756,-0.7756,-0.7814,-0.7926,-0.7926,-0.7926,-0.7926,-0.7926,-0.7926,-0.7933,-0.8007,-0.8038,-0.8038,-0.8038,-0.8038,-0.8038,-0.8038,-0.8038,-0.8038,-0.7915,-0.7932,-0.7959,-0.7932,-0.7949,-0.7675,-0.5632,-0.5027,-0.5027,-0.5024,-0.6445,-0.7985,-0.7979,-0.7975,-0.7975,-0.7975,-0.7975,-0.8075,-0.8471,-0.8268,-0.7965,-0.7965,-0.7965,-0.7959,-0.8041,-0.8038,-0.8038,-0.8038,-0.8038,-0.8038,-0.8038,-0.8038,-0.8038,-0.8038,-0.8038,-0.8038,-0.8038,-0.8038,-0.8038,-0.8038,-0.8038,-0.8038,-0.8038,-0.8038,-0.8038,-0.8038,-0.8038,-0.8038,-0.8038,-0.7965,-0.7975,-0.7975,-0.7975,-0.7975,-0.7975,-0.7975,-0.7975,0.0,-0.4168,0.0,-0.5074,-0.562,-0.6088,-0.6257,-0.6512,-0.6756,-0.6909,-0.6939,-0.6987,-0.7136,-0.7285,-0.7431,-0.7577,-0.76,-0.76,-0.76,-0.76,-0.76,-0.76,-0.76,-0.7604,-0.7611,-0.7611,-0.7611,-0.7611,-0.7611,-0.7611,-0.7611,-0.7604,-0.7604,-0.7611,-0.7604,-0.7604,-0.7611,-0.7611,-0.7614,-0.7624,-0.7624,-0.7624,-0.7624,-0.7624,-0.7624,-0.7638,-0.7919,-0.8038,-0.8038,-0.8038,-0.8038,-0.8038,-0.8038,-0.8038,-0.8021,-0.7879,-0.7916,-0.8021,-0.7875,-0.7936,-0.7975,-0.7872,-0.7775,-0.7782,-0.7772,-0.7872,-0.7969,-0.8048,-0.8041,-0.8041,-0.8041,-0.8041,-0.8336,-0.9612,-0.8924,-0.8041,-0.8041,-0.8041,-0.8041,-0.8038,-0.8038,-0.8038,-0.8038,-0.8038,-0.8038,-0.8038,-0.8038,-0.8038,-0.8038,-0.8038,-0.8038,-0.8038,-0.8038,-0.8038,-0.8038,-0.8038,-0.8038,-0.8038,-0.8038,-0.8038,-0.8038,-0.8038,-0.8038,-0.8038,-0.8041,-0.8041,-0.8041,-0.8041,-0.8041,-0.8041,-0.8041,-0.8041,-0.3683,0.0,0.0,-0.4857,-0.5226,-0.5542,-0.5888,-0.62,-0.6461,-0.6607,-0.6715,-0.6797,-0.6848,-0.7058,-0.7241,-0.7295,-0.7305,-0.7305,-0.7305,-0.7305,-0.7305,-0.7305,-0.7305,-0.7343,-0.7444,-0.7455,-0.7455,-0.7455,-0.7455,-0.7455,-0.7455,-0.736,-0.735,-0.7451,-0.7356,-0.7353,-0.7451,-0.755,-0.76,-0.76,-0.76,-0.76,-0.76,-0.76,-0.76,-0.7604,-0.7709,-0.7756,-0.7756,-0.7756,-0.7756,-0.7756,-0.7756,-0.7756,-0.775,-0.7695,-0.7709,-0.775,-0.7695,-0.7716,-0.777,-0.777,-0.777,-0.7773,-0.777,-0.7834,-0.7902,-0.7896,-0.7963,-0.8237,-0.9019,-0.9316,-0.9604,-1.0877,-1.0877,-1.0485,-1.0485,-0.9217,-0.8038,-0.8038,-0.8726,-0.9316,-0.9316,-0.9998,-1.0485,-1.0485,-0.9801,-0.9316,-0.9316,-0.8531,-0.8038,-0.8038,-0.8038,-0.8038,-0.8038,-0.8038,-0.8038,-0.8038,-0.8038,-0.8038,-0.8038,-0.8038,-0.8038,-0.8038,-0.8038,-0.8038,-0.8038,-0.8038,-0.8038,-0.8038,-0.8038,-0.8038,-0.3429,0.0,0.0,0.0,-0.484,-0.5101,-0.5552,-0.585,-0.6091,-0.6285,-0.6444,-0.6583,-0.6681,-0.6861,-0.701,-0.7061,-0.7068,-0.7085,-0.7132,-0.7139,-0.7139,-0.7139,-0.7139,-0.718,-0.7285,-0.7292,-0.7292,-0.7292,-0.7292,-0.7292,-0.7292,-0.7197,-0.7187,-0.7292,-0.7193,-0.719,-0.7292,-0.7394,-0.7444,-0.7444,-0.7444,-0.7444,-0.7444,-0.7444,-0.7444,-0.7444,-0.7444,-0.7506,-0.76,-0.76,-0.76,-0.76,-0.76,-0.76,-0.7594,-0.7543,-0.7556,-0.7594,-0.7543,-0.7556,-0.76,-0.76,-0.7875,-0.8149,-0.8149,-0.8502,-0.8973,-0.9028,-0.9131,-0.9429,-1.0369,-1.097,-1.1458,-1.1848,-1.2237,-1.2431,-1.2042,-1.0583,-0.9312,-0.9312,-0.9998,-1.0681,-1.0681,-1.1365,-1.1945,-1.1945,-1.117,-1.0681,-1.0681,-0.9899,-0.9312,-0.9312,-0.892,-0.8627,-0.8627,-0.8237,-0.8237,-0.8627,-0.8237,-0.8432,-0.9312,-0.892,-0.8821,-0.9312,-0.9312,-0.9312,-0.9312,-0.8432,-0.8233,-0.8627,-0.8237,-0.8237,0.0,0.0,0.0,0.0,-0.4457,-0.4789,-0.5298,-0.5457,-0.5654,-0.5949,-0.6132,-0.6329,-0.662,-0.6678,-0.6729,-0.6885,-0.6915,-0.697,-0.7109,-0.7129,-0.7129,-0.7129,-0.7129,-0.7129,-0.7132,-0.7132,-0.7136,-0.7139,-0.7139,-0.7139,-0.7139,-0.7139,-0.7139,-0.7139,-0.7139,-0.7139,-0.7139,-0.7139,-0.7139,-0.7139,-0.7139,-0.7139,-0.7139,-0.7139,-0.7139,-0.7139,-0.7139,-0.7309,-0.7587,-0.7587,-0.7587,-0.7587,-0.7587,-0.7587,-0.7567,-0.7417,-0.7458,-0.7563,-0.7509,-0.7554,-0.7681,-0.7677,-0.8415,-0.9326,-0.9326,-1.0154,-1.1119,-1.1422,-1.1492,-1.1557,-1.1884,-1.2915,-1.3584,-1.2334,-1.3006,-1.3584,-1.2334,-1.2047,-1.1945,-1.195,-1.1945,-1.1945,-1.1945,-1.1945,-1.2047,-1.2047,-1.1945,-1.1945,-1.1945,-1.1945,-1.1945,-1.1945,-1.0779,-1.0096,-1.0096,-0.8821,-0.8627,-0.9998,-0.8825,-0.9213,-1.1755,-1.0681,-1.0681,-1.1853,-1.1945,-1.1945,-1.1848,-0.9312,-0.8825,-0.9998,-0.8726,-0.8825,-0.3134,0.0,0.0,0.0,0.0,0.0,-0.469,-0.4914,-0.5189,-0.5488,-0.5667,-0.583,-0.6017,-0.6142,-0.6268,-0.642,-0.6624,-0.6776,-0.6817,-0.682,-0.682,-0.682,-0.682,-0.6865,-0.6976,-0.6987,-0.7031,-0.7132,-0.7139,-0.7139,-0.7139,-0.7139,-0.7139,-0.7139,-0.7139,-0.7139,-0.7139,-0.7139,-0.7139,-0.7139,-0.7139,-0.7139,-0.7139,-0.7139,-0.7139,-0.7139,-0.7139,-0.7187,-0.7268,-0.7268,-0.7268,-0.7268,-0.7268,-0.7268,-0.7261,-0.7221,-0.7231,-0.7351,-0.8193,-0.8472,-0.869,-0.9478,-1.0004,-1.0264,-1.0264,-1.0553,-1.087,-1.093,-1.1261,-1.1836,-1.3036,-1.4268,-1.5146,-1.4854,-1.4956,-1.5146,-1.4758,-1.4758,-1.4178,-1.2237,-1.2721,-1.3397,-1.3397,-1.4076,-1.4758,-1.4758,-1.398,-1.3397,-1.3397,-1.2528,-1.1945,-1.1945,-1.1556,-1.1365,-1.1365,-1.1068,-1.0974,-1.1361,-1.1072,-1.1165,-1.1853,-1.1556,-1.1556,-1.1848,-1.1945,-1.1945,-1.1945,-1.1165,-1.0974,-1.1365,-1.097,-1.0974,0.0,0.0,0.0,0.0,0.0,0.0,-0.4477,-0.4646,-0.4813,-0.5114,-0.5294,-0.5443,-0.5589,-0.5742,-0.5874,-0.5966,-0.6227,-0.6488,-0.6675,-0.6702,-0.6702,-0.6702,-0.6702,-0.6736,-0.6824,-0.6834,-0.7034,-0.7543,-0.755,-0.7834,-0.8332,-0.8422,-0.8455,-0.8528,-0.8528,-0.8528,-0.8528,-0.8528,-0.8528,-0.8532,-0.8101,-0.8101,-0.8532,-0.8101,-0.8101,-0.8528,-0.8528,-0.8528,-0.8528,-0.8528,-0.8273,-0.7929,-0.8356,-0.8528,-0.8528,-0.8528,-0.8528,-0.8703,-0.9405,-0.9579,-0.9753,-1.0351,-1.0956,-1.1295,-1.1295,-1.1749,-1.2243,-1.2346,-1.2654,-1.3182,-1.4092,-1.4894,-1.5584,-1.6244,-1.6364,-1.6586,-1.7174,-1.6936,-1.5994,-1.3974,-1.4172,-1.4657,-1.4657,-1.5337,-1.5832,-1.5832,-1.5146,-1.4657,-1.4657,-1.398,-1.3499,-1.3499,-1.3011,-1.2716,-1.2716,-1.2237,-1.2139,-1.2716,-1.2237,-1.2431,-1.3494,-1.3011,-1.3011,-1.3499,-1.3499,-1.3499,-1.3499,-1.2431,-1.1945,-1.1945,-1.3011,-1.3204,0.0,0.0,0.0,0.0,-0.4083,0.0,-0.4528,-0.4524,-0.457,-0.4845,-0.5003,-0.5206,-0.5448,-0.5677,-0.5719,-0.5809,-0.6001,-0.628,-0.6566,-0.6641,-0.6651,-0.6651,-0.6651,-0.6658,-0.6675,-0.6757,-0.7252,-0.8164,-0.8328,-0.889,-1.007,-1.0188,-1.0288,-1.0565,-1.0595,-1.0611,-1.0611,-1.0611,-1.0611,-1.0611,-0.9579,-0.9579,-1.0611,-0.9579,-0.9666,-1.0611,-1.0611,-1.0611,-1.0611,-1.0783,-1.0096,-0.9148,-1.0183,-1.0611,-1.0611,-1.0611,-1.0611,-1.0611,-1.0783,-1.0778,-1.0783,-1.0956,-1.1643,-1.2504,-1.2504,-1.3372,-1.4396,-1.4774,-1.5055,-1.5356,-1.539,-1.5397,-1.5735,-1.7086,-1.7424,-1.7787,-1.9232,-1.868,-1.7591,-1.6473,-1.6109,-1.6015,-1.6197,-1.6197,-1.6197,-1.6015,-1.6015,-1.6015,-1.6015,-1.6015,-1.6015,-1.6015,-1.5038,-1.4256,-1.4166,-1.3011,-1.2818,-1.407,-1.3011,-1.3397,-1.573,-1.4752,-1.4657,-1.5737,-1.5832,-1.5832,-1.5825,-1.3499,-1.2334,-1.2431,-1.4758,-1.5146,0.0,0.0,-0.413,-0.4036,-0.4083,0.0,-0.4158,-0.4222,-0.441,-0.4942,-0.5085,-0.5372,-0.6222,-0.6504,-0.6688,-0.6917,-0.7341,-0.7257,-0.6263,-0.6268,-0.6346,-0.6346,-0.6346,-0.639,-0.6505,-0.7312,-0.7845,-0.8156,-0.8978,-0.9562,-0.9769,-1.002,-1.0218,-1.0263,-1.052,-1.0611,-1.0611,-1.0611,-1.0611,-1.0611,-1.0351,-1.0351,-1.0611,-1.0351,-1.0351,-1.0611,-1.0611,-1.0611,-1.0697,-1.1552,-1.13,-1.0265,-1.0524,-1.0611,-1.0611,-1.0611,-1.0611,-1.0697,-1.1638,-1.1986,-1.2157,-1.3124,-1.3561,-1.3737,-1.3737,-1.4559,-1.5612,-1.6775,-1.7178,-1.7296,-1.7486,-1.7557,-1.7731,-1.833,-1.8507,-1.8702,-1.9323,-1.9314,-1.9039,-1.8856,-1.7948,-1.7677,-1.858,-1.8764,-1.8495,-1.7498,-1.7318,-1.7318,-1.7318,-1.7318,-1.7318,-1.7318,-1.7117,-1.6553,-1.5534,-1.5146,-1.5146,-1.5439,-1.5146,-1.5248,-1.5737,-1.5534,-1.554,-1.5832,-1.5832,-1.5832,-1.5832,-1.5248,-1.5051,-1.5051,-1.554,-1.5635,-0.4321,-0.4185,-0.4355,-0.4355,-0.4247,0.0,0.0,-0.4559,-0.4914,-0.545,-0.5606,-0.5825,-0.6469,-0.6609,-0.6716,-0.6827,-0.7293,-0.7386,-0.6716,-0.7052,-0.7347,-0.7347,-0.7347,-0.7418,-0.7596,-0.8067,-0.8684,-0.9438,-1.0395,-1.108,-1.1207,-1.1414,-1.1548,-1.1682,-1.1933,-1.2067,-1.2067,-1.2281,-1.2345,-1.2345,-1.1735,-1.1729,-1.2345,-1.1729,-1.1821,-1.2345,-1.2345,-1.2345,-1.2431,-1.2948,-1.2863,-1.2345,-1.2345,-1.2345,-1.2345,-1.2345,-1.2345,-1.2431,-1.3033,-1.3203,-1.3372,-1.4559,-1.4894,-1.4977,-1.5553,-1.6034,-1.664,-1.731,-1.7532,-1.7573,-1.7754,-1.7711,-1.8011,-1.9239,-1.9549,-1.9887,-2.1007,-2.0854,-2.0576,-2.1221,-2.0314,-1.9497,-1.9497,-1.9497,-1.9314,-1.8688,-1.8596,-1.8596,-1.8596,-1.8596,-1.8596,-1.8596,-1.8596,-1.8311,-1.7662,-1.7662,-1.7662,-1.7662,-1.7662,-1.7662,-1.7662,-1.7662,-1.7662,-1.7662,-1.7662,-1.7662,-1.7662,-1.7662,-1.7023,-1.5832,-1.5832,-1.6109,-0.4718,-0.457,-0.4851,-0.4894,-0.4863,-0.4845,0.0,0.0,0.0,-0.611,-0.6322,-0.6509,-0.6855,-0.6807,-0.6728,-0.6775,-0.7234,-0.7567,-0.7567,-0.813,-0.8477,-0.8265,-0.8211,-0.8364,-0.8647,-0.8776,-0.9437,-1.0839,-1.1636,-1.2204,-1.2634,-1.2761,-1.2936,-1.3113,-1.3407,-1.3587,-1.3559,-1.3881,-1.4035,-1.4088,-1.3118,-1.3118,-1.4088,-1.3112,-1.3203,-1.4088,-1.4088,-1.4088,-1.4088,-1.4088,-1.4088,-1.4088,-1.4088,-1.4088,-1.4088,-1.4088,-1.4088,-1.4173,-1.4328,-1.4412,-1.4573,-1.5621,-1.6026,-1.6191,-1.7334,-1.7666,-1.7658,-1.79,-1.79,-1.79,-1.79,-1.79,-1.8313,-2.0007,-2.0495,-2.1015,-2.2669,-2.2249,-2.1933,-2.295,-2.2306,-2.1302,-2.0404,-2.0223,-2.0133,-1.9861,-1.9852,-1.9852,-1.9852,-1.9852,-1.9852,-1.9852,-1.9852,-1.9761,-1.9497,-1.9497,-1.9497,-1.9497,-1.9497,-1.9497,-1.9497,-1.9497,-1.9497,-1.9497,-1.9497,-1.9497,-1.9497,-1.9497,-1.8488,-1.6466,-1.6466,-1.703,-0.5303,-0.5381,-0.5948,-0.5752,-0.6321,-0.6807,-0.6342,0.0,-0.6559,-0.6911,0.0,-0.7218,-0.8056,0.0,0.0,-0.8119,-0.8456,-0.8629,-0.8629,-0.8918,-0.8753,-0.7697,-0.7635,-0.7721,-0.8064,-0.8644,-0.9645,-1.1201,-1.1215,-1.1383,-1.1937,-1.254,-1.2842,-1.2876,-1.31,-1.3387,-1.3641,-1.3674,-1.3828,-1.4088,-1.3997,-1.3997,-1.4088,-1.3997,-1.3997,-1.4088,-1.4088,-1.4088,-1.4088,-1.4088,-1.4088,-1.4088,-1.4088,-1.4088,-1.4088,-1.4088,-1.4088,-1.425,-1.522,-1.5538,-1.5703,-1.6764,-1.709,-1.7334,-1.847,-1.8798,-1.9036,-1.9923,-2.0235,-2.0235,-2.0235,-2.0235,-2.0361,-2.0941,-2.1428,-2.1835,-2.248,-2.2698,-2.295,-2.3047,-2.296,-2.2862,-2.2687,-2.2677,-2.2325,-2.1239,-2.1132,-2.1114,-2.1114,-2.1114,-2.1114,-2.1114,-2.1114,-2.0666,-1.9579,-1.9497,-1.9497,-1.9497,-1.9497,-1.9497,-1.9497,-1.9497,-1.9497,-1.9497,-1.9497,-1.9497,-1.9497,-1.9497,-1.9405,-1.9031,-1.9031,-1.9131,-0.6731,-0.6703,-0.6918,-0.671,-0.6953,-0.7089,-0.6748,-0.6987,-0.7326,-0.7688,0.0,0.0,0.0,0.0,0.0,0.0,-0.8223,-0.8297,-0.8297,-0.8353,-0.8538,-0.8758,-0.8615,-0.8685,-0.915,-0.9474,-1.0021,-1.0889,-1.0808,-1.0995,-1.1583,-1.2011,-1.2311,-1.2485,-1.2786,-1.2999,-1.312,-1.3467,-1.3707,-1.3834,-1.4008,-1.4088,-1.4088,-1.4088,-1.4088,-1.4088,-1.4088,-1.4088,-1.4088,-1.4088,-1.4496,-1.5061,-1.5061,-1.4657,-1.4088,-1.4088,-1.4489,-1.5054,-1.5538,-1.6108,-1.6846,-1.7908,-1.8709,-1.9274,-1.9756,-1.9923,-2.0001,-2.0479,-2.0566,-2.0566,-2.0566,-2.1001,-2.1343,-2.1203,-2.2492,-2.365,-2.3546,-2.4325,-2.5062,-2.5062,-2.5062,-2.5062,-2.5062,-2.3973,-2.296,-2.2413,-2.2315,-2.2306,-2.2306,-2.2306,-2.2306,-2.2306,-2.2306,-2.2129,-2.1587,-2.1587,-2.1587,-2.1587,-2.1587,-2.1587,-2.1587,-2.1587,-2.1587,-2.1587,-2.1587,-2.1587,-2.1587,-2.1587,-2.1587,-2.1587,-2.0133,-1.9852,-0.7846,-0.7786,-0.7941,-0.7677,-0.7703,-0.7716,-0.7466,-0.7796,-0.8136,-0.8312,-0.8526,0.0,0.0,0.0,-0.8029,-0.7895,0.0,-0.7855,-0.7816,-0.7802,-0.8183,-0.9205,-0.9279,-0.9349,-0.9833,-0.9733,-0.9826,-1.0349,-1.0167,-1.0408,-1.1149,-1.1543,-1.1884,-1.2178,-1.2472,-1.2741,-1.2822,-1.318,-1.344,-1.3527,-1.3828,-1.3968,-1.3968,-1.4048,-1.4088,-1.4088,-1.4088,-1.4088,-1.4088,-1.4412,-1.4977,-1.5703,-1.6026,-1.5628,-1.4985,-1.4985,-1.547,-1.6191,-1.6519,-1.7326,-1.831,-1.9195,-2.0001,-2.0566,-2.0566,-2.0566,-2.0566,-2.0566,-2.0789,-2.1011,-2.1011,-2.1669,-2.2348,-2.1957,-2.3474,-2.4859,-2.4492,-2.5546,-2.6483,-2.6483,-2.6483,-2.6483,-2.6483,-2.4893,-2.3637,-2.3973,-2.38,-2.3551,-2.3551,-2.3551,-2.3474,-2.3135,-2.3135,-2.3135,-2.3135,-2.3135,-2.3135,-2.3135,-2.3135,-2.3135,-2.3135,-2.3135,-2.3135,-2.3135,-2.3135,-2.3135,-2.3135,-2.3135,-2.3135,-2.3047,-2.1311,-2.0944,-0.82,-0.8592,-0.9121,-0.8485,-0.9007,-0.9462,-0.8891,-0.8977,-0.9097,-0.8825,-0.8977,-0.907,-0.8858,-0.8564,-0.827,-0.7928,-0.7882,0.0,0.0,-0.7527,-0.7762,-0.8393,-0.8905,-0.919,-0.921,-0.8758,-0.8784,-0.9646,-0.9185,-0.9372,-1.0591,-1.1129,-1.1577,-1.187,-1.2164,-1.2452,-1.2822,-1.2842,-1.2926,-1.3227,-1.352,-1.3661,-1.3667,-1.3955,-1.4088,-1.4088,-1.4088,-1.4088,-1.4166,-1.522,-1.5703,-1.5779,-1.6846,-1.7253,-1.718,-1.718,-1.7261,-1.7423,-1.847,-1.9599,-2.0489,-2.0566,-2.0566,-2.0566,-2.0566,-2.0566,-2.0566,-2.0566,-2.1221,-2.1952,-2.1952,-2.2702,-2.3452,-2.3463,-2.4212,-2.5004,-2.4937,-2.5788,-2.6483,-2.6483,-2.6483,-2.6483,-2.6483,-2.5546,-2.5126,-2.6224,-2.5462,-2.4787,-2.4787,-2.4787,-2.4296,-2.3222,-2.3135,-2.3135,-2.3135,-2.3135,-2.3135,-2.3135,-2.3135,-2.3135,-2.3135,-2.3135,-2.3135,-2.3135,-2.3135,-2.3135,-2.3135,-2.3135,-2.3135,-2.3135,-2.3047,-2.3047,-0.973,-0.9913,-1.0077,-0.9631,-0.9636,-0.9579,-0.9185,-0.911,-0.9103,-0.8871,-0.9038,-0.9097,-0.8858,-0.8571,-0.8343,-0.8243,-0.7882,-0.7589,0.0,-0.7513,-0.7587,-0.7795,-0.8303,-0.8591,-0.834,-0.8377,-0.8497,-0.8798,-0.8811,-0.9152,-0.994,-1.0534,-1.1076,-1.1557,-1.1864,-1.2158,-1.2452,-1.2721,-1.2876,-1.2983,-1.3817,-1.4273,-1.4281,-1.5001,-1.5564,-1.5851,-1.5851,-1.599,-1.6281,-1.6601,-1.7172,-1.79,-1.831,-1.8868,-1.9274,-1.7819,-1.7747,-1.855,-1.9678,-2.0323,-2.0566,-2.0566,-2.0566,-2.0712,-2.1375,-2.1517,-2.1669,-2.2339,-2.2776,-2.2999,-2.2999,-2.3745,-2.4337,-2.3661,-2.5335,-2.6863,-2.6224,-2.746,-2.8712,-2.8712,-2.8712,-2.8712,-2.8712,-2.7775,-2.686,-2.6554,-2.6141,-2.5975,-2.5975,-2.5975,-2.5808,-2.5389,-2.5316,-2.5052,-2.4296,-2.3551,-2.3135,-2.3135,-2.3135,-2.3135,-2.3135,-2.3135,-2.3135,-2.3135,-2.3135,-2.3135,-2.3135,-2.3135,-2.3135,-2.3135,-2.3135,-2.3135,-1.0571,-1.0698,-1.0615,-1.0214,-1.006,-0.986,-0.9296,-0.9263,-0.9312,-0.9018,-0.9057,-0.9267,-0.95,-0.9001,-0.8592,-0.8777,-0.814,-0.7555,0.0,-0.7308,-0.7308,-0.7308,-0.7842,-0.8183,-0.8096,-0.7969,-0.807,-0.8497,-0.8404,-0.8684,-0.9486,-1.008,-1.0668,-1.1249,-1.1663,-1.2011,-1.2298,-1.2858,-1.3105,-1.3105,-1.4388,-1.4996,-1.4996,-1.5639,-1.6198,-1.6419,-1.6419,-1.6711,-1.7136,-1.7464,-1.8188,-1.9036,-1.9441,-2.0001,-2.0401,-1.9027,-1.8948,-1.9687,-2.0323,-2.0566,-2.0644,-2.1011,-2.1078,-2.1298,-2.2253,-2.2553,-2.2702,-2.3294,-2.3745,-2.4036,-2.4036,-2.4779,-2.537,-2.4696,-2.6384,-2.795,-2.7311,-2.8509,-2.9792,-2.9792,-2.9792,-2.9792,-2.9792,-2.9197,-2.8438,-2.7799,-2.7302,-2.7046,-2.7046,-2.7046,-2.6964,-2.6565,-2.6483,-2.6224,-2.5462,-2.4723,-2.4307,-2.4307,-2.4307,-2.4145,-2.3714,-2.3714,-2.3551,-2.3135,-2.3464,-2.3714,-2.3714,-2.4135,-2.4063,-2.3493,-2.3815,-2.3815]}]]